GFSSW_sfc_30mbdewp_000.txt.gz
Dewpoint
56 55 53 52 51 51 52 52 52 53 54 57 59 60 60 60 59 56 52 51 52 53 55 48 46 48 47 46 48 45 42 38 37 36 35 36 34 34 33 31 34 34 34 37 38
57 56 54 52 51 51 52 52 52 52 54 56 59 60 59 59 57 54 54 56 56 56 53 48 45 46 44 46 45 47 43 40 40 38 36 37 36 36 34 34 34 35 36 41 47
56 57 55 53 52 49 52 52 53 53 55 56 57 59 60 59 52 50 55 56 57 57 53 52 49 46 43 46 45 46 42 43 43 42 41 40 38 38 36 36 36 35 35 38 47
55 56 56 54 53 50 50 52 53 54 54 55 56 57 59 56 42 47 53 54 55 57 53 52 48 42 42 41 45 43 45 45 44 45 45 43 42 40 37 37 35 36 36 37 42
56 55 56 55 53 50 51 52 52 53 53 55 56 56 55 49 48 49 52 50 55 54 52 49 48 44 39 41 42 42 44 45 45 45 45 46 45 45 44 43 42 41 38 36 37
54 56 55 56 54 52 52 52 52 52 54 54 55 54 48 40 44 44 43 46 51 53 53 51 49 48 44 43 41 41 41 41 41 42 43 43 43 43 43 43 40 39 38 38 37
56 55 56 55 54 53 53 53 53 52 53 53 54 50 46 41 44 44 42 42 43 47 49 52 50 48 47 43 44 42 39 40 40 40 40 42 40 40 42 42 41 40 38 38 37
53 55 54 55 55 54 54 53 54 54 54 53 54 50 41 45 47 44 42 40 41 45 41 48 49 46 45 44 40 39 39 35 36 38 40 41 35 37 38 38 40 41 40 39 38
49 52 55 54 55 55 55 54 54 53 53 53 47 44 38 44 44 44 43 38 39 40 40 40 39 37 39 37 34 36 31 33 33 37 38 38 34 38 39 38 38 38 38 38 37
46 49 52 55 55 55 55 53 53 52 51 49 47 42 41 38 42 42 44 41 38 39 38 38 38 36 36 33 23 28 32 32 31 35 36 36 38 39 38 39 39 40 39 38 38
45 49 51 54 55 55 53 49 44 43 47 40 40 38 38 42 42 41 42 40 39 37 35 37 35 31 32 33 32 34 33 33 34 35 34 33 33 34 35 36 37 38 40 40 39
44 47 52 52 55 55 49 42 41 39 37 43 43 42 42 41 38 40 41 38 37 34 35 34 30 33 34 35 34 34 32 31 33 33 33 31 30 31 32 34 37 38 38 40 40
44 46 50 51 55 52 46 43 46 43 35 35 42 41 41 41 38 39 40 38 36 35 34 31 30 33 34 33 32 32 31 30 29 30 29 28 25 25 27 29 31 33 34 38 39
44 45 48 52 52 49 45 47 46 39 26 27 38 40 41 40 36 40 40 38 36 33 34 34 34 32 32 31 32 29 32 32 31 29 24 26 17 22 23 27 29 30 32 38 39
44 45 48 50 50 46 47 47 45 33 15 31 38 42 41 35 37 39 40 37 34 33 33 29 31 31 30 30 31 28 31 31 31 30 29 28 25 23 23 23 27 33 35 37 38
45 46 48 47 50 48 48 48 42 22 15 31 37 39 38 36 38 39 38 38 37 33 33 30 34 32 31 31 30 31 30 29 29 27 22 23 25 18 19 20 24 27 31 34 37
46 47 49 46 46 50 48 42 27 19 31 31 32 36 35 34 36 37 35 35 33 28 28 34 33 34 34 30 31 30 28 21 21 21 18 21 22 19 22 24 26 29 31 31 34
46 48 48 46 50 50 44 32 22 23 27 33 31 33 32 33 32 36 35 33 35 34 29 25 23 32 33 30 28 28 26 20 12 17 17 20 17 20 26 25 24 24 30 33 34
48 47 46 45 51 47 37 25 22 24 33 32 32 29 30 32 32 33 34 31 31 36 28 27 24 32 33 32 31 31 26 27 21 19 20 20 21 25 27 24 22 24 27 29 34
46 43 43 46 51 44 32 27 25 31 34 33 28 30 28 30 30 32 30 30 32 34 34 30 25 29 32 33 32 31 31 26 26 16 13 15 17 18 21 25 28 26 22 31 35
43 37 43 46 48 40 30 28 27 37 35 32 30 30 28 28 31 30 26 28 32 31 34 32 30 27 33 31 27 30 28 29 26 25 15 12 11 20 17 29 29 29 30 33 35
40 33 47 49 36 36 31 28 31 38 39 37 35 32 31 31 31 29 27 28 32 33 31 34 32 25 26 30 31 28 26 27 21 18 21 19 15 26 34 32 31 32 31 34 37
38 41 48 45 31 33 33 31 34 38 38 37 35 34 35 33 28 31 30 30 33 34 32 33 30 24 25 29 32 31 30 26 26 27 20 16 13 17 23 28 32 33 37 39 41
38 34 40 42 39 33 30 30 31 36 36 38 37 36 35 34 33 30 30 30 33 34 35 34 32 28 21 27 31 28 30 30 27 24 21 21 20 20 28 30 32 35 38 41 41
41 35 36 31 35 32 31 31 31 31 37 37 37 36 36 33 33 32 32 31 33 34 36 36 29 32 32 31 32 32 31 30 28 26 22 20 20 25 27 31 33 34 38 40 40
39 37 37 35 35 31 31 34 32 33 36 36 35 35 37 35 33 28 32 32 32 34 35 37 29 32 29 33 32 30 32 33 32 28 26 24 23 28 32 34 34 33 37 39 40
40 43 37 36 36 32 31 33 32 35 36 37 38 38 37 37 39 38 36 35 36 36 35 34 31 29 26 32 32 26 30 31 31 33 27 25 26 27 32 36 33 33 36 38 40

GFSSW_sfc_30mbdewp_003.txt.gz
Dewpoint
57 57 57 55 53 52 51 50 52 52 53 54 56 59 61 60 59 56 51 51 53 54 55 49 46 48 48 47 50 45 42 38 36 35 34 36 35 36 33 32 34 34 33 37 45
56 56 57 56 54 52 52 51 53 53 53 55 57 59 59 59 56 53 54 55 56 55 53 48 45 45 44 46 46 46 43 41 41 38 37 37 36 37 36 35 36 36 37 38 47
55 56 56 57 55 53 51 52 53 53 54 55 56 57 59 59 52 51 55 57 57 58 53 51 48 44 41 47 45 46 40 43 42 41 41 41 40 39 37 36 37 37 36 37 43
57 55 56 56 55 53 51 50 53 53 54 55 55 56 59 55 41 47 54 54 57 56 53 51 47 40 40 41 45 42 45 46 44 45 45 44 44 44 39 39 39 36 39 38 39
52 55 55 55 56 54 51 50 53 53 53 54 55 56 55 50 48 49 50 50 55 54 51 49 46 41 38 41 42 43 44 45 45 45 45 46 45 45 45 44 44 45 44 42 40
49 53 54 55 55 55 53 52 52 52 54 53 55 52 48 43 44 42 42 45 53 53 51 49 48 47 43 42 40 41 42 41 41 41 42 42 42 44 43 45 45 43 42 40 39
46 50 52 55 54 55 53 53 52 52 53 53 54 49 45 41 43 43 41 41 42 50 51 52 50 47 47 43 44 42 39 39 39 39 39 41 39 40 42 43 42 42 42 42 40
42 45 51 51 55 55 54 54 53 54 53 52 53 48 40 45 47 44 41 38 40 44 44 50 50 47 45 44 39 38 38 34 35 38 39 38 32 37 39 40 41 41 41 41 41
42 42 46 51 52 55 55 55 54 53 53 54 47 42 37 44 45 45 41 37 39 40 40 41 39 37 41 37 33 35 28 33 34 37 35 38 35 36 39 39 39 39 39 40 40
39 41 44 48 52 55 56 54 53 52 50 48 47 41 42 38 42 43 43 39 38 39 38 38 38 36 35 33 19 24 31 32 30 34 35 35 35 35 37 38 37 38 39 40 40
40 42 45 47 52 54 55 51 44 43 46 40 39 39 39 42 42 41 42 39 39 38 35 37 34 31 32 33 30 33 32 31 32 34 33 32 32 32 34 34 34 35 35 37 39
41 44 45 46 51 53 52 44 40 39 36 44 44 42 43 42 38 40 41 37 37 34 36 34 30 33 33 33 33 32 31 30 29 33 32 31 30 30 31 31 32 32 34 37 39
44 46 45 45 49 51 49 45 44 40 30 36 42 42 40 41 38 39 40 38 36 34 34 31 30 33 33 33 31 30 29 27 27 30 31 28 23 21 21 23 29 31 32 33 33
44 44 45 45 46 48 46 48 47 36 23 26 36 40 41 39 36 41 40 38 36 33 32 31 33 33 33 32 33 28 31 32 31 29 23 27 18 18 22 22 23 26 28 30 33
44 44 46 46 44 47 48 48 43 33 14 31 37 42 41 36 35 39 40 36 34 33 33 28 31 33 31 31 32 28 31 30 31 30 29 26 24 21 23 22 23 25 27 31 32
41 43 45 45 47 47 50 48 40 24 15 31 37 38 38 36 38 39 39 38 37 33 34 30 33 31 30 31 31 31 30 29 28 27 20 21 23 17 17 18 21 24 26 29 32
42 42 44 46 40 48 50 44 28 22 29 31 33 38 35 33 36 36 35 35 33 28 28 30 31 33 33 29 31 30 30 22 20 20 16 19 22 19 19 21 21 21 25 30 32
44 46 46 47 48 50 45 34 24 24 27 32 31 35 33 31 33 35 33 32 34 33 29 24 20 30 33 30 27 29 27 22 14 14 15 21 20 20 23 23 23 23 23 23 27
47 47 46 48 48 47 39 29 24 25 32 31 31 30 31 31 31 32 33 33 33 35 28 25 25 31 33 33 29 30 27 28 24 24 20 18 19 19 19 19 21 23 22 22 24
45 43 43 47 48 45 35 31 26 34 34 32 29 29 27 30 31 31 32 31 32 34 34 30 25 28 32 33 32 31 33 25 26 16 14 14 16 15 15 11 15 26 27 29 27
42 36 42 47 48 40 30 32 31 36 34 32 31 30 29 30 30 31 28 27 33 33 34 33 30 27 32 30 27 30 28 29 28 26 18 13 10 17 15 19 27 28 30 33 31
39 34 45 47 35 33 32 29 34 36 38 37 34 32 30 30 30 29 27 27 32 34 33 33 31 26 25 29 31 29 27 27 23 20 24 20 17 19 19 30 28 30 32 35 36
37 40 46 42 30 32 34 33 36 38 38 36 34 35 34 31 29 30 30 31 34 33 31 34 30 23 23 29 31 31 30 28 27 26 22 18 16 17 18 30 31 32 35 37 40
38 34 40 41 39 34 31 32 32 37 38 38 36 36 35 34 32 31 31 32 33 34 35 35 32 26 20 24 31 28 29 31 30 24 21 21 21 21 21 25 29 29 35 38 39
41 34 36 32 35 32 32 31 33 32 36 37 36 35 34 33 33 33 33 32 33 34 35 35 29 31 31 30 31 31 31 30 29 27 22 20 21 21 22 26 30 35 36 39 39
36 37 37 37 36 31 33 30 30 33 36 36 34 35 36 35 31 30 32 32 31 34 36 37 30 32 29 33 32 29 31 31 30 29 27 25 25 26 26 29 37 39 37 38 39
40 42 41 36 34 30 30 32 32 34 35 37 37 36 36 36 37 37 37 36 35 34 34 34 32 29 25 31 31 27 30 31 32 32 29 26 26 27 27 32 36 36 35 38 40

GFSSW_sfc_30mbdewp_006.txt.gz
Dewpoint
56 56 56 57 57 54 52 52 49 52 53 53 55 57 60 60 60 57 51 50 51 55 55 49 46 46 46 44 47 47 35 29 29 30 29 34 32 34 33 31 33 33 34 37 44
54 56 55 56 57 55 53 52 51 53 53 54 55 57 59 59 54 52 52 55 55 56 50 46 43 43 41 42 43 40 34 30 31 34 32 33 34 33 34 33 33 35 36 38 44
52 53 56 56 56 56 54 52 52 53 54 55 55 57 59 58 53 51 54 57 57 57 52 48 45 42 39 42 41 40 35 34 39 39 38 36 37 37 35 32 34 34 35 38 39
47 51 54 54 56 56 54 52 51 53 54 54 55 56 59 57 43 50 55 55 58 56 53 50 45 40 38 39 41 38 39 38 39 42 43 42 42 41 38 34 35 38 38 41 42
44 46 50 53 54 56 56 53 51 53 53 53 55 55 55 50 48 48 50 52 55 55 51 49 44 40 37 37 40 40 37 41 42 44 43 42 40 41 40 41 43 43 44 44 43
40 44 47 51 53 55 55 54 52 53 53 53 54 52 47 44 44 43 44 51 53 54 50 49 46 44 40 38 38 39 41 40 40 40 40 39 39 39 39 40 40 40 40 42 42
39 44 44 46 51 52 55 53 53 53 54 53 53 49 44 38 42 42 42 44 47 52 50 50 48 45 43 40 43 41 37 35 35 36 37 39 36 35 35 36 36 38 37 37 38
37 42 43 43 49 52 55 54 53 53 54 53 53 46 38 45 45 44 41 41 44 46 50 51 51 45 41 43 39 36 36 32 33 36 34 34 28 30 39 37 36 37 36 35 36
39 38 42 41 46 51 53 56 54 54 53 53 46 41 38 45 43 43 41 40 40 41 44 47 41 38 40 34 32 32 26 30 29 34 34 34 31 33 34 37 37 35 36 37 38
39 38 40 43 45 49 52 56 54 52 51 48 46 41 42 38 43 43 41 39 39 40 39 39 38 35 35 33 22 22 28 26 24 29 34 31 30 31 34 34 33 33 35 37 38
40 40 42 44 45 47 51 54 46 45 45 37 39 37 39 42 42 41 40 39 38 37 35 37 34 32 30 31 28 27 27 26 27 30 30 28 28 29 30 31 31 32 33 33 35
43 43 45 45 46 46 50 45 41 41 39 42 41 41 42 41 38 40 40 35 35 32 35 34 32 31 31 31 31 29 26 25 26 28 28 26 26 27 27 27 28 29 30 31 32
44 44 45 45 46 44 46 47 47 44 35 41 41 40 40 41 37 38 38 37 34 33 33 30 30 32 32 31 30 29 28 26 26 26 27 27 24 20 20 21 22 25 26 27 27
44 43 43 43 42 42 42 49 49 45 33 32 38 39 40 39 36 40 38 36 35 31 32 31 31 31 31 30 30 26 27 27 28 26 23 25 18 18 19 19 21 23 25 26 27
44 42 42 42 42 39 45 50 47 41 23 32 37 42 40 33 36 39 40 36 32 32 32 28 32 32 30 30 31 27 29 27 27 26 25 23 25 18 21 20 21 21 22 22 25
40 42 42 41 41 42 47 48 43 30 22 32 38 38 37 35 37 39 38 37 35 32 33 29 32 31 29 31 31 30 29 28 27 25 22 21 19 17 16 17 16 19 21 20 25
41 42 42 41 38 43 49 43 29 25 30 31 32 35 33 32 35 35 36 34 31 29 28 29 30 32 31 29 31 30 27 20 20 21 15 13 15 17 17 19 19 19 17 21 24
44 47 47 44 44 45 46 34 25 28 26 31 33 32 30 31 35 34 34 33 33 31 28 25 23 29 32 29 26 28 26 19 10 6 9 14 16 14 17 20 21 21 21 20 24
46 45 45 45 45 46 37 28 29 26 30 30 33 30 31 29 32 32 32 29 30 32 28 27 25 30 31 31 30 28 27 27 23 24 22 16 19 18 19 20 20 19 18 28 29
41 42 43 47 48 43 33 31 30 32 31 30 27 27 26 29 29 29 30 31 30 32 31 29 25 27 29 33 32 30 30 25 27 16 13 12 15 12 13 13 14 15 23 27 30
39 37 43 47 42 36 30 32 34 34 32 31 30 28 27 28 28 28 28 29 31 32 33 30 27 27 31 29 25 29 28 30 28 24 15 11 8 12 15 20 25 26 26 30 33
39 31 44 47 34 34 32 34 36 35 38 35 32 30 28 30 29 28 28 27 30 34 32 31 30 26 26 26 28 25 25 26 24 22 26 19 16 15 17 16 24 25 28 30 36
36 37 44 45 31 32 35 35 38 36 37 35 34 32 32 30 29 29 29 31 32 32 31 32 31 23 23 29 29 28 27 27 31 30 24 20 15 17 20 18 20 21 24 30 37
37 32 39 38 38 34 31 32 34 38 38 37 35 35 33 30 31 30 30 32 32 32 34 33 30 26 20 22 27 29 29 32 30 25 21 22 21 20 20 21 22 23 29 37 36
38 35 37 32 34 32 32 33 32 32 37 37 34 33 32 30 31 31 32 32 33 34 34 33 29 31 30 29 30 32 31 32 29 28 24 22 20 21 21 22 24 27 30 37 37
35 37 37 37 34 32 34 31 31 35 34 34 33 35 34 31 31 31 33 33 31 33 33 35 30 33 29 32 31 31 33 33 32 31 27 26 25 27 27 27 29 37 39 37 37
40 41 41 37 35 30 32 31 31 34 36 38 35 35 34 36 36 36 35 34 34 33 33 34 32 30 25 29 29 28 32 33 33 33 30 26 27 27 27 31 36 38 36 37 37

GFSSW_sfc_30mbdewp_009.txt.gz
Dewpoint
50 53 55 56 56 56 56 54 53 50 52 53 53 55 57 59 60 56 49 50 50 56 55 47 44 43 43 41 40 44 37 30 28 25 25 27 27 31 30 28 28 29 30 37 44
47 49 52 55 55 56 56 54 53 51 53 53 54 56 57 59 53 49 50 53 54 54 50 45 41 41 39 39 41 40 33 29 27 26 27 29 31 30 32 30 27 30 33 37 41
42 45 48 51 54 55 56 55 54 53 53 54 55 55 57 57 48 47 52 56 56 55 49 45 42 39 36 37 38 37 34 30 29 35 36 33 31 31 31 31 31 29 31 35 38
40 40 45 48 51 53 55 56 54 53 53 54 54 55 56 55 43 51 55 55 58 56 50 47 43 40 37 35 36 34 34 33 32 34 39 37 35 33 33 33 33 31 33 36 38
39 39 44 45 47 50 53 56 55 52 53 53 53 54 54 51 49 50 52 53 55 55 50 47 43 40 37 36 36 37 36 33 35 38 38 38 38 37 37 38 37 37 38 39 39
39 37 41 43 44 46 52 54 56 52 53 54 53 54 49 45 48 46 45 49 49 53 49 48 45 41 39 36 36 36 37 36 37 38 38 38 36 36 36 37 37 37 38 39 39
39 39 38 40 42 44 48 53 56 53 53 54 53 49 43 42 42 43 45 46 50 52 50 49 49 45 42 39 39 39 37 35 34 35 35 36 34 34 35 35 34 34 35 36 36
39 39 40 39 41 43 46 52 53 54 53 53 52 44 38 44 42 40 44 46 49 50 49 50 49 45 41 41 38 35 35 31 31 33 32 33 29 30 33 34 34 33 32 32 33
39 39 41 40 40 42 46 50 52 55 53 53 46 43 37 45 42 40 41 43 43 45 48 48 48 40 39 35 30 31 28 29 29 30 31 32 30 29 33 32 31 32 34 33 35
39 40 42 42 42 44 46 49 51 54 52 49 46 41 40 38 41 41 40 41 40 40 40 39 37 34 34 31 25 25 27 26 23 23 30 29 28 28 28 29 32 33 32 32 33
41 42 42 43 45 46 45 47 48 46 49 40 39 36 39 41 42 40 39 40 39 38 34 37 34 32 30 31 30 27 24 22 22 24 26 25 25 24 24 25 27 29 30 31 31
42 44 43 44 45 46 45 42 46 45 41 41 38 38 40 40 38 39 38 36 37 35 34 35 33 32 31 30 29 28 26 24 23 25 25 25 24 24 24 24 25 25 27 28 28
42 44 43 44 43 43 40 42 50 48 40 40 39 39 40 40 36 38 37 34 34 32 31 31 30 31 30 30 28 27 26 25 24 25 26 25 23 22 22 23 23 24 24 25 26
41 43 43 42 39 40 39 47 49 47 33 36 39 38 40 39 36 39 37 35 34 31 32 32 30 30 28 28 28 25 25 25 26 25 22 24 19 17 15 17 19 20 22 23 23
38 41 42 42 39 38 41 49 48 44 23 36 38 39 39 34 36 38 38 37 31 30 31 29 29 29 29 28 28 27 29 27 26 25 24 22 21 18 14 13 11 15 21 23 23
38 40 42 40 39 39 43 47 42 29 23 32 37 37 36 32 35 38 37 37 33 30 30 27 30 30 29 29 29 30 28 27 26 26 21 20 17 14 11 7 10 13 17 19 19
42 43 45 41 37 38 45 42 27 23 33 31 31 35 33 31 33 36 34 33 30 28 27 29 28 30 29 28 30 29 27 21 21 22 17 12 12 13 11 12 12 14 17 19 18
45 46 46 46 44 40 42 35 24 30 30 31 33 33 31 30 30 31 31 30 30 28 27 26 26 29 31 29 26 27 25 19 11 8 9 13 11 12 14 14 15 17 18 19 19
45 41 43 45 43 43 35 26 24 29 30 31 31 30 30 30 32 31 29 30 29 30 28 26 26 28 29 29 28 27 25 26 23 21 18 15 14 15 14 15 16 16 18 18 17
43 40 41 45 43 42 33 31 33 30 30 30 27 29 26 27 31 29 28 29 29 30 30 28 25 26 28 31 30 28 28 25 27 16 11 10 10 10 12 13 12 14 16 16 22
43 37 44 46 42 37 29 32 35 31 32 30 27 26 26 26 27 27 28 29 29 30 30 28 26 28 30 28 24 28 27 30 25 25 19 16 13 13 13 17 20 25 24 26 28
39 32 45 43 34 35 33 35 36 32 37 32 30 27 26 26 26 25 26 26 30 31 29 29 28 26 25 26 27 26 27 26 25 20 25 21 19 19 17 17 17 20 22 23 22
36 37 44 45 30 33 35 36 34 35 36 33 31 29 28 27 26 27 27 29 29 31 29 30 30 24 27 27 26 26 26 25 28 30 25 22 19 17 19 19 19 18 19 21 27
35 33 38 40 39 34 34 36 35 39 36 35 33 31 29 28 30 27 29 32 30 31 33 31 29 27 20 22 25 29 30 30 31 27 24 23 22 22 22 22 22 22 22 25 27
38 36 37 33 34 36 35 35 35 34 36 34 32 30 28 27 28 28 30 31 32 32 32 31 30 29 29 28 29 29 30 30 31 31 28 25 22 23 24 25 26 26 24 30 34
36 36 38 35 32 30 31 31 31 33 32 30 30 30 30 27 29 29 30 30 30 32 32 34 30 32 29 30 30 30 31 34 35 34 33 33 31 30 28 27 28 32 33 37 36
40 41 40 37 32 29 30 30 32 34 36 36 34 33 32 34 35 35 35 33 33 32 32 33 33 30 25 27 28 29 34 35 35 35 34 30 32 30 28 30 35 36 38 38 36

GFSSW_sfc_30mbdewp_012.txt.gz
Dewpoint
43 45 48 51 53 55 56 57 56 54 52 51 54 54 55 57 59 57 54 50 52 55 55 52 46 44 42 42 41 41 38 34 32 29 29 28 26 28 30 30 29 29 29 41 51
42 43 43 48 50 53 54 56 57 55 53 53 54 54 56 58 55 52 52 51 52 56 48 47 42 42 41 40 40 39 39 37 35 30 29 33 28 29 30 30 29 29 30 39 43
41 41 41 43 47 50 52 54 56 55 54 54 54 54 55 57 52 45 51 53 55 53 51 47 42 39 39 38 39 39 37 34 32 30 32 36 36 33 30 31 31 29 28 34 37
41 40 40 40 44 46 49 52 55 58 54 53 54 54 55 55 41 51 55 56 56 55 51 46 42 39 37 35 36 35 36 35 34 34 34 36 37 35 33 32 33 33 34 34 37
40 40 40 40 40 42 46 49 53 56 54 54 54 53 53 51 48 54 55 55 56 56 52 44 42 40 37 36 34 34 34 33 33 34 35 37 37 38 38 38 38 37 36 37 38
41 41 41 40 40 41 43 46 51 55 56 54 53 53 49 45 51 47 47 49 51 54 51 47 45 44 40 37 35 36 36 36 37 35 36 37 37 38 36 36 36 37 38 38 39
43 42 42 41 41 41 41 45 48 53 57 53 53 50 43 44 45 49 49 45 48 52 51 49 48 45 43 39 40 37 37 37 36 36 36 36 34 35 37 37 36 35 36 37 37
42 42 41 41 42 41 41 42 47 50 54 54 53 47 41 42 43 41 47 47 48 52 52 50 49 46 42 41 38 37 37 34 31 34 34 35 31 32 33 35 34 34 34 33 35
42 43 42 42 42 43 42 44 47 49 54 54 48 45 38 44 42 39 43 45 47 48 52 50 48 43 40 36 33 34 30 31 31 33 32 31 30 32 32 31 32 33 32 33 33
42 43 42 42 42 44 45 45 47 48 54 52 46 42 40 40 40 40 40 43 42 45 43 44 40 36 36 34 27 27 29 29 27 28 29 29 29 30 30 29 29 31 33 33 33
42 43 43 43 44 44 45 44 44 45 49 43 41 37 36 41 42 39 40 41 39 41 35 37 34 33 32 33 32 30 29 26 24 24 23 23 23 25 26 26 25 26 28 30 32
42 43 43 43 44 43 44 39 43 46 40 46 39 38 41 41 39 39 40 38 37 35 35 35 32 32 31 31 30 30 29 27 26 25 25 25 25 26 26 26 25 25 25 26 28
42 42 42 43 42 42 40 39 48 46 41 41 40 38 40 39 38 38 38 37 35 34 35 32 31 33 32 30 29 28 27 26 25 26 26 25 24 24 23 26 26 26 26 26 26
42 40 40 43 40 39 38 46 47 46 33 36 39 38 39 40 36 38 38 35 34 34 32 31 32 29 29 29 29 25 27 26 25 25 23 26 22 21 20 17 21 22 23 23 24
40 39 40 41 40 37 42 48 46 42 22 37 38 40 39 37 37 38 38 35 32 32 32 31 30 30 29 27 28 26 29 27 27 26 25 24 23 20 18 18 16 16 18 22 23
42 43 43 43 42 39 44 46 40 27 22 32 38 37 37 35 35 37 36 36 34 30 30 30 30 29 29 29 29 29 28 27 26 25 21 22 20 11 14 16 16 12 13 18 20
43 44 45 45 38 38 43 39 27 22 35 31 34 36 33 32 34 34 34 33 30 28 27 28 29 30 30 28 30 29 26 23 22 22 15 17 17 14 15 16 15 14 16 15 16
46 46 45 45 44 39 40 33 22 28 32 32 36 34 30 31 33 34 33 31 31 29 27 25 26 28 30 29 28 29 26 21 15 16 18 19 16 15 15 15 15 16 16 17 19
46 43 43 46 46 41 34 24 27 31 31 32 35 32 32 31 31 31 31 29 29 29 28 27 26 29 31 30 29 27 25 27 24 22 20 18 15 16 16 17 17 16 16 18 19
44 41 41 43 43 39 32 29 30 37 32 31 27 28 27 28 29 29 29 29 27 29 30 28 26 27 29 30 29 28 27 25 25 17 14 14 13 13 15 15 18 18 20 23 25
42 37 42 44 42 38 30 31 33 36 31 30 28 26 25 29 29 27 26 28 29 29 29 27 26 27 29 28 27 28 27 28 26 26 20 16 15 17 18 17 18 21 25 23 26
38 33 44 43 34 35 33 34 39 34 36 30 28 27 25 26 28 27 27 27 29 30 28 28 28 26 27 28 29 28 27 27 24 20 23 22 20 23 22 20 19 19 21 23 24
37 38 44 44 30 33 35 36 37 36 36 32 29 28 27 26 26 27 28 28 30 30 29 29 29 24 27 27 26 26 26 26 27 28 24 22 20 20 23 23 24 22 23 21 23
38 32 37 39 39 34 34 36 36 40 35 33 31 30 27 27 29 27 29 31 29 31 32 30 29 26 23 25 28 29 30 29 29 27 25 25 25 26 26 25 30 32 34 30 28
39 35 37 33 36 35 37 37 35 34 35 33 31 29 27 26 27 27 28 31 31 33 31 31 29 30 30 29 28 28 29 29 31 32 28 28 30 31 32 32 30 29 34 35 38
38 36 39 34 36 37 35 36 34 32 33 29 29 29 28 27 30 26 29 29 31 32 31 32 29 33 29 29 29 28 30 31 31 33 35 35 33 36 36 34 33 35 36 37 38
40 41 40 35 32 30 31 30 32 34 35 36 33 31 32 36 36 36 36 34 33 32 31 34 33 29 25 27 28 28 31 34 35 36 35 32 35 37 34 33 34 36 38 38 39

GFSSW_sfc_30mbdewp_015.txt.gz
Dewpoint
42 42 43 44 46 50 53 54 55 57 55 54 52 54 54 55 57 57 51 53 53 56 55 52 51 47 45 42 42 42 39 36 36 35 32 32 32 29 31 29 29 29 30 50 55
42 42 42 42 42 45 50 52 54 56 57 55 53 54 54 56 55 54 55 56 56 53 54 47 46 44 42 41 41 39 37 38 38 35 33 32 35 35 30 29 29 30 35 48 53
41 40 41 41 41 41 44 49 51 54 57 55 54 54 55 55 50 50 55 55 54 55 52 47 47 42 41 41 40 38 37 39 39 37 34 36 35 37 34 30 30 29 30 41 46
42 42 42 42 41 42 41 42 48 52 55 56 54 55 54 53 39 54 55 55 54 54 52 49 46 41 38 38 39 37 37 37 36 37 35 34 37 37 37 34 38 36 35 35 37
44 44 43 44 42 42 40 42 44 49 54 57 54 54 52 49 48 56 56 55 56 55 52 50 46 41 37 37 36 35 35 36 36 35 35 35 35 37 37 38 39 39 38 38 37
45 44 43 42 41 40 42 41 40 47 52 56 55 53 50 43 50 52 52 55 55 54 53 52 44 43 41 39 37 35 35 37 37 37 37 36 36 37 37 38 37 36 36 37 38
45 42 43 43 43 43 40 41 41 42 50 52 56 51 45 43 49 47 48 48 51 53 50 51 48 45 43 39 40 38 36 37 37 38 37 36 35 36 38 39 38 38 37 36 36
43 44 43 43 43 42 42 43 42 43 48 51 55 49 43 44 45 48 49 48 47 50 51 51 49 45 42 40 38 36 36 34 35 35 37 36 32 34 36 36 36 37 37 36 36
43 43 43 43 42 42 43 43 44 44 47 51 52 47 39 45 41 40 46 46 50 53 52 50 48 43 41 37 34 35 31 33 34 33 34 34 32 33 34 33 32 34 35 35 35
42 43 43 43 43 44 45 44 45 46 48 52 50 43 43 40 42 39 39 46 46 50 50 48 45 38 37 35 29 29 32 30 29 30 31 30 31 32 32 30 29 29 32 33 33
42 42 43 43 43 44 44 42 42 42 45 43 40 39 39 41 42 40 39 43 45 43 37 40 36 35 35 35 33 32 30 29 28 28 25 24 25 25 25 25 25 26 27 28 29
42 43 43 42 42 43 43 38 41 43 37 44 42 41 41 41 38 39 40 39 41 37 36 35 33 35 34 35 34 31 30 29 27 26 26 26 25 26 26 26 26 26 26 26 27
41 42 41 40 43 43 39 39 46 43 37 43 45 40 40 41 39 38 39 38 37 36 34 32 31 34 33 32 29 29 28 28 27 27 26 25 21 23 25 26 26 27 27 26 26
39 40 41 41 40 40 39 45 47 43 29 36 40 39 40 40 38 39 40 37 36 34 35 33 31 31 32 31 30 27 28 28 27 25 22 26 18 23 21 22 20 25 26 26 27
42 42 44 44 42 38 42 46 43 39 20 36 39 41 40 39 38 37 38 36 34 34 34 32 31 30 28 28 28 27 29 27 27 25 25 24 21 21 22 20 19 19 16 18 24
43 44 45 45 45 41 46 45 41 26 19 33 39 37 38 37 37 38 37 37 34 32 33 29 30 30 30 29 29 29 27 26 26 25 19 21 19 14 15 17 17 16 14 14 18
45 46 47 45 40 43 43 39 25 19 34 31 35 36 35 35 35 35 34 33 30 27 29 29 29 30 30 29 29 29 25 20 19 20 14 21 21 17 16 17 17 16 17 16 16
47 48 44 45 44 42 39 33 21 30 30 37 36 34 32 33 34 34 33 30 32 29 27 25 22 29 30 29 27 28 25 19 10 17 19 21 17 17 19 19 17 16 16 17 17
47 42 43 46 43 38 34 23 24 30 35 35 35 32 31 32 34 32 31 29 30 30 26 25 25 30 30 30 29 28 25 27 23 22 19 18 17 17 17 16 18 19 19 19 18
44 41 42 44 41 36 33 30 30 34 37 33 29 31 29 30 30 31 31 30 28 29 30 29 25 29 31 30 30 28 28 23 24 14 14 16 16 14 15 16 18 23 23 24 27
40 36 41 42 42 36 30 31 34 37 35 32 28 27 29 32 30 29 29 28 29 29 30 28 26 27 29 28 26 28 27 27 25 25 19 18 17 18 19 20 20 19 20 23 23
38 33 41 45 34 35 32 34 38 36 38 36 29 27 27 32 29 27 27 28 30 30 28 27 27 26 26 29 30 29 27 27 21 19 23 22 20 22 21 22 23 24 24 23 27
37 37 43 44 32 32 35 37 38 38 35 32 30 28 29 28 27 27 28 29 30 29 28 28 26 23 25 28 29 27 28 27 27 27 23 21 19 21 22 25 27 29 30 32 33
37 29 34 39 39 35 34 36 34 38 36 33 30 27 27 27 29 27 30 29 31 32 32 29 30 24 21 25 28 27 28 28 27 27 24 24 23 26 28 31 35 35 34 33 33
39 34 36 31 33 34 37 37 34 33 34 32 30 29 28 27 28 28 31 30 30 33 31 32 28 30 29 29 30 29 28 28 28 29 27 26 28 30 33 36 37 36 35 36 38
37 36 37 35 36 36 37 35 35 34 35 31 29 32 32 30 30 27 30 31 29 32 31 32 27 31 28 28 29 28 29 29 29 30 30 31 31 35 36 38 37 35 37 37 38
40 41 39 34 35 34 32 34 33 35 34 36 34 36 35 36 37 37 35 34 32 31 31 33 31 28 22 27 28 27 29 29 31 34 35 32 35 38 35 36 37 37 37 38 39

GFSSW_sfc_30mbdewp_018.txt.gz
Dewpoint
44 42 41 42 42 42 43 47 51 53 55 57 55 53 54 54 55 55 50 52 53 56 57 52 51 47 47 42 42 42 38 36 34 32 31 33 33 33 31 29 29 30 34 50 56
43 42 42 39 41 42 41 43 47 50 53 56 56 54 54 55 54 51 53 54 55 55 55 53 47 47 43 41 41 39 38 38 38 37 35 34 34 35 32 29 29 30 47 54 56
46 44 43 44 45 42 41 40 40 44 49 53 57 54 55 55 49 47 54 56 57 56 53 53 47 44 42 41 40 39 37 39 39 39 37 35 35 38 34 30 31 30 47 51 51
48 46 45 45 45 43 41 43 41 41 47 51 54 55 55 53 38 51 56 57 56 56 52 49 47 44 40 39 40 37 38 38 38 38 37 35 36 36 37 34 36 39 37 36 46
46 48 46 45 44 44 41 39 40 41 42 49 52 56 52 47 47 53 56 57 55 53 51 48 45 42 38 38 39 36 37 37 37 38 37 36 35 34 37 39 39 39 39 37 37
46 45 43 43 44 44 43 41 41 41 40 44 51 56 49 41 49 53 56 56 55 53 51 50 47 44 41 39 37 36 35 36 36 37 38 36 36 36 37 38 38 38 37 37 37
44 44 44 44 43 43 42 42 42 42 42 44 49 53 46 42 48 52 53 54 55 54 51 52 51 44 43 40 40 38 36 37 37 37 37 37 34 36 37 37 37 38 38 38 37
44 44 44 43 43 43 43 43 43 43 44 45 49 52 41 45 44 47 48 48 50 53 52 51 48 44 42 41 38 36 36 33 35 35 35 36 31 34 36 37 37 37 38 38 38
42 42 43 43 43 43 44 44 44 44 45 45 50 47 37 45 43 47 48 46 50 53 52 51 48 43 40 37 34 34 31 32 33 35 34 35 33 34 35 35 34 34 34 34 36
42 42 43 43 43 43 45 44 44 45 45 46 50 42 40 40 42 41 42 48 48 50 49 48 47 41 38 34 28 28 32 32 31 29 32 30 34 34 33 33 32 31 30 30 32
41 42 42 43 43 43 44 42 37 39 42 39 42 39 37 42 42 40 39 45 49 46 42 44 39 37 37 37 32 31 31 30 30 30 26 25 24 25 26 26 26 26 26 26 27
40 40 41 42 41 42 44 38 39 40 34 42 43 42 41 41 39 39 41 41 44 38 38 37 36 37 36 36 35 34 32 30 29 28 26 26 25 26 26 26 27 26 26 26 26
39 41 42 43 43 42 40 41 46 42 36 38 44 41 40 40 38 38 40 40 41 36 35 34 32 36 35 33 32 31 28 28 27 27 26 25 19 19 23 25 26 26 27 27 27
43 42 43 45 41 40 40 47 46 41 29 35 38 42 41 41 37 39 41 38 38 35 34 32 31 33 34 31 30 28 28 28 27 25 21 26 17 22 20 20 22 22 25 27 27
44 45 45 46 43 39 42 44 44 38 18 37 40 44 41 39 38 38 39 36 35 35 35 33 30 29 29 30 29 28 28 27 27 25 24 24 22 19 21 17 18 20 21 21 21
45 46 47 46 46 42 44 43 39 25 18 33 40 39 37 37 37 38 37 37 35 35 35 29 31 31 30 29 29 30 27 26 27 24 17 19 20 16 13 17 17 17 17 15 15
47 44 46 46 40 45 45 40 23 19 31 32 35 36 36 35 35 36 36 32 33 31 31 30 29 29 30 28 30 27 25 16 16 18 11 22 21 19 18 18 18 19 18 18 17
43 45 45 45 43 42 39 33 20 28 30 37 35 34 34 34 35 35 33 31 32 29 28 27 25 29 30 29 27 27 24 15 7 12 18 22 18 15 20 21 19 18 18 18 17
43 43 44 44 42 39 35 23 24 29 37 35 33 31 31 33 35 31 31 30 31 30 26 24 25 30 30 30 28 28 26 26 23 22 19 18 18 17 18 16 21 23 23 25 26
41 39 40 43 40 37 33 29 30 34 37 33 30 32 29 31 31 30 29 30 28 30 31 28 24 29 30 30 30 27 28 23 22 9 12 16 17 14 15 17 21 21 20 23 24
39 35 38 44 44 37 30 31 34 39 38 32 30 29 30 29 30 29 28 29 29 28 30 28 26 27 30 28 27 28 27 26 24 22 16 16 16 19 18 18 21 23 25 25 26
37 29 40 45 35 35 31 33 38 37 38 37 29 30 31 30 29 28 28 28 30 30 28 28 27 25 27 29 29 29 27 26 19 17 24 22 20 22 22 23 25 26 30 34 33
36 36 42 43 31 33 35 37 39 38 37 32 29 28 31 29 26 27 28 29 30 30 28 28 26 22 24 28 30 28 28 28 27 26 22 20 19 23 23 25 27 31 36 38 36
35 27 33 39 38 35 34 34 33 36 34 32 29 30 27 27 28 29 28 29 31 31 31 29 28 22 19 23 28 26 28 28 27 25 23 23 22 24 26 28 32 35 38 38 37
38 35 37 33 33 36 36 35 34 33 35 32 28 27 28 27 28 30 30 30 32 35 33 30 27 29 29 29 29 28 28 28 27 27 25 24 26 28 30 32 36 37 36 36 37
36 36 36 35 36 36 36 34 34 34 35 32 33 32 30 30 30 29 30 29 29 32 31 32 28 30 28 28 29 28 28 29 28 28 28 28 28 31 35 38 37 37 37 37 39
38 40 39 34 34 33 31 33 34 35 35 37 35 35 35 36 37 35 32 31 31 30 31 30 29 26 23 25 27 26 28 29 29 30 30 30 33 36 38 37 37 35 30 32 36

GFSSW_sfc_30mbdewp_021.txt.gz
Dewpoint
46 44 44 41 42 43 44 43 42 46 48 51 54 57 53 54 54 54 49 50 52 55 55 53 50 49 47 43 42 42 38 34 31 31 30 33 33 34 34 30 29 30 44 48 55
49 49 48 44 43 44 43 41 42 41 43 48 52 56 54 55 53 48 50 52 54 52 56 52 48 47 44 42 41 40 38 37 38 36 34 35 35 36 34 32 29 30 48 55 56
45 46 48 48 47 48 43 43 43 42 42 44 50 53 57 55 47 44 49 53 55 55 56 53 48 45 42 41 40 39 37 39 39 39 39 37 36 36 35 33 31 30 41 50 56
45 46 45 47 48 46 45 43 41 39 40 43 46 51 56 52 35 48 55 54 56 55 54 51 48 43 41 39 40 37 39 38 39 39 38 36 35 35 36 35 35 39 39 38 47
44 44 45 43 45 46 46 45 41 41 42 42 44 48 54 45 44 50 55 56 56 56 52 49 46 43 39 40 39 37 38 38 38 38 38 37 35 35 35 37 38 39 39 38 38
43 44 45 45 44 44 44 44 43 42 43 43 44 48 49 39 44 50 55 57 55 53 51 48 45 44 40 38 39 37 37 36 36 36 37 36 36 36 37 37 37 38 37 37 37
42 43 43 43 43 43 43 43 43 42 43 43 44 48 48 40 46 48 56 54 55 53 51 50 49 43 42 39 39 38 35 37 37 37 37 37 34 36 37 37 37 37 37 38 38
42 42 42 43 43 43 43 43 43 43 43 44 45 49 43 46 46 42 50 53 56 54 51 52 51 45 42 41 38 37 36 34 35 36 36 36 31 34 36 37 36 37 37 37 38
42 42 43 43 43 43 44 44 44 44 44 45 45 48 40 47 45 42 48 48 50 53 52 51 48 43 41 37 34 34 31 33 33 35 34 35 33 33 35 35 35 35 34 35 35
40 40 42 42 43 44 43 44 44 44 45 44 46 43 42 40 42 44 49 49 49 50 48 47 46 40 38 36 29 30 31 32 31 30 31 30 30 33 35 35 34 35 34 33 32
40 39 40 41 42 42 43 42 36 35 39 38 42 40 40 42 42 41 43 48 49 47 43 44 41 37 36 36 32 30 31 31 31 31 29 27 26 26 27 27 27 27 28 29 28
40 40 42 43 44 44 43 38 39 40 32 37 44 43 44 43 38 41 46 45 45 40 41 39 37 40 39 37 36 35 33 32 30 29 27 26 26 26 26 26 26 26 27 27 27
42 44 43 44 44 42 39 39 44 45 35 37 41 43 41 41 38 39 42 43 40 39 38 37 36 38 39 36 34 33 32 30 28 28 26 25 22 21 21 24 25 26 27 27 27
44 44 45 46 42 42 38 43 46 42 26 32 36 42 41 39 37 40 42 40 38 36 38 36 32 39 35 33 31 28 28 28 27 25 23 26 18 21 19 19 23 22 23 24 27
46 46 45 45 43 39 39 45 44 38 9 35 37 46 41 37 38 39 41 38 36 35 35 33 31 33 34 32 30 29 28 27 26 25 24 23 21 17 19 15 16 19 20 21 21
47 45 46 44 44 42 44 43 39 23 20 33 40 39 37 37 37 39 38 36 37 36 32 30 31 31 30 30 29 29 27 26 26 23 16 19 21 12 13 15 17 18 20 18 17
44 46 46 44 40 45 44 39 22 20 31 31 35 35 35 35 37 37 35 33 34 32 31 30 29 30 30 28 29 27 24 14 10 16 9 21 21 16 19 20 19 20 18 18 18
46 46 45 44 44 43 39 32 20 28 28 38 35 35 34 34 36 37 33 31 31 30 30 27 25 28 29 29 28 27 24 12 1 8 16 22 18 14 21 21 19 22 23 25 25
42 43 41 42 41 39 35 25 25 29 33 35 33 32 33 34 35 35 35 31 31 29 26 25 25 30 30 30 28 28 25 25 21 20 17 17 17 17 17 18 21 21 21 24 26
40 38 38 43 44 38 33 29 30 34 35 32 29 32 29 32 32 32 30 31 29 31 31 27 25 29 30 30 30 27 28 22 21 7 7 14 17 13 15 17 20 22 24 26 28
39 34 38 42 44 36 29 30 36 38 37 31 31 30 30 29 30 28 29 28 29 29 30 28 26 28 29 28 27 28 26 25 23 20 13 14 13 20 18 18 21 24 26 28 31
36 28 39 45 34 34 32 33 38 37 38 36 30 31 29 30 29 27 27 28 30 30 27 29 27 26 27 29 29 29 27 25 17 17 23 21 19 23 23 23 24 27 29 32 36
34 34 40 41 31 34 35 37 38 37 37 35 28 30 32 28 26 28 28 30 31 29 27 29 25 22 24 27 29 27 28 26 25 24 21 19 19 23 23 25 27 31 35 38 38
34 29 34 37 38 35 33 34 33 36 35 30 30 31 28 27 28 28 28 31 31 30 31 29 26 22 17 21 27 26 27 27 26 24 22 22 22 23 25 27 30 36 37 37 38
36 36 37 33 34 36 35 35 34 33 35 32 29 28 28 27 29 29 30 30 33 34 33 28 25 28 28 29 28 27 27 28 26 26 24 23 24 25 28 29 36 37 37 35 34
35 35 36 35 34 35 34 34 33 34 34 31 29 31 30 29 29 29 29 29 29 32 31 31 28 29 27 28 29 27 28 29 28 28 27 27 27 29 30 37 39 37 33 31 31
37 38 38 33 33 32 31 33 34 35 35 37 35 35 34 36 36 32 31 30 30 30 30 29 28 26 23 24 26 24 27 28 28 29 28 26 28 32 35 38 38 34 31 31 31

GFSSW_sfc_30mbdewp_024.txt.gz
Dewpoint
46 47 47 49 49 45 45 42 41 44 44 45 47 51 56 55 54 53 49 51 53 55 57 54 55 52 47 43 43 42 37 32 30 31 29 33 32 35 34 32 31 29 35 47 58
45 44 45 46 47 49 48 47 43 41 42 44 45 49 54 57 53 50 49 51 53 52 54 53 51 48 46 42 41 40 37 36 35 33 31 35 35 35 35 34 32 30 50 56 61
43 44 44 45 46 47 49 49 46 42 40 42 43 47 49 55 47 44 48 50 54 54 55 52 49 46 44 42 40 40 37 37 38 38 38 37 38 36 35 32 32 31 36 47 57
43 43 45 46 45 46 46 48 46 45 42 41 42 45 48 53 37 45 50 51 52 54 54 52 48 43 41 39 40 38 39 39 39 40 39 37 36 35 36 34 36 38 39 39 46
41 43 44 44 44 45 45 46 46 44 43 43 43 45 49 47 42 49 51 56 52 54 53 51 47 42 39 40 39 38 38 39 39 39 38 38 36 35 35 36 37 39 39 38 38
41 42 42 43 43 43 43 44 44 43 42 43 43 46 47 41 45 46 50 56 52 54 53 49 47 44 40 39 37 38 37 37 37 36 36 36 36 36 36 37 37 38 37 37 38
44 44 43 43 43 43 44 43 43 43 43 42 43 45 45 43 47 45 54 54 55 54 50 48 46 43 41 38 40 38 36 36 36 36 35 37 34 36 37 37 36 36 37 37 37
44 43 41 43 43 44 44 44 44 44 44 42 41 45 41 47 51 48 45 55 56 54 51 50 49 44 42 40 38 37 36 33 35 37 37 35 28 34 36 36 36 36 36 37 38
44 43 41 41 43 43 44 43 43 44 44 43 42 43 39 48 45 45 46 51 53 53 52 51 49 43 40 36 34 35 32 33 33 35 35 35 33 34 35 35 35 35 35 35 35
44 41 40 40 42 43 43 44 44 44 44 44 43 42 44 41 44 44 49 52 50 50 47 46 44 40 38 34 28 30 31 32 31 30 32 31 31 30 29 32 34 33 33 34 34
40 41 43 42 43 44 44 39 34 32 38 34 38 40 41 46 44 45 49 49 49 47 38 42 40 36 36 36 32 31 31 30 31 32 30 30 28 28 28 27 27 27 27 27 28
40 42 45 44 45 45 41 37 38 38 31 32 36 42 45 45 39 42 48 45 45 41 42 41 37 39 37 35 34 32 32 31 32 29 28 27 26 27 27 27 27 27 27 27 28
46 43 44 45 46 43 39 37 44 44 33 36 42 43 42 40 39 40 47 45 41 40 40 35 38 42 37 36 35 34 34 31 30 28 26 25 23 22 22 23 24 24 26 27 27
48 48 46 45 41 42 36 44 46 42 25 30 37 42 44 39 37 41 48 43 41 36 37 36 37 40 38 37 34 32 30 29 27 26 25 26 20 21 20 20 19 19 19 23 23
45 46 47 45 42 38 40 45 43 38 -9 31 36 46 42 37 38 39 46 43 36 38 38 34 35 38 35 35 31 29 28 27 26 24 22 22 20 14 19 14 17 17 20 19 18
46 46 46 44 43 43 43 43 39 20 15 32 39 39 36 37 38 39 37 39 41 36 34 33 33 33 32 31 30 28 26 25 24 23 16 19 20 7 12 16 17 19 20 23 24
45 45 44 44 40 44 42 36 21 19 31 31 34 35 35 35 37 37 35 34 35 31 30 31 29 30 30 29 28 27 25 20 10 13 11 22 20 14 20 21 21 20 22 25 27
42 43 43 43 44 43 39 27 21 27 29 37 35 34 33 34 37 37 33 32 31 32 29 27 26 29 30 29 28 26 23 16 2 5 14 22 16 14 21 21 20 23 23 25 27
44 40 40 41 42 40 34 24 25 29 32 35 32 31 33 35 35 36 33 31 30 29 26 25 26 30 30 30 28 27 24 24 20 19 16 15 16 14 19 21 21 23 26 27 29
39 37 37 41 44 39 33 30 31 34 34 32 29 31 29 32 32 34 32 32 30 30 30 26 25 30 30 30 29 27 27 21 20 8 4 11 14 13 15 16 19 24 26 28 31
37 33 37 42 42 37 30 33 36 38 37 30 31 30 31 30 30 29 30 28 30 30 30 27 26 28 29 28 27 27 26 24 21 19 10 8 10 19 18 19 22 25 27 30 32
35 29 38 44 35 35 33 35 38 37 38 34 31 30 30 30 28 27 28 27 30 30 28 29 27 26 27 29 30 28 26 24 15 16 21 20 15 23 23 23 24 26 29 34 38
33 32 37 40 32 33 34 36 37 36 36 34 28 30 30 28 26 27 28 30 31 28 27 29 24 22 24 27 29 27 28 25 23 22 20 16 16 23 23 24 26 29 35 38 38
34 29 35 37 38 35 33 34 33 36 34 30 30 30 28 27 29 27 28 31 31 29 31 29 25 21 16 20 27 26 27 26 25 23 21 21 20 22 24 25 28 30 38 37 34
36 34 37 32 33 35 35 35 33 32 35 32 29 28 28 27 29 28 30 31 32 33 32 28 25 27 27 28 28 27 27 27 25 25 21 22 23 24 26 27 29 37 37 33 32
34 35 35 34 34 33 33 33 34 34 35 30 29 33 29 28 28 28 29 29 29 32 30 31 27 29 25 27 28 28 28 28 27 27 26 26 26 28 29 30 35 39 33 32 32
36 38 37 32 32 31 31 33 33 34 35 37 35 34 33 35 36 32 31 31 30 30 30 29 27 24 22 24 25 23 26 27 28 29 28 25 26 28 31 34 39 36 33 31 32

GFSSW_sfc_30mbdewp_027.txt.gz
Dewpoint
46 45 44 44 44 46 47 49 48 43 42 43 46 46 49 54 57 52 49 51 52 55 57 52 55 55 47 43 43 42 36 32 33 30 28 32 29 35 35 33 32 30 36 50 60
42 43 44 45 46 46 46 47 48 48 44 41 44 44 48 53 52 51 51 51 52 52 52 50 52 50 47 42 42 40 35 34 33 32 30 34 34 35 34 34 32 33 39 58 63
42 42 43 45 45 46 46 46 48 47 47 44 41 44 46 50 49 48 52 51 51 54 52 53 51 48 45 42 41 40 35 37 37 35 37 37 37 36 34 31 34 33 39 51 60
41 41 45 45 44 44 45 45 47 48 47 46 44 43 46 50 38 46 51 52 51 53 54 50 47 45 43 40 41 38 39 38 38 40 39 38 37 36 36 34 35 38 39 39 55
42 43 43 43 43 43 44 44 44 45 46 45 43 41 47 45 45 48 49 51 52 53 53 49 46 44 41 41 40 38 38 39 39 39 38 37 36 35 35 37 37 38 39 39 38
41 44 45 44 43 44 43 44 44 44 44 43 41 43 44 38 47 49 46 54 50 53 52 50 46 43 41 40 38 39 38 38 38 37 37 36 36 36 36 37 37 37 37 38 37
44 45 44 42 43 43 44 44 43 44 44 44 45 42 42 41 47 51 47 52 51 53 51 50 47 42 40 38 40 38 36 36 36 36 35 37 33 35 37 36 35 36 37 37 38
45 46 46 44 42 43 43 44 44 43 45 44 43 41 36 47 50 50 47 52 53 55 52 50 47 44 41 39 38 37 35 33 35 36 35 32 24 32 37 37 36 36 37 37 37
44 45 42 42 41 42 43 44 43 44 44 43 41 40 37 49 45 48 48 48 54 53 52 50 46 44 40 37 35 35 30 31 32 37 35 35 33 34 36 34 33 34 35 36 36
43 43 41 44 42 43 44 44 45 45 44 43 42 39 40 41 46 47 47 52 50 51 47 46 43 40 37 35 27 31 31 33 29 31 34 33 33 33 31 29 30 32 34 34 33
46 45 43 44 44 45 43 37 33 32 39 31 33 38 42 46 46 46 50 51 50 47 41 43 38 33 34 33 32 32 31 31 32 32 30 30 30 29 29 29 28 28 28 28 29
45 47 46 44 44 44 40 35 35 36 28 33 34 38 41 47 41 45 50 47 40 39 41 40 36 37 36 35 32 31 30 30 32 29 28 27 26 27 28 28 28 28 28 28 28
46 47 43 45 44 42 38 37 44 43 33 36 42 35 43 46 40 41 48 46 38 36 36 35 39 38 36 36 34 33 30 31 30 28 26 26 24 22 23 23 22 21 21 24 26
46 46 47 44 41 41 36 44 45 41 22 32 37 42 45 42 39 45 50 45 41 36 39 38 40 38 37 35 35 32 33 31 27 27 25 25 21 21 21 17 18 19 20 19 19
45 46 47 44 40 37 40 45 42 35 12 31 36 44 43 37 39 42 47 43 37 36 38 34 37 39 36 37 34 31 29 27 26 24 22 22 18 15 16 15 17 20 24 26 26
44 45 45 43 42 43 43 41 36 19 17 31 37 38 36 37 39 43 42 46 42 38 37 34 41 37 37 38 35 28 26 25 24 23 18 18 19 9 13 17 19 20 23 26 28
43 44 43 44 40 43 42 34 21 19 30 31 34 35 35 36 36 37 37 35 35 31 30 31 30 34 34 30 29 27 26 21 12 16 15 21 20 14 18 21 21 21 24 27 29
47 42 43 43 43 40 37 28 20 27 29 37 35 34 34 34 35 35 33 31 30 31 31 28 27 31 30 29 28 26 26 20 8 4 11 22 16 14 21 21 21 23 26 28 30
44 38 38 40 42 40 33 25 25 29 33 34 31 30 33 35 35 36 32 30 30 29 27 25 27 30 30 30 28 26 25 22 19 18 15 13 15 15 20 20 21 24 27 29 31
38 36 36 40 44 40 33 31 33 35 34 31 28 30 29 32 32 32 31 31 29 30 29 27 26 30 30 30 29 27 26 21 19 5 2 8 12 11 16 17 22 24 26 29 33
36 31 37 44 42 37 30 33 36 38 36 30 30 30 31 31 31 30 30 30 30 30 28 27 27 28 29 27 26 26 25 23 21 18 8 5 9 18 18 19 22 25 27 30 37
34 31 37 42 33 37 34 35 38 37 38 31 31 30 30 29 28 28 27 27 30 30 27 28 27 26 27 29 30 28 26 22 16 16 20 19 12 22 23 23 23 25 28 36 38
33 32 36 40 30 33 33 34 37 35 34 32 29 31 30 28 26 27 28 30 30 28 28 28 24 23 25 27 29 27 27 24 21 22 20 14 13 23 23 24 25 27 33 38 36
34 28 34 37 38 34 33 34 33 36 33 30 30 29 27 27 29 27 27 32 31 29 32 29 25 20 13 19 27 26 27 25 24 21 20 19 18 21 22 25 27 29 37 37 34
35 34 36 31 33 34 35 34 32 32 35 32 29 28 27 26 28 28 30 31 31 34 31 28 24 26 26 26 28 27 27 27 25 24 20 20 21 22 25 27 28 31 38 34 33
34 34 36 34 33 33 32 33 33 34 35 30 29 32 29 27 26 27 29 29 29 32 30 30 28 28 24 27 28 27 28 27 27 26 25 25 25 27 28 30 34 39 34 34 32
36 38 37 32 31 31 31 33 33 34 36 37 35 33 33 34 37 34 31 30 31 30 30 28 27 24 21 24 25 22 26 28 28 28 27 25 26 27 28 31 38 36 34 31 32

GFSSW_sfc_30mbdewp_030.txt.gz
Dewpoint
46 43 42 44 46 46 47 47 48 50 47 43 42 44 46 49 53 53 50 47 49 54 55 48 55 54 46 43 43 43 36 33 33 33 30 31 28 32 33 29 32 30 34 49 55
46 44 41 42 46 47 47 47 47 48 48 45 43 43 45 49 49 48 53 51 51 52 54 46 53 51 44 41 41 35 33 30 32 33 31 30 27 31 31 31 31 33 41 58 62
45 45 43 44 45 45 45 46 46 47 47 46 48 43 44 47 42 43 55 52 53 52 52 48 52 49 44 42 40 35 29 31 34 33 32 31 32 34 30 30 30 31 38 54 61
46 45 44 45 44 44 44 45 45 46 47 48 47 45 42 44 34 48 52 56 53 51 50 49 50 47 42 39 40 36 33 32 35 38 37 34 34 33 33 28 34 37 38 39 56
46 45 45 45 43 44 44 44 45 44 45 46 46 42 41 39 38 49 52 50 53 49 49 48 46 45 41 40 39 36 38 37 37 40 39 38 36 33 34 35 37 37 38 38 39
45 45 45 47 45 44 44 44 44 44 44 44 43 44 39 33 36 50 52 50 51 47 48 48 43 44 40 41 38 37 37 36 37 37 38 37 36 37 34 35 34 35 33 35 37
43 44 46 47 48 45 43 43 44 44 44 45 45 41 37 34 45 52 52 49 50 47 48 48 44 43 41 39 40 38 35 36 37 36 35 36 34 34 34 32 32 30 31 35 36
44 45 46 44 44 42 43 43 44 44 44 45 44 40 33 36 40 49 51 47 50 49 49 51 45 41 39 39 38 34 33 31 30 34 35 34 22 29 33 33 31 31 30 32 34
46 47 46 45 43 42 43 45 44 44 44 44 40 37 31 43 44 47 49 46 50 50 51 50 46 41 39 34 32 31 21 24 29 36 30 30 21 27 31 34 32 32 31 32 34
45 46 46 43 44 44 45 44 45 45 44 42 40 36 35 37 44 47 48 49 49 50 48 46 43 38 34 31 21 26 22 26 23 30 34 33 28 34 34 33 31 30 30 30 32
46 46 46 44 44 43 42 39 34 34 37 27 27 34 38 42 46 44 49 48 48 46 40 42 38 34 31 31 29 28 26 24 28 32 31 29 29 30 31 30 30 29 28 28 30
46 47 46 45 44 44 40 34 37 37 28 32 34 35 38 41 41 43 49 45 45 39 42 40 35 34 32 33 31 30 27 27 31 30 29 28 27 28 28 29 29 29 28 28 29
45 46 43 45 44 42 38 38 44 42 33 37 37 37 37 44 40 42 45 44 41 39 39 37 36 33 34 31 31 31 28 30 27 29 28 26 23 25 24 24 21 21 21 22 25
46 47 46 44 39 41 37 44 45 41 30 32 37 41 45 45 41 48 47 45 39 36 39 38 40 33 30 32 30 28 33 32 29 29 22 26 14 23 20 18 21 22 22 25 28
45 45 44 42 39 37 41 44 43 37 19 32 36 44 44 39 41 43 49 44 37 35 38 34 39 35 33 32 33 29 32 29 28 27 25 22 20 17 16 16 21 25 27 29 30
44 45 45 43 42 43 43 41 37 28 20 31 37 38 38 38 39 42 43 44 41 37 37 37 40 38 37 36 34 28 27 26 26 25 23 21 19 11 13 16 20 23 26 31 32
48 44 43 44 37 43 42 38 28 22 31 32 34 36 34 36 37 37 37 37 35 31 30 33 34 37 38 35 32 29 28 26 23 24 20 21 19 14 17 20 20 24 30 32 33
48 43 42 42 44 42 39 32 24 29 31 37 34 34 33 34 37 37 35 33 31 33 32 30 27 34 36 34 33 28 29 24 15 12 13 21 14 14 20 21 21 25 28 32 34
45 40 41 41 43 42 36 28 28 30 35 32 30 29 31 33 33 33 32 30 30 31 29 28 28 32 31 30 31 28 29 23 21 19 17 12 15 17 21 21 22 24 29 33 36
41 39 38 42 44 41 36 31 33 35 35 31 27 29 27 31 29 30 31 31 29 30 30 28 28 30 29 30 29 29 27 24 25 15 11 7 9 11 18 19 21 26 30 33 38
39 36 40 44 44 40 32 34 36 38 36 30 30 29 30 30 30 30 28 31 30 29 28 28 28 29 30 28 26 26 26 24 23 20 13 4 7 16 18 22 24 26 29 32 39
37 36 41 44 37 38 35 36 37 37 37 31 31 31 29 30 29 29 25 29 30 29 27 28 29 26 27 29 29 28 26 22 18 20 21 19 12 19 21 22 23 26 29 34 39
36 36 41 43 32 33 34 35 36 34 34 31 30 31 30 29 27 28 29 30 31 29 28 28 27 24 26 28 29 28 27 25 23 24 22 16 13 23 23 23 26 28 31 36 36
37 31 38 40 38 35 34 33 33 36 33 31 31 29 28 27 28 27 28 32 31 29 32 28 26 23 17 23 28 27 27 25 25 22 20 17 17 21 22 25 30 31 33 37 36
38 34 35 34 34 35 35 34 32 32 35 32 29 28 26 26 27 27 30 30 31 34 31 29 26 27 25 26 29 28 27 27 25 24 21 19 20 21 24 28 30 33 38 37 35
34 34 35 34 33 33 32 33 33 34 35 30 29 30 29 26 25 26 29 29 28 33 29 30 29 29 25 27 28 28 28 27 27 26 25 24 23 25 27 29 33 38 36 36 33
37 38 37 32 32 31 32 33 34 35 36 37 34 33 32 33 35 34 31 30 30 29 29 29 29 26 23 25 25 23 25 27 28 28 26 24 25 26 27 29 35 37 36 33 33

GFSSW_sfc_30mbdewp_033.txt.gz
Dewpoint
49 48 47 46 43 45 47 48 47 48 49 50 45 43 44 47 50 48 50 50 48 50 55 44 52 54 47 43 41 41 40 38 35 31 30 31 31 31 30 26 27 28 33 48 59
47 48 47 46 45 45 46 46 46 47 48 49 45 43 45 46 43 43 48 56 51 51 51 41 49 52 44 41 41 39 38 37 34 32 32 32 31 27 29 27 25 29 40 53 59
46 47 47 46 46 44 45 45 46 46 46 48 47 47 44 44 37 33 45 54 53 51 53 41 47 50 42 39 38 35 31 34 31 33 33 32 30 26 29 24 26 26 35 53 58
46 46 46 46 46 44 44 45 45 45 45 47 47 46 42 40 25 32 51 54 54 51 50 45 44 47 41 38 38 33 32 29 30 33 33 30 30 29 29 26 28 32 37 40 54
45 44 45 46 45 45 46 45 45 45 44 45 47 45 41 35 32 51 53 56 55 51 48 44 40 44 40 37 35 35 30 31 33 37 35 31 29 29 29 31 35 36 37 36 38
46 46 46 46 45 47 47 45 45 44 44 45 45 43 37 33 30 43 50 49 53 53 44 42 38 44 40 36 35 36 35 33 33 37 37 35 31 33 32 32 33 32 32 32 35
46 46 47 45 43 44 46 45 45 44 44 44 45 42 36 33 36 49 51 46 49 53 40 42 39 42 39 37 38 36 33 35 33 35 34 36 33 33 34 33 32 30 30 30 29
46 46 46 46 45 44 43 44 44 45 45 45 45 38 32 33 34 37 51 49 49 52 40 44 41 39 38 37 37 34 34 30 31 35 34 34 26 29 32 32 31 29 28 27 27
46 46 46 46 43 43 44 44 45 45 44 43 40 36 29 37 34 34 49 46 45 51 44 47 43 40 37 34 32 31 25 26 26 31 32 33 26 27 28 28 29 28 27 28 28
46 47 47 44 44 44 44 44 45 45 43 40 38 34 32 32 39 47 50 50 50 45 47 47 43 34 33 29 22 23 22 20 20 32 31 29 28 25 30 28 28 27 27 27 27
47 47 45 44 44 43 42 40 36 34 35 28 26 30 36 40 44 46 49 50 46 44 40 44 38 33 29 25 22 19 22 17 19 30 30 29 26 25 29 30 28 27 27 26 25
47 45 45 44 44 42 39 33 37 38 27 29 30 32 36 38 41 43 49 43 41 38 35 39 36 32 29 26 27 26 23 22 25 29 29 23 25 27 27 27 26 26 25 25 25
47 43 45 45 43 39 37 39 43 41 34 36 37 35 39 43 38 42 45 42 39 34 36 35 34 33 31 28 28 25 23 22 25 29 28 26 23 24 25 26 27 23 23 23 25
46 45 44 44 41 39 37 43 43 42 31 32 36 39 42 44 41 47 46 41 37 33 38 36 38 34 32 30 26 24 26 29 29 27 16 25 5 22 23 20 21 21 20 22 25
47 45 44 44 38 37 40 42 42 40 21 35 36 44 45 42 40 41 47 45 35 36 38 34 37 33 30 28 27 28 32 30 30 28 26 24 19 18 19 18 21 24 27 28 30
47 47 45 43 40 40 42 41 39 29 22 32 38 38 39 40 39 42 42 44 41 37 37 37 40 37 36 32 29 31 30 29 29 27 25 24 18 15 15 16 21 24 26 29 30
46 48 43 42 37 41 41 39 30 24 33 32 34 38 36 36 37 38 36 35 33 30 30 32 33 38 38 32 31 30 28 26 25 26 22 21 20 16 16 17 21 23 27 30 32
46 48 42 40 42 43 41 36 25 30 32 36 35 33 35 37 36 36 37 34 35 35 32 30 27 34 36 35 31 30 28 26 18 19 19 18 16 16 17 20 21 26 29 32 34
46 41 40 42 42 43 38 30 29 32 35 30 28 29 33 31 35 35 31 30 35 32 31 31 29 36 36 35 34 32 28 24 22 16 16 14 15 18 20 19 20 23 26 32 35
41 39 39 42 43 42 36 31 33 36 35 30 26 27 26 28 28 28 28 30 30 29 29 29 28 35 35 36 34 33 30 27 27 20 10 10 6 12 18 19 21 22 29 33 36
40 36 42 43 45 40 32 34 33 36 35 30 28 27 28 28 27 25 27 30 30 28 29 29 28 29 33 31 29 27 28 25 25 21 17 4 5 17 18 21 24 27 28 31 36
40 39 43 44 38 36 33 36 37 35 35 31 30 29 27 28 27 27 25 29 30 28 26 29 29 27 28 29 29 28 25 24 20 22 19 19 14 17 22 24 25 27 30 31 38
37 36 43 44 33 30 33 33 35 32 32 29 28 30 30 27 26 28 28 30 31 29 27 28 28 25 26 28 29 28 27 25 23 24 24 16 15 20 23 23 26 30 32 33 37
38 37 38 38 38 31 30 30 31 36 31 30 29 29 28 26 26 27 28 31 31 30 30 28 26 26 21 26 27 27 27 27 25 23 19 16 18 21 22 24 30 32 34 37 37
37 35 36 35 34 35 35 34 31 31 34 31 29 28 25 24 24 25 28 29 30 33 30 29 28 27 24 27 29 28 26 26 26 25 19 17 16 19 22 28 30 34 38 37 36
34 35 35 34 34 33 33 33 32 32 33 28 28 28 26 24 23 24 27 27 26 31 28 30 28 30 25 27 27 27 27 26 26 25 23 22 21 22 24 28 32 36 37 36 35
34 37 35 33 33 31 32 33 34 35 35 35 33 29 28 29 32 31 29 28 29 29 28 28 31 27 24 25 25 23 25 26 26 27 25 22 23 27 26 28 32 36 37 35 34

GFSSW_sfc_30mbdewp_036.txt.gz
Dewpoint
46 47 47 48 48 48 47 46 46 48 46 47 50 46 44 45 47 48 47 51 51 55 53 46 50 54 54 48 45 48 42 39 41 40 36 32 31 31 30 28 27 30 48 60 63
47 47 47 46 47 47 47 46 46 47 47 47 48 49 43 46 44 41 46 53 54 51 49 43 49 53 48 45 44 41 41 40 41 42 39 33 32 32 29 28 27 32 50 60 62
46 47 47 46 47 47 45 44 46 46 47 46 48 47 44 44 38 35 40 52 55 52 50 42 47 49 47 42 41 40 38 41 43 43 38 34 32 32 29 28 27 27 46 54 59
47 47 47 47 46 46 45 45 45 45 46 46 46 47 45 40 31 45 36 50 56 52 50 48 41 46 45 41 39 35 38 36 35 35 34 33 32 29 29 30 30 31 40 54 56
46 47 46 48 46 46 46 47 46 45 46 46 46 47 42 36 34 44 46 50 53 53 47 48 39 44 42 41 37 37 34 33 33 36 35 34 31 29 30 32 36 37 37 37 45
45 46 46 47 46 44 45 46 46 44 44 44 45 45 39 33 34 44 50 52 53 52 45 46 38 42 42 39 37 36 36 34 32 36 36 33 30 30 31 33 34 34 35 35 35
46 45 46 47 44 44 44 44 46 46 45 44 45 42 37 33 39 48 48 46 50 51 45 43 40 39 42 40 38 36 34 35 33 36 35 36 33 31 31 32 32 33 32 32 31
46 47 47 48 45 44 44 43 44 45 45 45 45 40 32 34 34 33 47 49 47 51 51 46 43 38 41 39 37 35 34 32 33 34 34 35 30 32 33 33 33 32 30 30 31
46 47 45 44 44 43 44 44 44 45 44 44 41 38 30 35 32 32 35 44 45 50 50 51 45 38 41 37 36 34 29 32 30 34 34 34 30 31 31 32 31 32 31 29 28
46 46 45 44 43 43 43 44 44 45 43 40 36 33 32 28 33 32 38 49 46 48 45 48 43 36 37 36 30 31 28 28 28 32 33 33 32 30 29 29 27 28 27 27 28
44 45 46 44 44 42 43 42 38 36 36 31 30 29 30 37 39 39 47 48 45 46 41 44 36 33 34 33 32 27 27 24 24 32 31 30 30 30 29 30 30 30 28 27 26
46 45 45 45 43 43 42 33 36 38 31 30 28 29 33 38 38 42 46 41 42 40 39 40 35 34 34 30 28 24 24 23 23 30 29 27 27 28 27 29 30 29 27 26 26
48 46 45 44 44 42 39 39 41 41 36 36 37 36 39 43 40 41 43 40 40 39 37 34 34 34 29 27 25 25 24 21 25 30 29 26 24 25 27 27 28 27 25 24 24
46 47 46 45 43 39 38 42 43 42 30 33 37 40 42 44 40 47 46 42 39 35 35 37 36 34 31 28 25 24 25 24 28 28 21 26 9 19 25 25 25 22 22 22 24
45 47 48 45 43 37 40 41 40 40 20 35 37 42 44 41 40 42 48 39 36 37 38 35 37 36 32 30 28 25 29 29 29 28 27 25 22 20 23 21 20 23 27 29 30
44 47 48 44 44 40 42 41 41 30 22 32 38 37 39 38 39 40 41 41 41 37 37 37 40 39 38 34 30 32 30 30 30 28 24 24 20 19 21 19 22 26 28 29 30
44 46 47 41 40 41 42 40 30 24 34 32 36 39 35 35 37 37 36 35 33 31 31 34 33 38 38 34 33 31 29 25 25 24 23 23 21 19 17 20 23 24 28 30 32
46 47 47 41 42 43 41 36 24 29 33 36 37 35 33 35 36 37 35 33 38 36 32 30 26 34 37 36 32 30 28 25 17 21 21 20 20 18 19 21 23 28 29 32 34
47 45 42 43 43 42 40 28 28 31 34 30 30 33 34 34 34 37 36 36 37 37 32 30 28 36 37 37 34 32 29 25 23 16 17 18 17 19 20 19 25 25 27 32 35
43 40 40 43 44 42 37 30 33 36 35 31 27 27 27 28 29 31 32 35 33 34 32 30 28 35 36 38 35 32 30 27 27 16 11 14 13 14 18 19 20 23 23 32 36
44 37 43 45 45 41 32 32 32 35 34 30 27 25 26 27 27 25 28 29 29 28 29 30 29 32 35 33 32 31 30 29 26 23 21 11 10 18 19 19 20 22 27 31 35
43 38 43 46 40 36 33 34 36 33 34 30 30 29 27 27 25 25 27 29 30 28 27 29 29 28 32 32 31 34 31 30 27 23 20 19 15 19 21 23 26 27 29 31 38
38 37 44 44 34 31 33 33 34 32 31 29 28 30 29 26 25 27 28 31 31 30 28 29 29 25 26 29 29 28 28 29 25 25 23 18 15 23 24 24 26 28 31 36 38
38 36 40 42 37 35 31 30 32 36 32 30 29 29 28 26 26 27 28 31 31 30 29 28 27 27 22 25 29 27 27 27 25 22 21 20 18 21 23 23 30 33 36 38 37
36 34 35 35 35 35 34 33 30 32 34 31 29 28 26 24 24 26 29 30 31 31 30 30 26 25 24 27 29 29 27 27 26 26 21 20 18 20 22 26 30 35 37 37 35
34 34 35 34 34 33 33 32 32 32 33 28 29 28 26 25 24 25 28 27 26 30 29 31 28 29 23 27 27 27 28 26 27 27 26 25 22 23 24 30 33 37 37 35 35
30 35 36 33 32 31 33 33 33 35 35 35 35 33 28 34 34 32 29 28 28 29 28 29 30 26 24 25 25 21 25 27 26 27 26 24 23 26 27 30 32 37 37 35 34

GFSSW_sfc_30mbdewp_039.txt.gz
Dewpoint
46 47 47 48 47 47 48 48 47 47 47 48 47 49 47 45 46 47 46 50 53 54 50 48 49 52 55 51 48 47 41 38 39 40 40 42 39 30 30 28 40 47 57 61 63
48 48 48 48 48 47 47 47 46 47 46 46 47 48 46 46 45 43 45 50 54 54 47 45 47 52 50 49 49 46 41 40 39 40 41 42 41 30 29 28 36 56 62 62 62
46 44 46 47 48 46 46 46 45 46 46 46 47 49 47 44 40 38 42 48 55 54 49 46 47 52 46 46 46 45 41 41 41 41 48 45 43 36 29 28 29 49 59 61 61
45 46 46 47 48 47 46 47 47 45 46 46 46 48 49 42 31 37 43 46 53 56 49 45 46 48 45 42 43 39 41 41 41 48 47 43 40 31 30 31 34 44 57 59 60
47 46 45 47 47 46 45 45 46 46 46 45 46 48 44 38 36 39 42 46 54 53 48 47 43 46 43 43 40 39 37 39 41 43 42 44 39 34 30 36 37 41 51 56 57
46 46 46 47 45 44 45 45 45 44 44 44 46 48 42 36 39 47 49 47 52 51 48 48 39 46 43 41 39 38 38 37 35 39 40 41 35 34 31 35 35 35 35 37 46
46 47 47 46 45 44 44 44 45 45 45 44 45 43 40 36 37 44 48 49 50 51 47 47 44 42 42 40 41 37 35 36 36 37 36 36 32 32 33 32 33 33 33 32 32
45 45 45 45 44 44 44 44 44 45 45 45 44 41 35 35 36 34 44 47 48 51 51 48 47 41 42 41 39 36 35 33 34 36 36 32 29 32 34 32 33 32 32 32 32
45 46 45 44 44 44 44 44 44 45 45 44 41 39 32 36 34 34 36 42 44 49 51 50 47 42 38 37 36 36 31 33 32 35 34 34 32 32 33 33 33 33 33 33 31
46 45 46 45 44 43 44 44 44 44 44 42 37 33 34 30 37 32 39 46 46 47 46 44 43 38 37 37 30 32 31 31 31 33 33 33 33 32 29 32 32 31 29 28 28
48 46 45 45 45 44 45 43 37 36 37 32 32 31 29 36 40 34 47 44 45 42 37 42 40 34 34 37 34 33 31 28 31 32 33 33 33 32 32 29 28 28 28 28 27
46 47 47 45 46 46 42 35 36 38 32 35 33 30 31 38 38 42 46 39 42 37 39 39 35 36 36 36 34 31 29 28 27 31 32 31 31 32 32 29 29 29 30 29 27
43 46 47 47 46 44 40 40 43 42 35 36 37 37 39 41 36 41 42 40 38 37 39 34 35 36 34 33 31 29 25 26 26 29 29 27 24 26 28 28 30 30 28 26 26
43 45 46 48 44 39 39 43 43 42 30 33 37 40 40 40 38 45 45 42 40 36 37 35 37 34 33 31 29 26 26 26 29 27 23 25 17 17 25 26 27 26 23 23 23
44 44 46 48 41 40 40 42 42 40 19 34 37 45 43 40 39 39 46 42 37 38 38 36 37 35 31 30 28 26 29 29 29 27 27 25 20 20 23 25 24 22 23 23 28
43 45 46 45 45 42 42 42 41 28 21 33 38 37 39 38 39 40 42 42 40 38 38 37 39 39 37 36 32 32 30 30 29 28 22 24 23 19 22 23 21 26 28 30 32
43 46 45 44 41 42 43 41 29 23 34 33 35 36 35 36 37 36 36 36 35 30 32 35 34 37 38 34 34 31 26 25 23 24 20 22 23 22 22 21 24 26 28 29 31
45 48 47 46 42 43 42 35 24 30 33 37 36 35 33 36 36 36 35 34 37 34 31 29 28 36 37 34 32 31 26 22 15 19 21 20 20 20 20 22 26 27 29 30 35
46 46 43 44 43 43 38 25 25 29 34 32 33 32 31 35 36 37 35 35 37 37 30 29 28 36 37 38 36 32 29 26 23 19 19 20 18 19 21 24 25 28 31 33 37
43 42 41 45 43 42 34 29 32 35 35 33 27 27 27 29 32 35 35 37 36 36 36 33 28 34 37 38 37 33 31 28 26 19 12 16 15 15 18 23 26 27 28 32 37
43 38 42 45 44 40 30 31 33 35 34 31 29 27 27 27 27 28 29 35 37 36 33 31 31 31 35 34 33 33 30 29 27 25 19 11 12 18 18 20 24 24 24 28 38
40 37 43 46 39 37 32 34 36 34 34 32 30 29 28 27 26 28 29 29 31 32 33 31 32 29 32 37 37 34 31 28 25 23 20 20 16 20 20 20 20 21 25 33 38
38 37 44 44 34 31 33 34 35 33 32 30 29 29 29 27 26 28 29 31 31 30 28 30 29 26 28 32 34 33 33 33 29 26 22 16 14 22 23 23 24 27 29 37 37
39 34 38 43 39 35 32 30 33 35 33 31 29 29 28 25 25 28 29 31 31 30 30 29 28 25 21 23 29 28 30 32 33 28 24 23 19 22 24 24 26 30 36 37 37
36 34 35 33 34 34 34 33 31 31 35 31 30 28 28 24 25 27 30 31 31 30 30 30 25 24 26 28 29 28 27 28 28 25 22 21 19 22 23 23 31 36 37 36 35
32 33 35 34 34 33 33 33 34 34 33 30 30 28 26 30 29 26 28 28 27 30 29 31 28 27 21 26 27 25 28 28 28 26 26 26 24 23 23 28 36 37 37 36 35
32 34 36 32 31 32 33 33 34 35 34 35 36 34 32 33 34 32 29 28 28 29 28 30 28 24 23 26 25 20 24 25 27 28 27 24 25 25 28 32 36 37 37 35 34

GFSSW_sfc_30mbdewp_042.txt.gz
Dewpoint
47 46 45 46 47 49 48 47 48 48 47 47 48 48 49 50 48 49 45 48 53 56 52 48 47 51 55 50 49 48 41 38 39 39 41 43 43 43 33 38 49 57 58 60 63
47 46 46 47 47 48 48 46 48 46 47 47 47 47 48 47 45 43 46 48 52 54 47 45 43 51 52 50 49 44 40 39 39 40 42 44 45 44 35 35 52 59 62 62 63
46 45 46 47 47 48 48 47 47 47 46 46 46 48 48 47 40 37 41 46 49 55 49 45 48 52 46 49 49 46 40 40 39 40 48 46 44 45 40 29 47 54 59 61 62
46 46 46 47 47 47 47 47 46 47 45 46 46 49 48 42 31 38 44 46 49 54 51 44 48 48 44 45 47 43 43 41 42 49 46 45 46 44 37 31 33 54 59 59 61
46 47 47 46 45 45 45 45 45 45 45 45 46 48 46 37 36 41 48 45 47 53 52 44 46 47 43 43 44 41 41 43 46 48 48 48 45 45 43 39 36 57 58 56 59
44 44 45 45 45 44 45 44 44 45 44 45 47 46 41 35 39 39 47 45 49 51 51 46 45 47 43 42 42 41 39 42 46 46 47 45 44 46 37 33 44 53 56 57 56
45 45 45 44 44 44 45 44 44 46 45 44 46 43 40 37 40 38 46 48 50 50 48 49 43 45 42 41 41 39 38 38 38 40 39 43 42 40 38 34 34 34 36 39 47
45 45 45 45 44 44 44 44 45 45 45 45 44 42 35 37 36 36 44 47 50 52 48 49 45 43 42 42 41 37 36 33 35 37 37 38 33 37 38 34 32 33 32 32 32
47 46 45 46 45 44 44 44 44 45 45 44 41 39 30 36 34 34 38 42 47 51 51 49 46 42 39 38 36 37 32 32 33 36 35 32 31 34 34 33 32 33 33 33 32
46 48 46 45 46 46 46 45 44 45 43 43 40 35 33 32 36 34 38 43 45 48 47 46 43 39 37 37 29 31 32 31 30 35 34 33 33 32 33 31 31 33 33 32 30
44 46 48 47 46 47 46 41 37 34 37 33 32 31 30 32 40 43 44 40 44 44 37 43 37 34 35 36 33 33 31 31 32 34 33 32 33 34 33 30 30 31 30 29 28
44 44 46 47 47 47 43 35 38 37 31 35 35 33 34 38 37 41 41 36 41 36 38 39 34 35 36 37 34 33 30 30 30 32 33 33 32 33 33 33 30 28 29 29 28
43 43 45 46 48 43 40 41 43 41 35 36 37 37 40 41 37 39 41 38 39 35 36 35 35 37 35 35 35 31 30 28 27 30 30 28 28 30 32 32 31 30 29 30 27
44 43 45 46 44 40 39 43 43 42 29 33 37 39 40 40 37 44 43 41 39 35 37 36 37 36 35 33 33 30 27 26 28 29 27 26 23 21 27 29 30 30 28 28 25
44 43 46 46 41 40 40 42 42 40 19 34 38 44 41 37 38 40 45 40 37 37 36 34 36 35 33 33 30 28 28 29 29 28 26 24 22 21 22 23 26 28 25 24 25
43 44 46 45 46 43 42 42 41 25 21 32 36 34 34 37 38 41 41 42 41 37 38 37 40 38 35 35 30 32 30 29 29 26 21 24 23 21 19 21 24 24 23 23 31
43 46 45 45 41 43 43 41 26 22 32 32 36 33 33 33 36 35 35 36 35 30 32 36 36 37 38 33 33 30 26 23 23 22 20 23 24 22 23 23 24 25 27 31 33
44 48 47 46 43 43 42 34 22 29 33 37 36 37 33 36 36 36 35 34 37 33 33 30 29 36 37 34 31 28 25 21 17 18 19 21 19 19 22 21 24 28 29 30 34
45 45 45 45 44 43 37 24 23 28 32 34 32 32 33 37 36 36 34 34 36 36 29 28 29 37 37 38 36 32 27 27 23 20 20 20 21 20 22 23 26 27 29 30 35
42 41 41 45 44 41 32 27 30 34 35 35 28 27 27 33 35 35 34 36 36 36 36 32 26 35 37 38 36 33 31 26 26 18 14 17 18 16 20 23 26 27 29 33 38
42 38 42 45 44 38 29 29 33 36 36 31 29 26 27 27 31 30 33 36 37 36 35 33 30 31 36 35 33 32 31 31 29 25 19 16 14 17 19 24 26 28 31 34 38
39 36 43 45 38 36 31 34 36 34 34 32 30 29 28 27 27 29 29 31 37 35 33 33 33 28 31 37 37 34 32 30 27 25 22 20 17 20 20 23 27 27 27 27 37
37 37 44 44 33 29 33 34 35 33 32 30 29 29 29 26 26 29 29 31 35 33 33 31 30 26 28 32 35 35 35 32 28 26 22 19 15 23 21 21 24 24 26 35 38
37 33 36 42 40 36 32 31 33 35 33 31 29 29 28 25 28 28 29 30 31 30 31 31 29 24 21 23 31 31 33 33 30 26 23 22 20 20 22 21 22 24 32 37 37
34 34 35 31 34 33 34 34 31 32 34 32 30 28 27 24 27 28 30 30 31 30 31 28 25 26 26 29 29 29 30 32 32 29 27 25 26 25 22 23 24 31 37 37 36
31 32 35 33 34 33 34 34 33 34 33 32 31 32 30 30 29 27 29 28 27 30 29 30 27 25 22 26 27 25 28 31 32 32 31 27 24 25 24 25 30 35 37 36 35
32 33 35 29 25 33 33 33 34 34 35 36 37 33 31 32 33 34 30 29 28 28 29 29 27 24 20 26 25 21 24 26 29 29 30 27 26 25 24 25 33 36 37 36 35

GFSSW_sfc_30mbdewp_045.txt.gz
Dewpoint
47 47 46 47 47 47 47 48 48 47 48 48 48 49 48 49 51 50 48 47 51 55 54 50 48 50 55 52 51 49 40 36 38 38 40 43 43 45 45 39 47 59 58 60 62
46 46 46 46 47 48 47 48 47 48 47 47 47 47 48 49 47 46 49 48 51 54 50 48 45 50 52 50 50 46 41 38 37 40 43 44 44 44 43 42 48 59 62 62 63
45 46 46 46 47 47 47 47 46 46 47 46 46 47 48 46 40 39 43 48 48 52 53 46 45 50 48 49 49 46 41 40 40 43 47 45 44 46 43 39 38 44 60 61 61
45 44 45 45 45 45 46 46 46 45 45 45 46 48 48 44 32 41 50 48 46 49 53 45 45 45 43 45 48 43 42 41 44 46 44 43 47 46 44 41 42 43 55 61 60
45 45 45 44 44 45 45 45 45 45 45 45 46 48 44 39 37 40 41 39 48 48 50 43 44 44 39 45 46 43 42 41 48 48 47 48 45 47 45 45 41 40 58 60 60
46 46 45 45 44 44 45 45 44 46 44 45 46 46 41 35 38 39 37 46 47 47 49 44 45 44 43 43 44 43 42 44 47 46 46 45 44 47 44 43 41 56 57 57 60
47 46 46 46 44 44 44 45 45 45 45 45 44 42 39 37 39 37 40 49 46 48 48 48 46 45 43 42 42 42 41 45 45 44 46 46 44 44 43 45 40 35 55 55 56
47 47 45 46 46 45 45 44 45 45 45 44 44 44 34 38 37 37 41 48 53 53 51 50 45 44 42 42 41 38 40 38 42 44 44 42 35 42 45 42 40 36 33 40 47
45 47 48 46 46 46 47 46 45 45 45 44 40 38 29 36 38 34 34 45 49 51 52 51 45 42 40 38 37 36 32 34 35 40 41 38 35 37 41 40 37 35 33 32 32
43 43 46 48 47 47 47 46 45 45 43 43 41 33 32 30 34 38 41 43 46 46 48 44 43 39 37 36 29 32 31 33 32 36 40 38 33 38 39 39 34 33 33 33 33
44 43 45 47 47 47 45 39 35 32 36 32 32 31 30 31 40 43 41 39 43 44 38 42 36 35 36 36 33 33 31 31 31 34 35 38 33 36 39 39 31 31 32 33 31
46 43 44 46 47 48 42 35 37 36 30 35 35 35 36 41 37 40 39 38 39 36 37 37 32 36 37 37 33 33 31 31 32 34 34 33 32 34 34 35 33 31 30 31 29
45 44 43 45 47 43 39 39 43 41 34 35 37 38 40 41 37 39 38 37 38 35 35 33 35 36 36 36 33 31 30 29 29 31 31 31 30 32 33 34 33 32 31 30 29
44 43 43 46 44 40 39 42 43 42 29 33 36 38 40 40 36 42 42 39 40 35 36 34 37 35 35 35 34 31 30 28 29 29 28 30 26 25 29 31 32 33 32 31 29
44 43 44 46 41 40 40 43 42 40 19 35 37 43 40 37 37 38 44 40 37 37 36 34 36 35 34 33 33 30 28 28 28 28 26 25 26 25 22 22 27 29 31 31 27
44 44 46 45 45 44 42 42 41 23 21 30 36 35 34 36 36 39 38 43 42 37 38 37 39 37 35 34 32 31 29 29 28 26 24 25 25 22 21 21 21 23 28 27 25
44 45 45 45 40 44 43 40 26 22 32 31 32 34 32 33 33 35 33 35 34 30 30 35 36 37 38 33 32 30 27 26 23 23 21 24 23 22 23 23 23 23 24 25 28
45 48 46 45 43 43 41 31 21 28 33 37 34 33 31 33 30 32 31 33 37 35 32 30 28 36 37 33 31 28 26 23 18 19 20 22 20 22 24 24 25 24 26 27 33
45 44 45 45 43 43 35 23 22 27 31 34 33 31 32 35 30 31 30 32 35 36 31 29 30 37 37 37 34 31 25 24 21 20 19 20 20 20 21 22 23 25 28 30 35
42 41 42 45 44 42 31 27 29 32 34 35 27 29 31 33 31 34 33 35 35 36 35 30 28 36 37 37 36 32 30 25 24 17 15 16 18 16 17 19 24 27 28 31 36
41 39 42 44 43 38 29 29 32 35 36 31 29 26 28 33 35 32 32 35 36 36 35 32 29 32 36 35 33 31 30 30 27 22 16 16 14 19 17 19 23 27 29 31 36
38 37 43 45 38 36 31 33 35 34 35 33 30 29 27 27 30 29 32 34 37 35 32 32 30 27 32 37 37 34 31 30 24 24 23 20 19 20 20 20 25 28 30 34 37
37 37 43 44 33 29 32 33 35 33 32 30 29 29 29 26 27 29 29 33 37 35 32 33 30 26 28 33 36 34 34 32 28 26 23 22 21 21 21 21 26 27 29 32 37
35 33 36 41 40 35 33 31 32 34 32 31 30 29 27 25 29 28 29 31 34 34 33 31 29 25 21 23 32 31 33 34 29 28 26 24 24 22 20 20 24 26 27 31 36
34 34 34 31 34 33 34 35 32 30 33 32 30 29 27 24 27 29 30 30 31 31 33 30 26 27 26 28 31 31 31 33 31 30 27 27 25 24 23 21 21 25 30 36 37
29 31 34 32 31 33 34 34 34 34 34 32 33 32 31 29 28 28 29 29 28 30 30 30 26 24 23 26 28 27 28 32 33 32 30 29 29 28 27 25 25 27 32 35 36
31 33 34 24 25 33 28 33 31 34 35 37 37 32 30 32 34 34 31 29 28 28 29 28 27 24 20 25 24 19 22 25 30 32 32 30 30 27 25 24 26 30 34 35 36

GFSSW_sfc_30mbdewp_048.txt.gz
Dewpoint
44 48 48 47 47 47 47 47 49 47 47 48 48 48 49 49 50 51 48 48 51 54 55 51 50 51 55 52 52 51 42 39 38 38 39 44 41 45 45 42 42 60 59 60 63
45 43 44 45 45 47 47 47 46 46 47 47 47 47 48 49 47 47 50 49 50 53 51 49 46 50 51 51 51 47 42 40 39 41 42 44 43 44 43 41 41 42 52 61 63
46 45 45 44 44 45 45 46 46 46 46 46 46 46 47 48 41 40 48 51 49 50 53 49 46 47 46 49 49 48 41 41 40 40 45 45 44 45 44 40 38 43 44 52 61
44 46 45 44 44 45 45 45 45 45 45 45 46 48 48 44 32 46 48 49 50 49 52 46 45 42 43 44 48 42 45 43 42 44 44 42 46 45 45 43 46 44 43 49 60
47 44 45 45 44 44 46 45 45 45 45 45 46 48 44 40 39 42 44 39 44 47 49 46 43 41 40 43 45 44 43 43 44 45 46 45 43 46 44 46 44 43 46 49 60
47 46 45 44 45 45 45 45 45 46 45 45 46 47 42 35 44 43 42 43 45 47 48 46 43 43 40 41 43 44 42 45 46 47 47 42 44 45 40 44 44 44 42 56 59
47 47 48 45 46 45 46 44 45 45 45 45 45 42 39 37 41 40 38 45 46 46 49 45 45 43 43 41 45 44 42 45 45 45 44 45 40 41 44 44 44 43 41 40 56
41 46 47 48 46 46 47 47 45 45 45 44 44 42 32 37 40 40 38 48 48 47 50 48 47 44 43 43 41 41 43 39 44 44 47 42 37 41 44 44 43 43 40 35 40
46 42 45 46 48 47 48 47 45 44 45 44 39 38 29 37 37 38 39 45 49 49 49 51 46 42 40 39 37 38 34 36 41 43 45 40 37 38 45 46 43 42 38 35 33
45 45 43 46 47 48 48 47 46 44 42 42 41 32 31 29 33 39 42 45 45 46 45 47 43 39 38 36 28 33 32 34 35 42 43 40 36 38 43 45 44 41 35 34 34
45 46 43 45 46 47 46 38 34 30 35 32 33 32 31 35 42 41 39 42 44 42 36 40 36 34 36 35 32 33 31 34 33 39 40 40 37 36 41 43 44 41 36 32 33
44 46 43 44 46 47 41 34 36 36 29 35 35 35 37 42 36 40 38 39 40 35 34 35 33 36 37 35 33 32 30 32 32 35 37 38 37 35 38 38 41 40 36 32 32
45 45 42 44 46 44 38 37 43 41 34 34 36 38 40 41 38 38 38 39 36 33 32 34 33 37 37 35 32 31 30 30 30 33 31 34 34 35 35 36 37 37 35 32 31
44 44 43 46 44 41 38 42 43 41 29 31 35 36 40 39 36 42 42 41 38 33 34 35 38 36 36 34 32 30 31 29 30 31 30 30 28 30 32 33 34 34 34 33 32
43 43 43 47 41 40 39 43 42 39 19 34 36 42 39 37 37 39 40 39 35 36 36 33 36 35 34 35 33 30 29 28 29 29 26 26 27 27 24 28 32 33 33 33 33
43 43 45 45 45 43 42 42 40 22 20 31 35 34 34 35 37 39 39 42 43 38 38 37 40 36 35 34 32 31 29 28 28 26 23 25 26 25 23 23 22 26 30 32 32
44 46 46 45 40 44 42 39 25 22 31 29 31 32 31 32 33 34 35 34 33 29 30 35 36 37 36 32 31 29 27 24 23 23 22 24 24 25 24 23 22 22 23 24 28
45 47 45 44 43 43 41 28 22 27 32 35 32 32 28 31 31 29 31 32 36 34 31 30 28 35 37 33 30 28 26 22 17 19 21 22 21 22 24 24 23 25 25 26 26
45 44 45 45 43 43 34 23 22 25 32 34 33 30 29 31 28 28 29 31 35 36 28 30 29 37 37 37 32 29 27 24 20 19 19 20 21 19 20 21 22 23 25 26 30
41 40 42 45 44 42 31 28 29 31 34 36 31 33 29 30 26 26 28 32 35 36 33 30 28 36 37 37 35 30 28 26 23 17 14 16 17 16 17 19 19 23 26 29 34
41 39 42 45 44 37 30 29 32 34 35 32 29 28 33 30 28 30 29 35 36 36 34 31 30 32 36 34 32 30 28 27 25 21 16 14 14 18 18 18 19 21 27 30 36
38 36 43 44 37 35 31 32 35 34 35 33 30 29 28 34 33 31 32 33 37 36 31 32 29 28 32 37 37 34 30 28 23 23 23 20 19 22 20 21 20 23 29 31 37
36 38 44 44 32 29 31 33 34 32 32 30 28 29 28 27 28 29 30 33 37 34 32 33 30 26 27 31 35 35 34 32 28 26 23 22 21 19 22 20 23 27 30 32 36
35 33 36 41 39 35 33 32 32 35 33 31 30 29 26 27 29 29 30 34 36 34 34 32 29 25 21 22 29 31 34 34 30 28 27 25 25 26 25 24 21 26 28 32 37
33 33 34 32 34 33 34 35 32 29 33 33 30 30 27 26 27 29 30 31 34 36 36 31 27 27 27 26 31 31 30 33 32 31 28 27 27 28 28 27 24 22 27 32 35
29 31 34 29 29 32 32 33 33 34 33 33 34 32 30 28 29 28 29 29 28 30 34 30 26 24 23 26 29 28 28 31 32 32 32 31 30 30 28 26 25 23 26 31 33
31 32 32 23 26 32 24 29 27 32 35 38 37 31 31 34 36 35 32 29 29 28 29 28 26 24 20 24 24 21 24 26 30 32 32 30 31 31 30 29 29 27 26 30 33

GFSSW_sfc_30mbdewp_051.txt.gz
Dewpoint
47 46 45 44 44 45 46 46 46 47 47 48 49 48 49 50 49 49 48 49 50 54 55 53 50 55 54 52 53 51 43 39 38 38 40 44 42 45 45 43 51 54 52 60 63
44 47 44 45 44 45 45 45 46 46 46 47 47 47 48 49 47 45 50 52 51 51 52 49 48 52 50 51 50 46 39 40 40 42 43 44 43 45 42 37 40 43 45 47 63
48 44 46 44 44 44 45 46 45 45 45 45 45 46 47 48 40 39 49 53 52 50 53 50 48 47 47 50 48 47 40 42 40 43 45 44 44 46 42 38 42 44 43 46 60
48 47 43 46 45 44 46 46 45 45 46 45 47 49 48 44 31 47 50 51 52 51 50 48 46 44 42 43 48 43 43 42 44 46 44 41 46 43 44 42 46 44 44 48 53
47 48 48 42 45 45 45 46 45 45 45 47 47 47 43 39 39 43 44 46 43 46 47 47 43 42 40 43 46 43 44 47 46 46 46 45 42 43 43 46 45 45 44 45 53
41 45 47 47 43 45 46 45 46 46 46 45 44 46 42 35 42 44 43 42 42 46 46 48 44 41 41 42 42 44 44 42 45 46 46 44 43 43 41 45 44 44 44 42 48
48 41 45 46 48 46 46 47 45 45 45 44 45 44 40 36 42 41 41 40 45 46 46 48 46 41 42 39 44 45 41 44 45 45 45 46 39 41 43 44 43 43 44 42 38
46 46 43 46 46 48 47 47 46 44 46 44 44 41 33 36 42 42 41 40 47 48 48 49 47 42 43 43 42 39 41 38 45 45 47 43 37 40 42 42 43 44 43 42 39
46 46 44 45 47 47 48 48 46 44 45 44 39 38 29 36 41 42 40 45 47 47 49 49 47 41 41 38 37 40 34 37 41 44 44 41 37 38 42 44 41 43 43 41 38
46 47 45 44 46 47 48 47 46 43 41 42 41 30 30 29 34 40 43 48 42 45 44 47 43 39 38 37 28 33 34 36 38 43 43 40 37 37 44 43 40 40 44 42 39
45 46 47 44 46 46 47 37 34 30 34 31 33 32 32 37 42 39 40 45 43 41 37 42 37 33 37 36 33 33 34 33 35 43 41 39 37 36 41 42 44 44 45 44 40
46 46 46 42 45 46 42 34 33 34 28 35 34 35 37 42 35 39 40 39 40 34 37 34 33 34 37 34 32 34 31 33 32 41 40 39 38 38 39 40 41 42 42 43 40
46 45 45 42 46 45 39 36 43 41 33 33 36 38 40 41 38 39 39 39 37 34 34 33 35 38 36 34 32 31 31 31 31 38 35 37 36 38 37 40 41 42 42 42 38
45 45 44 43 43 41 38 42 43 40 29 31 33 36 39 39 36 42 42 40 37 33 34 34 37 37 36 33 32 30 31 32 32 34 29 33 27 31 37 35 37 38 40 40 35
44 44 44 45 41 40 39 43 42 37 18 34 36 41 39 36 36 36 41 40 35 35 35 33 35 34 34 32 32 30 31 30 30 29 28 27 29 29 30 34 34 35 36 35 36
43 44 46 45 44 43 43 42 40 22 19 31 34 32 33 35 36 38 38 42 41 36 36 36 39 36 34 36 31 30 28 28 28 27 26 27 28 26 26 26 28 33 34 35 35
44 48 46 44 40 44 42 38 26 21 32 29 31 32 31 31 33 35 36 35 32 30 30 35 36 37 35 32 31 29 27 26 24 23 22 23 25 26 26 24 23 24 25 29 33
46 45 46 44 44 43 41 28 23 27 31 34 31 31 28 30 30 30 34 32 36 33 31 30 28 35 36 32 30 28 25 22 17 19 22 23 22 22 25 25 24 24 25 26 26
45 44 44 45 43 43 34 23 23 27 35 30 31 28 26 30 28 26 30 32 34 34 29 29 29 37 37 36 32 30 26 24 20 19 19 20 21 20 20 19 21 22 25 25 26
41 40 41 45 44 42 31 28 29 29 36 33 29 31 25 28 24 26 27 31 35 36 33 31 28 36 36 36 33 30 28 25 22 16 14 16 16 13 17 18 19 19 21 26 30
40 38 42 45 44 38 29 30 31 34 36 34 32 32 32 26 24 26 25 34 36 36 33 31 30 33 35 33 30 28 28 27 25 21 16 14 13 19 19 19 19 20 22 28 32
38 35 43 45 37 35 31 31 35 34 35 33 31 32 34 32 26 30 30 33 37 35 31 31 31 29 32 37 36 33 29 27 23 23 22 20 19 21 19 21 21 22 27 30 35
36 39 44 44 30 30 31 32 34 31 31 30 28 29 31 34 30 30 32 35 37 34 32 32 28 26 29 32 35 35 33 30 27 25 22 21 20 20 22 21 22 25 29 30 36
35 33 38 41 39 35 33 32 32 35 33 31 30 28 26 28 30 29 31 36 36 35 34 32 29 24 21 22 29 30 34 33 29 26 25 24 24 26 26 27 28 26 27 30 34
33 32 33 33 34 33 34 34 32 30 32 35 30 31 27 27 28 29 30 33 35 38 34 31 27 27 26 26 30 29 29 32 31 31 28 26 26 27 28 29 29 28 24 28 33
30 32 33 28 28 32 32 32 32 34 34 33 32 31 31 29 29 28 29 31 34 34 37 31 29 25 24 26 29 28 29 30 32 33 32 31 30 32 33 31 29 27 24 25 30
31 33 29 23 26 31 25 26 28 33 35 38 37 31 33 36 38 36 33 30 30 31 32 32 27 24 20 24 23 20 24 27 29 32 32 30 30 32 32 32 32 31 27 25 27

GFSSW_sfc_30mbdewp_054.txt.gz
Dewpoint
49 45 45 44 45 45 46 44 46 46 47 48 48 48 48 49 50 47 44 47 48 53 53 52 50 54 54 51 51 50 39 34 34 32 36 43 41 44 44 46 46 45 44 49 62
50 48 44 46 44 45 46 47 46 46 46 45 46 46 48 49 43 42 44 52 52 51 51 49 46 51 48 48 49 45 41 36 39 41 41 43 42 43 41 41 42 42 44 55 64
47 50 47 43 46 45 46 46 46 46 46 46 46 48 47 47 38 36 45 51 54 52 51 50 45 45 42 49 47 45 40 40 40 43 44 43 43 45 39 39 42 41 43 48 61
43 46 49 46 44 45 45 46 46 46 45 47 47 49 48 43 28 45 50 52 53 52 51 49 45 42 39 41 47 43 42 40 39 45 43 40 44 42 42 42 45 44 43 46 50
49 43 45 48 46 43 45 45 46 46 46 45 46 48 43 37 36 43 44 48 49 50 49 48 42 38 35 38 43 42 43 43 41 46 44 44 42 42 42 43 45 44 44 42 48
47 47 42 46 47 47 46 46 46 45 45 45 46 44 41 32 39 41 42 42 47 46 47 49 40 39 35 37 39 41 44 43 42 45 45 44 42 43 37 43 43 43 43 43 41
47 47 46 43 46 47 47 46 48 45 46 44 45 40 39 33 39 39 41 40 45 45 46 49 45 40 36 37 40 41 40 42 43 42 41 46 42 40 41 41 41 40 41 43 42
48 47 45 44 44 47 48 47 48 45 45 45 44 39 31 37 39 41 40 41 41 44 47 50 48 42 39 40 39 36 38 37 40 43 43 43 34 37 40 40 39 39 40 42 42
46 46 45 45 43 47 47 48 47 45 45 45 39 37 30 39 39 42 41 44 44 45 46 50 47 40 41 34 33 35 30 34 41 41 43 40 35 38 40 41 39 38 38 40 41
46 46 46 45 43 46 46 48 46 43 41 41 39 33 29 31 41 42 42 47 43 41 44 44 43 36 33 30 23 25 27 33 38 41 42 40 38 36 38 39 38 36 36 38 42
46 47 46 46 43 46 46 39 36 33 34 31 32 31 30 37 41 38 41 46 43 38 36 42 37 34 31 30 26 27 29 32 38 42 41 40 39 38 37 40 39 37 37 37 40
45 46 45 45 42 47 45 34 33 36 26 35 35 35 36 41 35 37 43 37 40 34 37 35 32 33 32 33 31 31 29 29 34 40 41 39 37 37 36 36 38 37 36 39 40
46 45 45 45 44 45 41 36 43 41 32 33 36 37 39 41 35 37 41 38 38 34 35 33 35 35 34 33 30 29 27 29 29 36 38 36 34 35 36 36 37 37 36 38 40
45 44 44 43 43 42 38 41 43 42 31 31 31 36 38 39 34 42 43 38 37 33 36 35 38 34 31 30 28 27 30 31 31 29 23 33 17 27 32 34 35 36 37 36 39
44 44 44 42 41 39 40 44 42 38 20 33 33 40 39 34 35 36 41 41 33 34 36 33 37 33 31 31 30 29 32 30 28 25 28 29 25 18 29 30 31 34 36 37 39
44 45 45 46 43 43 44 42 41 28 20 30 33 31 32 34 35 37 40 41 38 35 36 37 40 36 34 34 33 31 31 31 31 28 24 24 25 19 23 25 27 30 34 36 37
45 46 44 43 40 44 43 39 29 25 33 28 26 32 31 32 35 36 35 35 33 29 31 36 37 37 37 31 31 29 26 25 23 24 19 25 25 20 26 26 25 25 26 31 35
46 45 45 45 44 43 41 30 25 30 30 33 29 30 26 31 32 34 34 32 37 34 32 30 27 35 36 32 30 29 22 20 16 17 18 23 22 20 25 25 25 25 25 26 27
47 45 44 44 44 44 35 29 27 30 34 28 29 26 24 28 27 28 32 30 34 35 31 29 29 37 37 35 31 31 28 24 23 21 21 19 21 21 20 21 20 21 23 25 26
43 42 42 45 45 42 32 30 33 32 34 28 28 27 22 25 23 26 29 33 34 35 34 32 29 35 35 35 32 30 28 24 27 19 13 15 16 10 18 20 20 20 21 23 28
42 38 43 45 44 38 30 32 32 33 36 34 33 31 28 23 23 24 27 33 36 35 32 32 29 33 34 32 31 29 28 28 25 24 16 10 9 18 20 20 21 22 25 27 29
41 36 44 45 38 35 33 32 35 34 36 35 36 33 30 26 22 28 28 32 36 35 30 31 31 29 32 37 34 31 27 27 23 23 23 20 14 19 21 21 22 25 28 30 33
39 39 45 44 32 31 32 33 35 32 32 30 30 36 36 33 28 31 32 35 37 34 31 31 30 26 29 32 34 32 31 28 28 27 25 20 18 21 22 22 23 27 28 30 34
38 34 39 41 40 34 33 33 32 35 34 31 29 29 31 29 30 31 33 36 36 35 35 33 29 27 22 26 30 30 31 31 29 26 23 23 22 22 24 25 26 28 30 29 33
35 34 36 33 35 34 34 35 32 31 33 34 31 31 27 27 29 30 32 34 36 38 34 32 29 28 25 28 31 30 30 32 31 29 26 25 23 24 26 28 29 31 30 29 29
31 33 34 30 30 34 33 32 32 34 35 33 31 32 30 28 29 29 31 32 34 36 35 32 29 27 25 26 29 28 29 30 31 30 30 30 29 31 31 31 31 30 30 31 29
33 35 32 25 28 32 29 28 30 33 35 37 36 32 34 36 38 36 33 32 32 34 34 34 29 26 23 24 24 21 22 24 27 30 30 28 27 28 29 30 31 31 31 31 31

GFSSW_sfc_30mbdewp_057.txt.gz
Dewpoint
48 50 48 45 46 45 47 47 47 46 46 46 46 47 48 48 48 48 43 41 44 49 54 49 49 48 52 51 49 45 41 37 34 29 34 41 38 42 44 44 46 45 46 51 63
44 47 50 47 45 45 45 47 47 47 46 46 46 47 47 49 43 40 43 47 50 52 48 48 46 46 49 48 49 45 42 37 40 37 39 41 38 40 41 42 43 42 47 61 64
49 44 47 50 46 45 45 46 46 46 46 47 47 49 47 47 39 35 48 50 50 53 50 49 46 44 39 49 47 43 39 38 39 40 42 42 42 42 39 40 42 41 45 60 63
47 49 44 45 49 45 45 45 46 46 46 46 46 48 48 42 30 45 50 52 52 51 50 49 47 42 41 42 48 42 40 41 41 45 41 40 42 40 40 42 43 43 43 52 61
47 48 47 44 46 47 46 46 47 45 46 46 46 45 44 36 33 44 44 49 50 49 49 47 43 41 36 40 42 45 40 41 46 43 42 44 40 40 41 43 43 42 42 43 54
48 48 47 45 43 46 48 46 46 47 44 45 45 46 41 30 37 38 41 42 48 46 48 48 43 40 34 37 41 42 43 41 41 42 43 42 42 43 39 41 42 42 41 42 43
49 48 46 46 44 45 48 48 47 48 44 46 44 40 36 34 37 38 39 40 46 45 43 48 46 40 37 31 39 39 37 41 41 40 38 42 39 38 40 40 39 40 40 41 42
47 47 46 46 44 43 47 47 48 47 44 46 44 37 32 36 37 38 39 39 42 45 45 48 49 46 36 34 37 41 43 38 39 39 38 38 32 35 39 40 39 39 38 39 41
46 47 47 46 45 43 46 46 48 47 45 45 39 35 29 40 38 41 40 40 42 44 46 50 50 41 39 33 33 33 33 35 34 38 38 38 30 35 36 37 38 39 37 38 39
46 47 46 46 45 43 46 46 45 45 41 37 35 33 29 32 41 42 40 41 43 43 42 45 44 36 34 32 26 25 20 27 32 38 39 39 36 37 38 39 38 38 37 37 38
46 46 46 45 45 43 45 41 38 35 32 29 29 28 28 36 42 42 42 46 43 41 38 38 37 32 28 28 23 22 20 25 29 38 39 38 37 37 36 37 36 37 37 36 36
46 46 46 45 44 44 44 36 34 38 27 32 32 32 32 39 36 40 42 37 40 35 38 36 33 30 27 27 26 21 21 27 34 39 39 38 38 37 36 36 36 35 35 35 35
45 45 44 44 42 44 40 34 41 39 32 33 34 34 35 39 33 38 41 39 35 32 36 34 35 38 29 30 27 25 22 23 31 38 38 37 38 36 36 36 35 35 34 35 34
45 44 43 44 42 41 37 39 42 40 31 29 30 35 37 36 35 40 42 39 38 33 34 34 39 38 31 28 27 23 25 27 28 31 26 33 20 28 31 33 34 34 34 35 36
44 44 46 45 41 38 40 42 41 38 22 32 32 36 36 34 34 39 41 41 34 34 33 33 36 36 30 28 26 25 29 28 28 27 19 27 24 18 25 26 29 32 33 34 36
43 46 47 43 42 42 42 40 40 29 21 29 30 29 30 32 34 38 41 44 33 34 37 37 42 38 29 29 29 32 28 27 26 23 21 23 21 16 17 24 24 25 29 32 34
45 46 44 42 39 43 41 38 30 26 33 27 25 28 28 33 34 36 36 36 31 28 30 34 35 39 37 31 32 29 26 22 21 23 20 23 20 19 23 25 24 25 26 28 31
46 45 45 44 44 42 41 32 26 29 30 30 27 28 26 32 34 32 34 32 34 28 31 30 27 35 36 28 27 28 23 19 14 15 16 23 20 18 23 24 24 25 26 26 27
46 44 43 44 44 44 36 30 29 32 29 24 26 25 24 28 30 31 34 34 31 33 31 30 30 38 36 34 30 26 23 24 23 20 18 19 18 21 21 21 21 21 22 23 25
43 42 41 45 45 42 35 32 32 35 34 25 25 23 22 25 25 27 32 34 33 36 37 32 28 36 36 35 32 30 28 22 26 18 10 14 13 11 17 19 20 23 25 26 27
42 39 43 45 45 39 33 33 33 35 32 30 32 26 23 22 23 24 29 33 34 34 34 32 27 33 36 33 29 29 28 28 25 24 18 7 8 17 19 21 23 25 28 28 29
42 34 44 44 37 35 34 34 35 34 37 37 36 31 23 21 21 25 28 31 34 33 31 31 30 27 30 35 34 31 26 26 21 23 20 19 16 18 21 22 24 26 28 29 31
38 37 45 43 34 31 33 33 34 32 32 32 34 34 33 27 25 29 31 34 36 33 32 31 29 27 28 30 31 30 29 27 25 28 25 19 15 22 22 22 23 25 27 28 30
38 34 40 41 39 33 31 31 31 35 32 31 29 33 31 29 31 30 32 35 36 34 34 32 27 27 23 26 26 27 27 28 27 26 22 21 19 21 23 23 24 25 28 30 30
37 33 35 33 34 34 35 33 29 30 33 32 30 29 28 27 29 30 32 34 36 36 33 32 30 29 26 29 31 30 26 27 29 28 24 22 22 23 24 27 29 30 30 30 30
32 32 35 33 34 34 34 32 30 33 33 30 29 30 28 27 29 29 32 33 32 34 33 33 29 29 27 26 28 28 28 28 29 29 29 27 27 28 29 29 28 29 29 29 29
34 36 33 30 32 31 30 31 32 34 35 35 32 31 32 35 35 34 32 33 32 33 33 32 30 28 25 24 23 21 22 24 27 27 27 24 24 28 30 31 32 33 33 32 31

GFSSW_sfc_30mbdewp_060.txt.gz
Dewpoint
50 46 46 50 48 46 46 47 48 47 47 47 47 47 48 48 48 48 44 44 46 47 51 49 49 48 50 51 52 47 42 36 35 31 34 40 40 42 43 45 44 45 50 59 64
48 49 47 47 49 47 46 45 48 47 47 47 47 48 48 48 44 40 44 47 52 52 48 47 47 47 46 48 49 45 43 39 38 38 37 40 39 40 42 42 42 47 60 62 65
48 48 49 46 46 49 46 45 46 47 47 46 47 47 49 47 40 38 49 50 49 52 50 48 47 46 42 46 46 46 40 42 40 44 40 41 40 42 41 42 42 42 56 61 64
48 48 48 47 45 45 48 46 46 47 46 46 46 46 47 44 32 45 50 51 51 52 50 48 47 44 41 43 46 42 42 43 46 46 45 42 42 40 42 42 43 43 50 61 62
48 50 49 47 46 44 46 49 46 47 46 45 45 46 44 37 35 44 44 48 49 49 46 46 45 45 40 39 46 43 42 47 48 47 46 44 40 41 42 43 42 42 43 51 60
48 50 48 46 46 45 45 48 48 46 48 44 45 45 41 34 37 38 39 41 45 47 45 46 46 44 39 39 42 42 45 44 48 46 47 43 42 42 41 41 42 42 41 43 46
47 47 48 47 46 45 44 47 48 47 47 44 46 41 35 34 36 36 38 39 44 46 44 45 47 47 40 35 42 42 39 43 43 44 42 42 39 39 40 41 40 40 41 41 43
48 47 47 47 46 46 43 47 47 48 47 44 46 40 33 36 38 37 38 38 41 46 47 46 48 47 45 37 40 38 39 36 43 46 44 40 35 38 40 39 40 40 39 40 41
46 47 47 46 46 46 43 46 46 48 47 44 42 37 30 39 37 41 40 38 40 43 46 45 48 45 40 36 36 38 31 33 39 41 40 38 33 34 36 38 38 39 39 39 40
46 47 46 46 45 46 43 46 46 46 45 38 34 32 33 32 41 41 42 40 41 42 43 41 43 39 37 33 30 34 33 34 35 38 37 37 35 36 36 36 38 38 38 39 38
48 47 46 46 45 44 44 44 41 38 35 29 27 27 27 38 43 40 42 41 43 41 33 37 35 33 33 34 31 31 31 31 33 39 35 36 36 36 36 38 38 39 37 38 38
46 46 46 44 44 42 45 40 37 38 31 31 31 30 30 37 37 39 41 37 38 34 36 33 32 36 37 33 27 25 26 31 34 38 37 36 36 37 37 37 37 37 38 38 38
46 46 45 44 43 42 41 37 41 39 35 32 31 33 34 39 38 39 41 38 37 34 34 33 36 39 35 29 30 27 22 33 34 38 38 37 36 37 39 38 37 37 37 36 38
45 44 44 45 41 42 38 38 41 40 32 30 31 34 35 36 37 40 42 39 39 34 35 35 37 37 36 31 27 23 23 31 35 35 31 36 23 34 36 36 37 36 35 35 35
45 44 45 45 42 38 41 41 40 40 21 29 30 34 36 34 35 38 43 41 34 33 31 34 36 36 35 28 27 27 29 33 35 31 28 33 27 20 35 32 34 34 34 35 35
45 46 47 42 43 42 42 41 40 29 19 27 29 28 30 31 34 39 40 43 37 35 37 37 41 40 37 30 30 29 28 27 26 25 22 23 24 20 24 26 27 28 33 34 34
46 46 44 43 41 42 41 39 30 23 31 26 24 27 30 31 33 37 36 35 31 28 30 34 36 39 39 31 32 27 26 24 23 22 21 23 22 22 23 24 24 25 26 27 29
46 45 44 43 43 42 41 36 25 25 29 27 26 27 28 31 32 35 34 31 32 28 32 30 27 37 38 31 30 27 26 22 16 18 20 22 20 20 24 22 25 26 26 26 26
46 45 42 44 43 44 40 30 29 29 26 24 26 26 27 28 28 33 34 30 31 33 29 30 30 39 37 34 32 29 26 25 24 20 20 21 20 21 23 20 21 21 23 24 25
44 43 41 44 45 43 37 32 30 35 33 24 24 24 24 25 26 30 33 33 33 35 35 31 29 36 36 36 32 31 27 23 24 14 11 16 15 15 19 20 25 26 28 29 29
44 40 44 45 45 41 32 31 33 36 32 31 31 25 23 22 24 24 32 31 34 35 34 32 31 33 35 34 30 29 29 28 26 24 22 13 13 19 20 23 25 27 28 29 31
42 37 44 45 38 37 32 33 35 35 37 36 36 32 25 22 23 26 31 32 34 34 31 33 30 30 32 37 35 33 29 26 24 22 22 20 17 21 22 24 25 27 27 29 32
39 38 44 43 33 31 34 33 33 33 34 36 33 33 33 24 25 28 31 34 35 35 33 31 30 26 27 30 32 31 30 29 28 27 25 20 18 22 22 22 23 25 26 28 31
38 33 38 41 39 36 31 30 31 34 32 31 33 34 31 27 31 29 32 34 35 35 34 33 29 28 24 26 28 27 28 28 28 26 24 24 22 22 22 23 27 30 30 30 31
39 34 35 32 34 34 35 30 29 30 32 31 29 29 28 28 28 27 31 33 36 34 34 33 29 27 27 29 31 30 27 27 27 28 25 24 22 23 27 28 29 31 31 31 31
35 34 36 33 33 33 33 31 29 33 34 29 29 29 28 29 31 28 31 31 31 34 32 33 29 29 27 26 28 27 28 28 28 29 28 28 27 28 29 31 32 33 33 33 33
36 36 35 33 33 32 32 31 32 34 35 35 32 32 33 35 33 33 32 33 33 32 31 32 29 28 24 23 23 21 23 26 27 28 27 27 26 30 31 32 32 33 34 35 35

GFSSW_sfc_30mbdewp_063.txt.gz
Dewpoint
48 48 50 48 48 49 47 46 46 48 48 47 47 48 48 49 49 48 44 45 46 51 51 49 50 49 51 51 51 51 42 37 36 35 36 40 38 41 42 44 50 50 56 61 63
49 49 49 49 47 47 49 47 45 47 48 47 47 47 48 49 46 43 45 47 48 52 49 48 47 48 47 48 48 46 41 38 40 41 37 38 36 38 42 44 54 59 62 63 65
49 49 50 49 47 46 45 48 47 46 47 46 46 47 47 48 43 41 47 49 49 50 51 50 48 48 44 47 46 44 42 43 43 45 41 39 39 41 43 42 43 55 59 63 63
50 49 50 49 47 47 45 45 49 46 48 46 45 45 47 46 31 44 48 49 50 50 50 46 47 45 43 41 46 44 44 42 45 46 43 41 41 42 43 42 43 57 60 62 62
50 49 50 49 47 47 45 45 48 48 47 48 45 46 45 41 38 45 44 46 49 49 44 45 45 44 41 40 44 43 46 45 46 48 45 43 41 42 41 41 42 52 59 60 62
50 48 48 48 47 47 45 44 48 49 47 47 44 46 42 35 37 42 39 40 44 47 43 44 46 46 43 40 42 45 45 48 46 48 47 43 42 41 42 42 41 43 47 57 59
50 49 47 48 48 47 46 43 47 47 48 47 44 44 38 36 37 37 37 39 43 45 44 46 48 45 46 41 44 45 42 44 47 48 47 45 40 40 41 41 41 41 43 43 54
49 47 47 47 46 47 46 43 45 47 48 47 44 44 36 37 38 39 40 40 41 47 46 48 48 46 46 43 41 41 41 36 42 44 44 41 35 40 40 39 40 40 40 42 42
49 46 48 47 46 46 46 43 45 47 47 46 42 41 32 40 38 41 41 39 41 46 46 45 44 44 44 39 37 37 32 35 35 43 44 39 36 38 39 39 38 39 40 40 41
46 47 47 47 46 46 44 44 46 47 44 44 39 33 33 33 40 42 43 42 40 42 41 40 39 39 39 37 30 32 30 34 34 41 41 40 36 35 36 37 36 38 39 39 39
46 47 46 46 45 44 43 43 41 38 39 31 28 29 28 41 43 40 43 40 41 40 33 37 34 32 36 35 34 34 32 31 36 40 42 39 37 35 36 35 35 37 38 38 38
47 46 46 44 44 41 44 41 37 38 34 30 32 30 30 37 39 39 40 37 39 34 36 34 31 36 36 35 34 33 31 28 32 36 40 37 36 36 37 37 37 38 39 38 38
47 46 44 44 43 43 41 41 41 40 36 33 32 34 34 39 37 39 40 39 36 33 34 32 32 39 37 34 33 32 30 30 32 37 39 35 35 36 37 38 39 38 38 38 39
46 45 44 44 42 42 41 41 42 41 30 29 32 34 36 40 36 42 42 39 38 32 35 36 38 37 36 34 32 27 32 34 36 36 32 36 26 33 36 37 38 38 38 37 36
45 44 44 45 42 40 40 42 41 40 18 27 31 34 36 35 37 40 45 42 35 35 36 33 36 37 36 34 35 33 29 35 36 33 32 34 30 24 35 36 37 37 37 36 36
45 45 46 43 42 43 42 41 40 27 15 25 30 29 30 33 37 40 41 43 39 35 37 37 41 40 38 37 34 33 35 35 33 31 24 31 28 21 29 32 34 36 36 36 35
46 46 45 43 41 42 42 39 29 19 30 24 26 28 31 31 34 35 35 34 32 27 29 34 34 39 39 31 31 29 26 26 24 21 20 24 22 22 23 25 25 25 26 28 28
46 45 44 44 45 42 41 36 22 24 27 27 26 27 29 31 33 33 32 30 32 34 32 29 28 36 39 33 28 27 25 21 16 19 20 22 20 20 23 25 25 23 24 25 26
46 44 43 44 44 44 40 30 27 25 27 25 27 27 27 28 30 34 31 32 33 33 29 30 30 38 38 36 32 28 24 25 23 21 20 20 21 22 20 21 23 25 27 27 27
43 42 42 44 45 43 37 31 31 34 33 27 25 25 25 26 27 30 31 32 32 36 35 32 29 37 36 35 32 30 27 23 23 14 14 20 17 17 20 24 27 27 28 29 31
43 40 44 45 45 41 32 31 33 35 35 32 28 26 24 24 26 29 32 32 34 34 35 32 32 33 33 34 31 29 27 28 26 25 20 13 14 18 23 26 26 27 28 30 31
42 35 44 45 37 37 31 34 33 34 37 35 35 32 29 23 26 30 32 32 34 34 31 34 31 28 31 37 36 34 30 27 22 20 23 19 15 23 25 26 27 27 27 31 32
39 39 44 44 31 30 33 34 35 34 34 34 32 33 33 29 26 31 32 35 35 35 33 32 29 27 28 30 33 31 31 29 29 27 24 15 17 22 22 23 24 26 29 30 32
36 33 39 41 39 36 32 32 32 34 34 33 34 34 29 29 29 29 32 34 35 34 35 33 30 25 22 26 29 29 29 30 28 24 23 24 20 22 26 28 30 32 33 33 33
38 33 34 32 34 35 34 32 31 31 33 32 30 33 29 27 27 30 31 34 35 34 33 33 28 27 28 30 30 29 27 29 27 27 24 23 24 27 29 31 32 33 33 33 33
37 35 35 33 33 33 33 30 31 34 33 30 30 31 31 31 32 28 29 29 30 34 33 33 29 27 26 27 27 27 28 28 27 28 28 27 26 30 32 33 33 33 35 35 36
38 36 35 34 33 32 32 31 33 35 34 34 33 34 33 33 32 32 32 32 33 33 32 31 28 27 25 23 23 21 24 25 28 28 29 27 29 31 30 30 30 33 30 31 32

GFSSW_sfc_30mbdewp_066.txt.gz
Dewpoint
51 50 50 49 49 48 47 49 47 46 47 48 47 47 47 48 49 48 45 45 46 48 49 47 49 50 50 50 50 50 41 37 37 30 34 38 35 41 44 47 53 51 56 57 62
50 50 49 51 50 47 47 46 48 48 46 47 46 47 47 48 47 44 45 48 49 51 46 45 47 48 46 47 49 47 40 39 38 37 36 39 38 41 44 51 56 59 62 61 61
50 51 50 51 50 48 47 45 46 49 47 49 46 45 46 47 44 41 47 48 49 52 50 49 48 48 45 46 44 46 40 42 42 45 43 39 38 42 44 44 51 56 60 62 62
51 51 49 50 50 48 47 46 45 48 47 48 47 45 47 46 25 43 46 47 49 52 50 46 46 45 42 41 46 42 45 45 44 47 44 39 41 43 42 42 51 58 61 62 61
51 50 49 48 48 47 47 45 45 48 48 47 47 45 45 41 40 44 44 42 48 46 44 44 44 44 40 41 41 44 43 46 46 48 47 44 42 42 41 42 54 60 60 61 62
51 50 50 48 48 48 48 45 44 48 48 47 45 45 42 34 38 43 42 39 43 43 45 44 46 46 43 41 39 45 44 44 47 48 48 43 42 41 42 42 54 56 58 60 61
50 50 49 47 47 47 47 46 44 46 48 48 45 44 39 34 38 40 40 39 42 44 43 46 47 44 45 41 43 46 42 44 45 47 47 47 41 40 42 42 43 45 51 57 59
50 50 47 48 47 46 45 46 44 46 47 48 45 44 36 38 39 39 40 40 42 45 45 48 46 43 45 45 44 42 40 37 39 46 47 45 38 41 42 41 40 41 42 47 55
49 48 47 48 47 47 46 45 44 45 47 47 43 41 34 40 37 41 42 39 41 45 46 47 43 42 44 40 38 39 32 36 35 43 45 42 39 40 41 39 39 40 40 41 44
49 46 49 46 47 46 45 44 46 47 43 45 42 35 33 33 39 41 43 42 40 42 40 41 39 37 39 38 30 32 32 34 33 41 41 41 39 39 37 39 38 39 39 40 40
48 47 47 46 45 44 43 43 40 37 38 32 31 32 29 40 44 40 42 40 40 39 33 39 34 32 35 38 35 33 33 34 37 42 40 39 40 40 37 36 37 37 38 38 40
47 47 46 45 44 43 43 40 37 38 32 35 29 31 31 39 38 39 40 38 37 34 36 34 31 36 37 38 34 32 30 32 37 41 38 39 38 38 37 36 37 36 37 38 38
47 46 45 44 43 43 41 41 42 40 35 34 33 32 34 38 37 38 39 38 36 34 33 30 31 37 37 35 34 32 28 30 31 37 39 39 37 38 38 38 38 38 38 39 39
47 46 45 44 41 42 41 42 42 40 26 26 32 34 36 40 37 43 42 39 37 33 35 34 37 35 36 33 32 31 32 34 33 34 28 38 27 32 36 37 38 38 39 38 38
46 45 44 45 41 40 40 42 41 37 8 24 29 34 38 38 38 41 44 40 34 34 36 33 36 35 34 34 33 30 33 36 37 35 34 35 31 24 34 34 34 36 38 38 38
46 45 45 45 42 43 42 41 39 23 7 23 30 29 31 36 38 39 41 44 41 36 37 37 41 37 38 36 35 36 35 35 35 34 28 31 31 20 28 33 35 37 38 38 38
45 46 45 42 39 43 42 39 24 15 27 21 26 28 31 32 34 35 35 35 32 28 30 35 35 40 40 33 36 35 31 27 25 26 23 29 29 23 24 26 31 32 29 29 30
46 47 45 44 44 42 41 33 16 23 24 26 26 27 29 32 33 32 31 32 34 33 31 29 28 36 38 35 34 30 27 25 19 20 21 23 24 20 23 23 24 24 25 27 28
47 44 43 44 44 44 37 27 23 23 26 26 26 27 27 28 32 31 32 33 34 33 30 29 30 38 38 36 32 28 25 27 22 22 20 20 21 21 21 25 27 28 28 29 29
43 42 42 44 45 42 35 28 30 31 31 29 25 26 24 26 28 31 30 32 32 35 35 32 29 36 36 34 31 28 27 23 21 16 14 20 18 19 20 24 26 28 29 30 31
43 39 43 44 44 40 30 31 32 35 34 29 28 26 25 25 27 31 31 32 34 34 34 33 30 31 32 34 32 27 25 27 25 24 17 15 14 18 22 26 26 28 29 31 31
42 34 44 45 36 37 31 34 34 32 35 34 34 32 27 24 28 32 31 32 34 34 31 33 31 29 31 34 36 34 29 27 19 19 22 17 17 23 25 27 28 27 29 31 33
38 39 44 44 30 31 33 34 34 34 35 34 31 32 33 29 29 32 33 35 35 34 32 31 28 24 25 28 32 31 31 29 28 27 22 14 18 23 25 28 30 31 32 33 32
37 33 39 41 38 34 32 33 33 35 34 35 33 33 31 29 29 30 33 35 35 33 35 33 29 24 21 24 30 29 30 30 27 24 24 24 20 27 29 31 32 32 33 33 34
35 32 34 31 34 35 33 33 32 31 33 32 31 33 29 26 27 30 31 35 35 34 33 32 26 27 28 29 30 28 29 29 27 26 23 22 23 27 30 32 32 34 35 35 35
36 33 34 33 34 35 34 32 31 33 31 30 29 30 30 28 29 28 30 31 31 33 32 32 28 26 25 26 26 27 28 28 29 28 27 27 27 31 32 32 33 31 30 29 29
39 37 34 33 33 33 32 32 33 34 34 33 32 33 31 31 32 31 32 32 33 32 32 30 28 25 24 23 22 21 23 26 28 29 28 27 29 31 29 27 31 28 28 28 29

GFSSW_sfc_30mbdewp_069.txt.gz
Dewpoint
51 51 51 50 51 50 48 48 47 49 48 47 47 46 47 47 48 47 43 45 47 49 50 48 46 47 48 49 49 49 42 38 37 35 33 35 35 41 46 47 52 46 52 55 58
52 51 52 50 51 51 49 48 46 46 49 47 49 46 46 47 46 44 45 48 49 50 49 45 43 45 43 45 46 44 40 37 40 35 33 37 35 43 46 50 52 55 59 60 61
52 52 52 50 50 50 49 47 46 46 48 48 49 47 45 48 43 40 47 47 50 52 48 47 45 43 39 44 43 41 40 40 40 43 46 39 38 43 45 46 50 51 55 59 61
53 53 51 50 49 49 48 47 46 46 48 48 48 46 46 46 19 42 45 44 47 51 48 46 44 40 39 39 43 38 43 42 40 48 46 40 41 43 43 43 48 56 58 59 59
55 53 52 51 49 48 49 49 46 45 49 48 47 45 44 41 40 42 44 41 45 48 44 43 42 41 38 39 41 40 42 45 46 48 48 46 42 42 42 47 58 60 60 59 58
55 54 52 50 48 48 47 48 46 44 47 49 47 45 42 34 37 41 43 39 41 42 44 44 43 45 43 41 39 41 41 44 47 48 48 44 42 42 42 48 57 58 57 58 60
55 54 51 49 48 48 46 46 46 44 45 48 47 44 40 33 38 40 39 40 42 43 44 44 45 44 44 41 41 43 39 45 46 47 46 48 41 41 42 50 53 56 57 58 60
55 54 51 47 48 47 46 45 45 45 46 47 46 43 35 39 39 39 40 38 42 46 44 46 46 43 44 46 41 38 37 37 41 43 47 45 38 41 42 44 43 45 49 56 59
55 52 49 47 48 47 47 46 44 45 46 48 44 41 34 39 37 40 41 39 41 44 46 46 44 41 43 39 36 36 31 35 37 42 43 43 39 41 41 41 41 41 41 43 48
55 51 48 48 46 46 45 44 46 46 44 45 42 36 33 32 39 41 43 42 40 40 40 41 40 37 38 37 30 30 30 35 35 40 41 40 38 40 41 40 39 40 41 40 41
53 50 49 47 46 45 43 42 40 37 39 33 33 31 31 41 42 39 42 40 39 38 34 37 34 31 34 36 37 34 34 34 38 42 39 38 40 40 42 39 38 38 38 39 40
52 50 47 46 45 44 43 40 36 37 31 36 34 31 32 39 37 39 40 37 36 32 36 34 31 34 36 36 37 34 34 34 39 42 38 38 38 41 43 42 37 37 37 37 38
51 49 47 45 44 43 40 41 42 39 34 34 33 32 36 37 35 37 39 38 35 33 33 29 32 37 36 34 34 33 33 33 34 39 40 38 36 37 42 42 38 38 37 37 37
50 49 46 44 41 41 39 42 42 39 24 22 31 34 39 39 37 43 42 39 36 33 32 32 36 36 34 32 34 29 33 33 36 31 28 37 28 32 37 37 37 38 38 39 39
51 48 45 44 42 40 39 42 41 32 5 18 28 35 40 37 38 41 43 41 34 35 35 33 34 33 33 34 34 33 36 32 33 34 33 34 32 27 33 32 35 36 37 38 39
50 47 45 44 42 43 42 41 37 21 0 20 30 29 34 37 37 38 40 43 41 37 37 37 39 36 36 37 36 37 37 36 36 34 27 32 31 21 27 31 33 35 36 38 38
49 47 45 44 38 43 41 38 22 15 24 20 25 27 31 32 35 36 35 36 33 29 29 34 35 38 41 34 35 34 30 27 25 26 25 32 31 28 24 25 31 33 31 29 29
48 46 45 43 43 42 40 30 19 18 23 25 27 27 28 31 31 32 32 33 35 33 31 29 27 34 38 35 34 32 27 23 18 22 24 29 26 21 22 24 25 26 27 28 28
48 45 44 44 43 42 34 26 19 23 26 26 26 26 27 28 31 31 32 33 36 33 30 29 30 39 37 36 34 33 26 27 21 22 21 24 21 21 25 27 27 28 29 30 31
44 43 42 44 44 41 34 28 30 27 30 27 24 26 24 26 28 30 30 32 32 35 35 32 29 35 36 34 31 28 28 23 22 16 14 19 19 19 22 25 28 29 29 31 32
43 38 43 45 44 38 29 29 32 34 33 26 26 26 26 25 28 30 30 31 34 33 34 32 29 30 32 33 30 27 26 26 25 23 17 16 16 19 21 26 27 28 30 32 32
42 34 43 44 35 35 32 33 34 33 35 34 32 32 25 25 29 32 30 32 34 34 31 33 30 27 31 34 35 34 29 25 17 20 20 16 18 24 26 27 29 30 31 32 33
39 38 44 43 30 31 33 34 32 32 34 33 31 32 33 28 29 32 33 35 35 33 31 31 28 24 24 26 31 31 31 29 27 25 21 14 19 28 29 31 32 32 33 34 35
38 32 38 41 38 33 32 33 31 34 34 35 32 33 31 28 31 31 33 35 34 34 36 32 28 22 19 22 29 29 30 29 26 21 23 22 23 28 31 31 32 33 34 34 32
36 33 34 31 33 34 34 34 31 32 33 35 32 31 28 27 29 29 33 34 34 35 33 29 27 27 27 29 29 29 29 29 27 25 22 23 22 27 31 32 33 32 29 28 28
37 33 34 32 34 34 34 32 31 32 30 30 29 30 29 27 27 27 30 31 31 33 32 31 27 26 25 24 25 27 28 29 29 28 27 26 26 30 32 32 29 28 28 28 28
41 37 34 33 33 33 33 32 32 33 33 33 31 31 30 31 32 31 32 33 33 32 31 29 27 24 23 22 21 21 22 26 28 29 28 27 28 31 27 26 29 28 29 29 30

GFSSW_sfc_30mbdewp_072.txt.gz
Dewpoint
55 54 52 52 51 51 52 50 49 47 47 50 48 48 46 46 47 46 41 42 47 49 49 49 47 46 46 47 48 48 39 35 37 38 37 35 34 42 45 43 45 45 46 53 60
56 55 55 52 52 51 51 50 49 47 46 47 49 50 47 46 46 43 45 46 49 50 49 48 44 43 43 43 44 42 37 35 37 38 38 35 36 40 47 46 50 46 54 58 58
58 56 56 53 52 50 50 50 47 47 46 47 48 49 46 47 42 36 47 47 48 51 47 46 45 44 40 41 42 40 36 37 40 40 40 36 41 42 47 45 49 45 53 55 54
60 57 55 54 53 50 48 48 48 47 45 50 48 47 46 46 15 41 45 43 45 50 47 44 42 40 37 36 39 38 39 40 39 41 44 42 42 42 47 43 49 49 55 56 54
60 58 55 55 53 50 48 49 48 47 45 49 49 46 44 41 39 42 45 42 47 49 44 42 40 39 35 37 37 39 39 40 42 43 46 47 43 44 43 49 54 54 56 56 53
60 57 54 55 53 49 48 47 48 46 45 47 49 45 41 30 36 40 43 41 39 43 43 44 39 43 37 37 35 38 39 39 43 42 45 45 44 44 44 52 56 54 56 57 56
59 58 54 54 52 49 48 46 45 46 45 46 48 44 41 30 37 39 39 39 40 43 41 44 43 42 41 38 39 35 37 40 41 43 43 47 41 42 44 53 54 54 55 57 58
57 57 55 53 51 49 47 46 46 45 45 47 47 43 32 37 39 39 40 38 40 45 44 44 45 43 41 42 41 36 37 35 38 43 47 43 37 43 45 50 50 52 55 54 56
56 55 53 52 49 49 47 47 46 45 46 47 44 40 32 38 38 39 41 39 40 43 43 44 42 41 41 35 35 36 30 32 35 43 43 42 40 43 43 45 43 43 48 55 56
54 56 53 51 50 47 46 45 45 47 45 46 42 36 33 30 38 40 42 42 40 40 39 39 39 37 36 32 27 30 30 33 33 40 40 38 39 41 43 42 42 42 42 45 51
52 55 52 50 48 46 43 43 40 36 40 31 33 32 31 39 42 39 40 40 39 37 32 37 33 30 33 33 35 32 31 32 37 41 39 37 36 39 43 42 39 41 40 42 43
49 54 51 50 47 45 43 39 36 36 30 36 35 34 34 38 35 38 40 37 35 32 35 33 31 34 37 37 36 32 31 31 36 41 38 38 36 38 43 43 43 40 38 38 40
49 54 51 49 47 44 40 40 41 39 32 33 34 32 35 38 36 37 39 37 35 33 33 30 33 35 35 34 35 34 33 33 32 37 39 37 36 37 41 43 42 40 39 38 37
48 52 50 48 43 41 38 41 42 37 23 21 29 33 38 39 37 42 43 37 35 32 34 33 36 34 34 34 35 32 35 35 35 31 28 35 28 34 39 39 40 41 39 38 38
48 51 49 46 41 39 40 43 41 30 2 14 27 35 40 37 38 40 44 40 34 34 36 33 34 34 32 34 37 34 36 35 35 33 32 33 29 30 36 37 39 40 38 39 39
47 52 48 46 43 43 43 40 36 18 -1 18 30 30 34 37 37 38 39 41 40 37 37 36 38 38 34 36 38 37 36 36 36 34 26 32 29 23 26 30 35 37 37 38 38
47 50 47 46 40 43 41 37 21 11 22 21 25 28 31 33 35 36 35 35 33 28 30 33 35 38 39 37 36 36 33 27 25 25 24 31 29 30 22 24 27 30 29 30 33
50 48 47 45 45 42 38 29 17 15 20 24 26 28 27 31 34 35 35 33 35 33 31 26 25 35 38 35 34 31 28 23 19 22 25 33 26 20 23 27 27 28 30 31 31
49 47 45 45 43 41 35 24 17 20 25 26 27 26 26 28 31 33 33 34 35 33 29 30 29 38 38 36 33 31 26 27 22 23 25 25 21 21 27 28 29 30 31 32 34
44 42 41 45 44 40 33 26 28 26 28 27 22 25 24 26 28 29 30 32 34 36 35 33 29 35 35 33 32 30 28 21 21 17 18 20 19 19 24 27 29 30 31 32 34
42 37 44 45 43 38 29 29 31 31 32 26 26 25 26 26 29 30 30 32 34 33 34 31 29 32 32 32 29 27 25 25 24 23 17 18 16 22 22 27 28 30 31 32 33
41 32 44 44 35 34 30 32 34 33 34 33 30 30 25 26 30 32 30 32 35 34 31 32 29 28 31 34 35 34 28 23 18 19 18 17 18 27 26 28 30 31 33 34 35
37 37 44 43 30 31 34 32 32 31 32 32 31 32 32 28 29 32 33 35 34 33 31 30 26 23 23 25 30 30 30 28 25 23 18 15 19 29 31 32 33 33 34 33 31
37 31 37 40 38 31 33 31 30 34 33 34 31 33 30 28 31 32 33 34 34 35 35 31 26 21 17 20 27 28 29 28 24 18 21 18 22 28 31 31 33 33 30 29 28
37 33 36 31 33 34 33 32 30 31 33 35 31 31 27 27 27 31 34 33 33 34 32 29 27 26 26 29 29 29 29 28 26 24 20 22 22 27 30 31 33 29 28 28 28
36 34 34 30 33 34 34 31 31 32 32 31 29 32 29 27 27 27 31 31 31 32 31 30 27 25 24 24 25 27 28 29 28 27 26 23 25 29 32 32 28 28 28 28 29
41 37 33 32 32 32 31 32 32 32 33 32 31 30 29 31 31 32 33 33 33 31 30 28 26 24 23 22 21 21 23 27 28 29 28 25 27 31 27 30 28 28 29 29 30

GFSSW_sfc_30mbdewp_075.txt.gz
Dewpoint
60 58 57 56 54 53 52 52 51 50 48 47 48 49 50 47 46 46 41 39 47 49 51 49 48 46 46 46 47 46 37 32 32 33 37 39 38 39 43 43 46 47 47 52 59
60 60 58 56 55 54 52 51 51 49 47 46 47 49 50 46 46 43 45 45 49 50 47 47 44 44 42 44 43 41 35 33 33 34 37 37 38 38 41 43 46 46 57 58 57
59 59 60 57 55 54 52 50 49 48 47 46 50 48 48 47 39 32 47 49 47 50 47 46 45 43 40 41 41 39 35 34 35 37 39 38 39 42 42 41 46 45 52 58 57
58 58 59 57 56 54 53 50 48 50 47 45 50 48 46 45 14 40 46 43 45 49 46 45 43 39 38 36 37 34 37 38 37 38 41 39 39 39 42 43 46 46 51 56 54
55 57 58 57 55 54 53 49 48 48 47 45 49 47 43 39 36 40 44 44 48 47 43 41 39 38 35 35 36 36 35 38 39 39 42 43 42 39 40 43 45 50 54 53 53
52 55 56 56 55 54 52 49 47 48 47 45 47 46 41 23 34 40 41 42 40 45 43 43 40 39 37 37 35 35 36 37 39 38 41 40 41 43 40 43 45 52 53 54 53
50 53 58 55 54 52 51 48 46 46 46 45 47 44 40 25 36 38 39 38 40 41 40 43 43 40 38 36 37 36 35 35 37 39 40 42 39 43 43 44 46 50 53 55 54
48 51 57 55 53 51 51 48 47 46 45 46 47 43 29 35 40 39 40 38 39 42 43 43 44 41 37 39 38 35 33 30 34 39 39 40 35 42 46 45 46 48 49 53 56
45 49 52 54 52 51 50 47 46 45 45 46 44 39 25 37 36 40 40 39 41 41 43 43 42 38 35 34 32 34 28 28 35 39 41 41 36 43 44 46 46 46 51 50 52
46 47 50 53 51 50 47 45 45 47 46 45 41 37 32 28 36 40 42 42 40 40 39 40 38 34 36 33 26 28 30 33 33 38 39 38 39 42 44 44 44 43 46 52 53
44 46 49 52 50 49 44 45 38 36 41 34 31 30 31 37 42 39 40 40 39 38 32 36 32 29 33 34 32 33 33 31 36 38 37 36 37 40 44 43 41 43 42 45 52
43 45 47 51 50 48 43 40 38 35 30 38 36 36 34 37 34 38 41 36 34 31 35 32 30 34 36 34 32 34 33 33 35 41 38 36 35 39 41 43 43 43 42 41 43
43 44 46 51 49 47 42 39 43 39 31 33 35 33 34 37 35 36 39 37 34 32 32 30 33 36 35 32 33 32 31 33 32 36 38 37 34 37 42 43 44 43 42 41 40
43 43 44 51 44 42 41 42 43 37 24 22 31 33 37 39 36 42 43 37 35 32 34 33 36 34 34 34 36 31 34 33 33 32 28 35 28 34 37 39 41 43 43 42 40
43 44 43 48 42 39 41 43 41 31 10 15 27 37 40 36 38 39 44 40 34 34 34 32 35 34 32 34 37 34 36 35 33 31 32 32 30 29 37 36 39 42 42 42 42
43 43 44 47 44 44 45 40 34 22 13 19 31 31 35 37 38 38 39 42 40 36 37 35 38 38 35 36 37 37 35 35 35 33 26 31 28 28 25 30 37 41 39 38 39
44 43 46 45 41 46 43 35 24 19 20 22 26 29 32 32 35 37 34 34 32 27 29 32 34 39 37 37 38 36 33 26 24 24 24 33 28 26 23 25 30 38 32 31 33
44 47 48 44 47 45 37 30 20 16 19 24 26 28 27 31 34 36 35 33 35 33 30 25 24 34 39 36 35 32 30 22 20 22 26 33 24 28 27 29 30 31 34 35 35
46 47 44 46 46 43 34 25 21 19 23 26 27 25 26 29 33 33 33 33 33 34 28 30 30 38 38 36 34 31 25 26 27 28 26 23 21 25 29 30 31 32 33 34 34
44 41 41 46 46 40 32 27 26 24 28 27 23 25 24 27 28 30 30 32 36 36 36 33 28 35 34 34 31 29 28 21 23 22 21 21 19 21 27 29 30 31 32 33 34
41 36 43 47 45 36 28 28 31 29 30 25 25 25 25 26 29 29 30 33 34 33 34 31 29 31 31 33 30 27 25 25 24 22 19 18 16 23 25 28 30 31 33 34 34
40 32 44 46 34 34 30 31 34 32 34 31 30 28 25 26 30 31 31 33 35 34 31 32 30 28 30 32 34 34 28 22 18 17 17 18 18 28 25 29 31 33 34 32 31
35 36 44 43 30 31 33 33 32 31 31 30 31 31 30 29 29 32 33 35 34 33 30 29 27 24 24 26 29 30 30 26 23 21 17 14 20 29 31 32 33 33 30 29 29
36 31 36 39 37 31 33 30 30 34 34 32 32 32 29 29 31 32 33 34 34 35 35 29 26 21 20 22 28 27 29 27 23 17 19 18 23 28 31 32 33 31 28 28 28
37 33 36 30 33 34 34 31 30 29 34 33 31 29 27 27 27 31 33 32 32 33 31 29 26 25 25 28 29 29 29 28 25 23 18 21 23 26 30 32 33 28 28 28 29
35 34 36 31 33 33 34 29 30 31 32 31 30 30 28 26 26 28 31 30 31 31 30 29 26 24 23 23 26 27 28 29 28 26 25 23 24 29 32 32 28 28 28 29 29
41 39 35 33 32 32 32 31 31 32 33 32 31 30 29 30 31 33 33 33 32 31 28 27 26 23 22 21 21 21 24 28 29 29 26 22 26 30 30 30 28 28 29 29 29

GFSSW_sfc_30mbdewp_078.txt.gz
Dewpoint
59 59 59 60 58 56 55 53 51 51 50 48 47 48 50 49 47 42 33 31 41 47 51 49 47 46 44 39 43 43 36 30 26 25 26 29 34 37 38 36 36 40 43 44 54
56 57 58 58 59 57 55 52 51 51 49 47 46 48 50 48 43 37 35 44 47 51 41 41 40 43 41 40 35 36 31 28 27 27 26 27 35 36 37 36 37 41 44 54 58
53 55 56 57 60 57 55 52 51 49 49 47 48 49 49 46 34 25 48 48 49 48 43 42 43 40 36 38 37 30 30 28 29 31 31 29 33 35 36 36 36 38 43 54 56
51 52 55 56 59 57 55 53 51 49 50 47 46 50 47 41 21 38 47 44 50 46 42 40 40 36 32 31 35 35 32 28 29 32 34 33 33 35 38 34 37 40 47 52 55
47 49 53 53 58 57 55 53 49 48 48 46 46 48 41 36 31 36 44 45 46 44 37 35 35 33 29 27 31 31 31 32 30 33 36 37 35 35 36 38 36 39 44 52 55
44 45 52 53 59 56 54 51 48 47 48 46 46 47 39 33 30 39 41 44 41 42 38 37 33 35 33 32 31 30 32 32 33 34 36 34 36 38 37 36 39 39 42 51 54
44 44 49 51 58 56 53 50 48 46 46 46 46 45 40 36 32 38 36 39 39 38 36 37 37 36 34 31 33 36 34 33 32 32 36 34 35 37 40 41 39 40 43 49 53
43 44 46 50 56 53 52 51 48 47 45 46 47 43 36 33 37 39 38 37 38 39 39 38 39 37 36 35 34 33 33 31 30 31 32 36 29 32 38 42 40 39 42 48 53
43 43 44 48 55 52 51 49 47 46 45 47 43 40 29 36 36 38 39 36 39 39 40 40 40 37 35 33 31 33 28 29 27 28 30 35 33 34 40 43 40 39 43 50 54
43 43 44 47 52 51 49 47 46 47 46 44 41 34 32 27 34 38 41 40 38 38 37 37 37 33 32 32 23 29 27 27 25 28 30 31 33 41 42 41 41 42 45 49 50
44 43 44 47 51 50 47 47 38 37 40 32 32 29 30 34 41 37 40 40 39 36 30 34 31 28 27 34 35 32 31 30 27 33 31 37 35 38 40 43 42 44 46 49 51
44 43 42 46 51 48 44 41 36 36 31 37 36 34 35 34 33 37 41 36 33 28 33 31 28 29 34 36 34 32 31 33 37 38 33 37 36 37 39 42 43 43 44 49 51
44 44 43 44 50 47 41 40 43 40 30 33 35 33 33 35 34 35 38 36 33 29 30 30 29 35 37 33 31 31 32 33 33 37 37 36 35 36 38 42 45 44 44 45 47
44 44 44 44 46 44 41 42 43 38 28 27 33 33 37 38 35 39 41 37 34 30 32 32 36 35 36 32 35 31 35 35 33 32 30 36 27 32 36 41 44 43 43 45 45
43 44 43 44 44 41 39 43 41 35 18 25 31 37 38 35 38 38 42 38 34 33 34 32 34 34 33 33 37 33 37 34 34 30 33 32 30 31 38 39 41 43 44 45 45
43 43 44 43 45 44 44 42 36 26 17 21 31 32 35 37 36 37 38 40 39 35 36 35 37 37 35 36 38 38 34 34 34 31 28 31 32 29 29 27 37 39 40 39 39
44 43 43 44 40 46 44 38 27 22 22 25 28 31 32 31 35 36 35 33 32 29 29 32 35 36 36 36 39 37 31 27 25 27 26 33 28 29 27 27 31 38 35 38 38
45 45 43 45 46 45 42 32 23 23 21 26 27 29 29 33 32 33 32 31 34 33 29 28 27 33 38 37 35 33 31 24 19 24 26 27 26 28 29 32 37 37 37 36 37
48 47 43 46 47 44 36 27 25 24 23 26 28 26 27 31 32 33 33 32 34 35 31 30 29 38 38 37 35 31 28 27 28 30 22 26 25 28 30 32 35 37 37 37 35
42 41 42 47 46 41 33 29 27 23 27 28 24 25 24 28 28 31 32 35 36 37 36 33 29 34 34 34 32 29 27 25 28 21 20 23 21 24 28 30 31 32 34 35 35
40 35 43 47 44 37 29 30 31 28 30 26 25 25 25 27 28 28 32 36 36 34 34 32 29 30 32 32 31 28 25 25 24 24 18 18 21 25 28 30 31 32 33 32 32
40 31 42 46 32 34 31 31 32 32 34 31 30 26 26 28 30 30 31 34 34 34 31 32 30 29 29 32 33 34 28 23 20 18 20 18 19 27 28 31 32 32 31 29 29
36 36 45 43 29 31 34 33 32 31 31 30 30 30 29 30 28 32 33 35 35 34 31 29 28 27 26 27 30 29 27 25 23 23 19 17 20 27 29 31 33 31 29 28 28
37 30 35 37 38 29 34 30 28 34 33 32 32 31 29 29 32 32 32 34 34 35 34 30 27 25 21 25 29 27 27 27 24 22 18 18 23 27 30 31 33 30 28 28 29
38 33 36 30 34 34 34 30 28 29 34 32 30 28 27 27 29 31 32 31 32 33 31 30 28 27 26 27 29 29 29 28 25 23 20 21 22 27 30 31 33 29 28 29 29
35 35 37 33 35 33 33 28 29 32 32 30 28 29 28 26 27 28 30 30 31 31 30 30 27 26 25 24 27 27 29 29 27 26 24 23 24 27 31 33 30 28 29 29 29
41 40 35 32 32 34 33 31 31 32 33 33 30 29 29 31 32 33 33 32 32 31 28 28 28 27 24 22 22 21 23 27 29 29 26 22 27 30 31 31 30 29 29 29 30

GFSSW_sfc_30mbdewp_081.txt.gz
Dewpoint
54 55 57 58 58 59 57 56 54 52 51 50 48 47 50 50 48 44 38 35 36 44 50 48 44 42 41 35 34 37 35 29 24 22 21 21 22 25 28 31 33 33 33 37 53
51 52 53 56 57 57 59 56 53 51 51 49 47 48 50 49 43 36 36 39 43 50 44 40 38 40 39 36 33 33 30 27 25 23 22 22 22 23 27 30 33 34 35 38 57
48 50 50 52 56 56 59 56 52 50 49 49 47 50 49 47 36 25 49 43 48 46 39 37 38 36 33 35 36 30 26 23 24 24 25 25 24 24 27 29 32 33 36 41 53
46 47 49 50 54 54 58 56 53 50 50 49 46 50 48 41 24 36 49 47 50 41 37 34 33 32 28 26 32 30 30 29 25 24 27 29 30 27 27 29 31 34 37 44 49
46 45 46 49 52 54 58 56 53 49 49 47 46 48 44 37 33 39 45 45 45 40 34 30 29 28 26 23 23 24 26 27 28 30 27 28 30 29 29 31 32 36 38 41 49
41 45 42 48 48 52 57 55 50 48 49 47 46 47 40 33 30 32 36 38 39 39 34 34 30 30 29 27 25 24 24 25 27 27 30 27 28 30 32 31 32 35 36 39 41
42 44 44 44 46 51 56 51 50 48 48 47 46 44 39 34 30 33 36 36 36 36 34 34 33 31 30 28 29 28 27 29 27 30 29 31 30 28 30 32 34 33 37 37 42
41 42 42 44 47 51 52 51 50 47 46 46 46 41 35 34 32 30 29 30 34 36 36 36 35 33 32 32 31 28 28 28 27 29 31 31 29 26 28 32 35 36 36 37 40
42 43 44 44 47 54 51 51 49 47 46 47 43 40 31 36 30 30 35 33 33 35 36 35 35 34 33 31 28 28 24 25 26 29 29 31 28 28 28 29 34 37 38 38 41
44 44 45 44 49 52 51 48 47 46 45 43 40 37 30 26 32 33 35 36 36 35 35 37 36 31 30 28 21 24 29 28 26 28 29 28 27 32 38 39 32 37 37 39 45
42 43 45 44 46 52 48 45 38 38 40 34 33 26 24 31 36 35 38 39 38 35 30 32 30 29 27 28 27 30 30 30 33 28 26 26 27 28 39 40 41 36 36 41 47
44 44 45 44 45 50 47 39 37 39 32 36 32 30 32 33 32 35 39 35 32 28 29 29 28 26 30 29 31 31 30 31 33 31 30 24 29 28 38 39 41 42 40 44 52
44 44 45 44 46 48 41 40 44 42 31 34 33 31 31 34 32 33 38 33 31 26 25 26 27 30 35 34 33 32 30 31 32 34 33 33 35 36 36 38 40 44 45 49 51
44 44 44 44 45 45 41 41 45 41 32 30 32 32 35 35 34 37 39 38 33 29 30 30 30 35 35 32 32 29 33 34 34 31 28 32 26 34 35 36 43 43 45 47 49
43 44 44 44 40 40 42 42 45 38 23 29 31 36 36 33 37 38 42 38 33 32 34 32 33 35 34 33 38 34 35 34 34 33 33 32 28 32 35 37 43 45 46 46 47
44 44 44 43 42 41 44 44 40 29 22 23 31 32 33 34 36 37 39 39 38 36 36 34 36 36 36 35 37 38 36 36 35 35 28 32 30 29 30 32 35 41 41 41 42
44 44 44 43 38 43 43 40 28 25 23 25 27 31 32 31 35 36 33 34 32 29 29 30 34 36 37 35 37 38 33 28 27 27 25 32 27 29 34 32 35 39 40 41 42
45 45 43 41 42 45 41 32 24 26 20 25 28 30 32 31 32 33 31 31 33 31 30 29 28 34 38 37 33 36 30 27 23 25 26 30 26 29 36 38 39 38 39 40 40
47 45 42 43 44 44 36 26 28 25 24 26 28 27 29 30 32 33 33 31 33 36 31 30 30 38 38 36 35 31 28 28 26 23 22 28 31 34 36 36 37 37 37 37 39
41 42 40 43 46 42 32 30 29 24 26 27 24 27 23 28 30 31 29 34 35 37 37 35 30 36 34 34 33 30 27 27 28 22 20 23 25 27 33 34 36 37 37 37 36
37 36 44 47 44 36 29 31 27 28 28 26 24 24 25 26 27 28 32 36 35 33 34 32 32 29 32 31 30 29 24 23 23 23 17 18 23 27 29 32 33 35 36 35 35
36 30 44 43 32 33 32 32 28 30 31 29 28 25 25 27 28 29 32 35 34 34 30 31 30 28 28 31 32 32 24 22 21 20 20 20 22 27 30 31 32 31 30 29 29
35 34 42 43 30 32 33 30 29 28 30 30 28 29 28 28 28 30 32 33 34 33 31 28 27 28 26 28 29 27 25 24 23 24 19 19 22 27 30 31 31 30 29 29 29
38 30 36 37 38 31 28 24 27 33 32 32 30 29 28 29 30 30 31 33 33 34 33 31 27 27 24 27 29 26 25 23 25 22 15 20 23 26 29 31 31 29 29 29 29
38 34 36 32 31 34 30 25 26 29 32 31 28 26 26 27 28 29 29 30 31 32 31 30 28 27 25 27 28 27 26 24 23 21 19 21 22 26 29 31 32 30 29 29 29
36 34 35 33 35 33 29 24 26 30 31 27 26 26 26 27 27 27 26 26 29 28 29 30 28 28 24 24 26 26 27 26 26 24 22 22 24 27 30 31 31 29 29 29 30
41 40 34 32 34 30 26 26 29 31 32 30 28 29 31 32 31 31 31 30 30 29 28 28 29 29 24 23 23 20 23 26 28 28 26 21 27 28 31 32 30 29 30 30 30

GFSSW_sfc_30mbdewp_084.txt.gz
Dewpoint
48 49 51 52 53 55 58 59 57 55 53 52 50 48 48 51 50 47 43 39 38 44 48 46 45 40 40 36 34 35 34 31 30 26 25 24 22 22 23 25 26 28 31 33 58
47 48 49 49 51 53 56 56 58 55 52 51 49 48 50 50 45 40 38 41 40 46 47 43 38 41 38 36 34 32 31 31 29 27 25 24 23 23 22 22 25 29 33 39 60
45 47 46 47 48 52 55 55 59 54 52 50 49 49 50 48 40 38 43 42 45 49 41 38 37 36 34 35 34 32 30 29 26 25 26 25 24 25 27 24 24 29 33 34 51
43 43 47 46 45 50 51 54 58 53 50 51 48 49 49 45 28 44 50 48 50 41 36 33 32 32 30 27 33 31 31 30 30 29 28 24 25 26 29 29 29 29 31 40 46
43 42 46 44 45 45 48 53 57 53 50 51 47 49 46 39 34 46 47 48 46 38 33 30 27 27 26 25 24 24 26 25 26 27 27 29 29 25 28 30 31 31 31 38 44
44 44 42 44 44 45 50 52 56 51 50 49 47 48 43 32 32 39 40 40 38 39 34 32 30 30 28 27 27 27 26 26 26 26 27 27 27 29 26 31 31 31 32 36 39
45 44 42 44 45 46 49 54 52 50 51 49 47 45 39 34 30 33 34 33 36 36 34 33 32 30 30 29 29 29 27 29 28 26 26 28 27 29 29 28 29 32 32 33 40
44 44 44 45 46 46 52 53 50 49 50 48 47 42 35 35 33 31 31 29 31 34 34 35 35 34 32 31 31 29 30 26 26 27 28 27 26 29 32 31 28 30 33 35 37
45 44 44 45 45 51 54 52 50 48 47 47 44 40 34 35 27 28 27 29 33 33 35 34 33 32 32 31 29 29 25 25 26 26 27 27 26 29 30 29 27 29 33 36 39
44 44 45 45 45 46 53 51 48 47 46 44 40 37 35 26 31 32 33 33 33 34 33 35 35 33 32 30 21 23 25 30 29 30 32 28 28 28 31 34 36 28 32 37 39
44 44 45 45 45 48 48 46 40 39 42 37 35 27 27 31 33 33 36 38 37 33 31 34 32 28 28 30 29 28 27 27 29 30 34 32 30 28 33 38 40 41 40 37 41
44 44 45 44 45 45 49 40 41 43 37 39 34 29 30 32 33 34 38 34 33 29 30 31 30 28 28 34 33 32 29 29 31 33 34 34 29 29 31 37 39 42 43 44 48
45 44 44 45 45 48 44 43 46 44 37 36 35 30 30 33 31 35 37 33 30 29 29 30 27 34 34 34 32 32 29 31 30 34 35 30 26 28 35 37 38 41 45 47 48
45 44 44 45 43 44 42 45 46 44 32 31 32 31 34 34 33 37 38 37 34 28 34 33 33 30 31 34 34 28 33 32 32 31 26 33 24 31 35 35 37 43 45 48 51
44 45 44 45 42 38 43 46 45 40 20 31 31 35 34 34 37 38 41 38 32 32 35 29 33 34 34 35 36 32 36 33 35 33 32 31 30 31 35 35 36 44 46 47 48
44 43 45 43 44 42 45 44 41 28 20 25 32 31 33 33 35 38 38 39 38 36 36 35 35 36 34 35 37 37 36 35 34 33 25 30 30 28 31 33 35 41 43 45 46
46 44 43 42 38 46 45 38 26 22 25 25 27 31 30 31 34 34 33 33 32 29 29 32 35 37 37 35 37 37 34 28 25 26 24 33 27 29 35 36 37 40 41 43 45
47 45 44 42 44 43 40 32 22 23 23 26 29 31 29 31 32 35 33 32 34 32 31 29 28 35 38 35 36 34 34 27 22 24 25 30 25 29 36 39 39 40 41 41 42
48 45 43 42 45 43 35 24 27 26 25 27 29 28 29 30 31 32 32 34 33 37 30 29 30 38 38 38 34 32 32 33 32 28 27 28 30 34 36 37 38 38 39 40 40
43 40 41 43 45 41 32 29 27 26 27 28 25 26 24 27 30 32 33 34 34 38 38 35 30 36 34 38 35 31 29 27 31 25 22 26 29 29 33 34 37 37 37 37 38
38 37 42 45 42 36 28 30 28 29 30 27 24 26 26 28 34 31 32 35 36 37 37 34 34 29 32 31 30 28 24 24 24 23 20 21 26 31 37 37 37 37 36 33 34
36 32 44 42 33 33 31 34 28 29 31 29 27 29 29 28 31 31 32 35 34 34 30 30 31 27 27 30 31 32 25 22 22 20 23 23 23 30 32 32 31 30 31 29 29
35 35 41 43 30 31 35 29 32 29 30 29 28 28 29 29 31 31 31 33 34 33 31 30 27 28 26 28 30 26 24 26 25 27 20 22 23 30 31 30 29 28 28 29 29
37 31 37 39 39 34 27 27 30 33 31 30 29 29 29 29 30 29 31 32 33 33 33 33 28 27 25 27 29 26 25 24 25 21 22 23 25 29 31 30 29 29 29 29 30
38 34 36 32 33 31 26 28 29 28 30 29 27 26 26 27 28 28 29 32 31 31 31 31 26 27 25 27 28 27 26 25 23 20 21 24 25 29 31 31 30 29 29 29 30
36 35 37 33 34 28 27 28 28 30 30 26 27 29 30 28 28 26 27 28 29 28 29 30 26 28 23 25 25 24 26 27 27 25 23 25 25 29 31 32 30 29 29 30 30
41 40 34 33 32 25 26 28 31 31 31 33 31 32 31 31 30 30 29 28 28 28 28 29 29 30 22 23 23 22 23 26 28 28 27 25 27 29 30 32 30 29 30 30 30

GFSSW_sfc_30mbdewp_087.txt.gz
Dewpoint
47 47 48 48 48 51 52 55 57 59 56 54 52 50 48 49 51 49 45 44 43 44 47 47 45 43 40 37 37 34 34 32 32 31 31 29 26 26 25 23 23 25 27 44 59
45 45 47 48 46 47 48 53 56 56 57 53 51 49 48 51 48 45 45 44 45 44 46 46 44 40 38 37 36 31 31 31 33 31 29 27 26 25 25 25 27 27 33 59 60
45 43 44 44 47 45 48 50 52 55 56 54 51 49 50 50 44 40 42 43 42 45 49 40 38 37 36 36 35 34 30 30 30 31 31 29 27 26 24 25 29 29 30 50 59
47 45 44 44 43 46 44 46 48 54 55 53 50 49 50 47 31 45 42 43 47 47 39 34 34 34 32 30 33 32 33 33 32 31 30 28 28 27 29 27 27 30 31 37 55
46 46 46 44 43 43 44 47 50 54 55 53 50 49 47 42 39 49 49 50 46 40 35 31 29 28 27 27 28 27 29 31 30 28 28 27 27 27 27 31 29 28 32 37 46
47 46 44 44 44 45 45 47 50 53 53 52 49 49 44 36 46 48 47 50 44 39 35 32 30 31 29 27 28 29 30 29 29 28 27 26 25 27 28 29 31 28 29 32 38
47 46 45 44 45 45 47 51 51 55 53 50 49 46 41 37 36 44 39 41 39 39 35 34 34 31 31 28 30 31 29 30 28 29 29 28 25 24 28 29 30 30 28 30 33
46 45 45 45 45 45 46 54 55 52 51 50 49 44 37 38 33 33 34 33 33 34 35 35 35 34 32 32 30 28 29 26 26 28 30 29 24 23 27 29 28 30 31 29 32
44 45 45 45 45 46 50 52 53 52 50 48 45 43 35 34 30 31 30 29 29 32 34 34 34 32 32 29 28 30 23 24 24 29 30 30 27 26 27 27 30 30 30 29 32
45 45 45 45 45 49 52 51 51 49 46 45 43 38 36 29 29 27 30 33 33 34 32 34 34 32 31 29 20 22 25 25 26 28 29 30 32 34 28 30 29 28 29 29 33
45 45 45 45 45 45 45 45 40 39 44 40 37 34 33 33 33 32 36 36 36 32 29 35 30 27 29 30 29 27 26 25 27 28 30 32 34 34 30 31 35 36 37 37 41
45 45 45 44 45 45 45 41 42 43 36 42 40 33 33 33 33 35 39 36 34 29 30 31 28 30 30 29 29 31 30 28 29 30 34 34 33 35 32 33 36 39 42 44 47
45 45 45 44 45 46 43 44 47 47 36 38 39 33 30 33 33 36 38 36 32 29 29 29 28 31 31 31 31 31 30 29 28 30 35 33 32 31 31 37 39 40 44 46 47
45 45 45 44 42 43 42 46 45 47 32 33 34 31 33 33 35 38 39 36 34 30 33 32 34 32 32 32 33 29 35 34 33 31 24 33 21 29 34 35 38 44 45 46 48
44 44 45 44 41 39 43 47 47 42 19 32 32 35 34 35 36 38 40 36 31 31 34 26 32 32 32 34 36 32 36 35 33 31 31 30 28 31 34 33 36 42 46 46 48
45 44 44 43 43 44 46 44 41 27 19 30 34 32 32 35 36 39 39 39 38 35 35 33 36 35 35 36 36 37 37 35 35 32 26 26 28 28 31 33 36 40 44 46 47
46 44 43 43 39 45 43 38 23 20 29 27 30 32 30 32 34 34 34 33 31 29 29 31 34 37 37 34 37 37 32 26 24 23 24 32 28 29 35 36 37 40 41 43 44
47 45 43 44 46 43 40 29 19 27 23 27 29 31 31 33 32 35 32 30 34 33 30 28 26 35 38 35 34 35 33 26 21 22 25 29 25 29 36 39 40 41 41 42 42
45 44 42 43 44 42 32 23 25 27 26 28 31 30 29 31 30 32 31 33 34 36 30 29 29 38 38 38 36 33 31 35 31 29 27 28 30 33 35 37 38 39 39 40 40
41 40 41 45 44 39 29 28 29 27 30 32 27 28 25 29 29 31 32 34 35 38 37 35 29 34 36 37 36 33 32 27 30 24 22 27 28 28 31 33 36 36 37 38 39
38 34 42 44 42 35 27 30 33 36 35 33 26 27 26 31 32 33 31 34 36 36 38 36 34 30 34 30 28 30 26 26 25 25 21 20 26 37 35 36 35 35 36 36 37
37 30 43 44 33 33 31 33 35 33 32 29 29 30 29 32 33 32 32 35 37 34 33 34 30 28 26 30 31 31 27 24 22 20 23 23 26 36 36 35 34 33 31 30 32
35 36 41 41 27 30 35 33 33 31 31 30 28 29 30 32 29 31 32 33 34 33 31 30 27 26 26 25 28 27 25 25 27 24 23 21 26 31 30 31 33 31 30 29 29
37 30 35 38 38 33 30 29 30 33 31 30 29 29 29 30 31 30 31 32 33 32 33 33 27 26 23 26 29 26 26 26 24 20 23 24 28 30 29 28 28 28 29 30 30
36 32 35 31 34 35 30 31 30 30 31 28 27 28 27 28 28 28 30 31 32 31 31 30 25 25 25 28 26 26 27 27 25 23 21 26 28 30 30 29 28 29 29 30 30
34 34 36 33 34 29 29 31 30 31 31 31 31 31 30 29 28 26 28 28 28 29 29 31 23 28 22 25 22 21 25 27 27 26 25 26 27 31 32 31 29 29 29 30 30
40 39 34 33 31 28 30 32 31 31 32 33 32 31 30 30 31 32 29 28 28 28 27 28 28 29 18 24 23 18 22 26 28 28 27 25 27 31 32 30 29 29 30 30 30

GFSSW_sfc_30mbdewp_090.txt.gz
Dewpoint
46 47 46 46 49 46 48 49 53 57 57 57 55 53 51 49 51 50 44 45 46 45 46 46 45 43 40 37 37 34 34 32 32 31 32 30 28 28 27 25 26 26 30 54 60
47 48 46 44 45 47 46 47 50 54 55 58 55 52 49 50 49 45 47 49 46 45 45 45 43 40 37 37 36 32 31 31 34 32 30 29 29 29 27 27 26 28 31 42 59
48 48 48 45 45 44 44 46 45 49 52 57 55 50 50 50 42 41 46 48 46 44 47 45 40 40 38 37 36 33 29 31 30 30 32 32 31 30 28 26 27 27 28 30 39
48 48 47 47 47 43 43 44 46 47 51 56 54 50 51 47 27 44 45 47 44 48 44 35 36 33 31 30 33 32 33 33 33 33 32 30 30 28 28 27 29 30 30 30 36
47 48 47 46 45 44 45 45 45 47 50 56 52 50 47 41 37 46 45 46 46 41 35 31 30 31 29 28 28 27 28 31 30 29 28 27 26 26 26 28 30 30 30 30 33
46 48 47 46 45 44 45 45 47 48 50 56 52 50 44 32 45 48 50 45 41 37 34 31 30 31 29 28 28 30 31 30 31 30 30 28 27 26 25 27 27 28 29 31 31
45 45 46 46 45 45 46 46 47 49 51 55 52 46 41 36 47 49 50 46 42 38 35 36 35 30 32 28 31 31 27 28 27 27 27 29 26 25 26 25 26 27 29 31 32
45 45 46 46 45 45 48 51 53 52 54 52 50 43 34 39 43 41 37 36 38 36 35 36 35 33 32 32 29 26 28 24 26 28 28 29 23 26 28 26 24 26 30 30 31
46 46 45 46 45 46 48 54 55 55 52 52 46 41 35 35 33 34 33 32 30 32 34 34 34 31 31 27 26 29 22 24 25 27 28 30 28 31 32 33 27 25 26 30 31
45 46 46 46 45 47 47 51 51 52 49 46 43 37 37 31 30 31 29 31 33 32 33 33 34 30 30 28 16 20 23 25 25 28 27 27 28 30 32 35 33 28 31 29 30
45 45 46 45 45 46 44 43 39 39 44 39 38 37 36 33 33 34 36 36 35 32 28 35 29 26 27 29 27 25 26 26 27 28 28 28 29 32 34 35 31 32 35 36 35
45 45 45 45 45 46 44 37 41 42 34 42 38 33 32 33 32 36 38 34 34 29 29 31 27 29 29 30 30 29 28 26 29 29 32 32 32 32 34 35 32 34 38 41 45
46 46 45 45 45 45 42 41 47 46 36 37 39 31 32 34 34 36 38 36 33 30 29 27 26 31 30 30 29 29 28 27 29 32 32 30 29 30 33 35 39 42 44 45 46
44 45 45 44 41 43 40 46 47 45 31 32 35 34 32 33 35 38 38 36 33 29 30 30 32 31 30 30 31 28 31 34 33 31 24 32 19 31 34 35 38 42 45 46 49
45 45 45 43 40 39 41 47 47 42 18 33 34 36 34 35 37 38 40 35 32 31 33 25 31 31 32 32 35 31 36 36 34 30 30 29 26 26 33 32 35 39 43 45 48
45 44 44 43 42 43 46 45 42 25 17 30 34 32 33 35 37 39 37 39 37 34 34 31 35 35 33 36 36 35 35 36 34 32 23 26 25 27 31 33 35 39 42 44 47
44 42 42 44 38 45 43 37 22 18 31 28 31 31 32 33 34 35 35 31 30 27 25 29 32 36 37 34 37 36 32 25 23 23 23 31 27 29 34 36 37 40 41 42 43
44 44 45 45 45 43 39 27 17 27 24 30 31 30 29 33 33 33 32 30 33 33 30 28 24 35 38 35 34 35 32 27 21 21 24 32 25 29 36 38 40 41 41 42 41
44 42 42 44 44 41 32 24 24 27 28 29 33 30 30 32 29 33 31 31 33 35 29 29 28 36 38 38 38 34 31 35 30 29 25 28 30 33 35 37 38 38 39 39 40
39 39 40 45 44 38 29 27 28 31 31 32 27 28 26 29 28 31 31 33 35 37 36 35 29 34 34 38 37 36 34 29 30 24 21 25 28 27 31 32 34 36 36 38 39
37 34 39 44 42 34 28 30 33 37 34 32 28 27 26 31 31 31 30 33 36 37 37 36 33 28 33 31 28 31 30 29 26 28 24 19 25 35 32 33 33 34 37 37 38
36 28 40 43 31 33 31 33 36 35 36 34 30 29 30 33 33 32 31 34 37 36 33 35 30 27 27 29 31 31 29 25 21 20 23 22 25 38 37 37 36 34 34 36 37
35 35 39 41 28 30 33 35 35 31 31 30 28 29 32 32 29 32 32 34 35 34 31 30 27 25 24 20 27 27 27 27 26 24 23 19 23 34 36 35 35 33 31 32 31
35 27 33 37 37 33 31 28 30 32 30 30 30 30 29 30 31 30 31 32 33 32 33 32 27 26 21 26 28 25 27 27 23 20 23 24 28 29 29 31 32 30 29 30 30
34 31 34 30 32 34 34 31 30 30 31 32 29 30 28 28 28 28 29 30 31 32 31 29 23 25 25 28 25 25 26 27 24 24 20 26 27 30 29 28 28 29 30 30 30
32 32 36 33 33 29 30 31 30 31 31 31 30 31 30 28 29 26 28 28 28 29 28 30 23 28 22 24 23 20 25 27 27 27 27 27 27 31 31 30 29 29 29 30 30
40 39 34 31 28 30 31 32 31 31 32 33 32 30 29 30 32 32 32 29 28 28 27 28 27 28 15 23 24 15 21 26 27 28 27 25 27 31 31 30 29 29 29 30 30

GFSSW_sfc_30mbdewp_093.txt.gz
Dewpoint
47 48 49 49 46 46 49 46 48 51 55 57 58 56 53 50 51 50 41 43 45 46 46 45 44 42 40 36 36 36 32 28 31 32 31 31 29 29 28 26 27 27 33 40 58
47 48 49 49 46 44 46 45 45 48 49 54 55 56 52 50 49 45 46 49 49 45 44 44 42 40 37 37 35 33 31 29 34 33 30 30 31 31 29 29 28 27 29 30 33
46 47 48 49 49 49 46 43 44 46 46 52 56 56 50 50 40 35 47 49 47 44 47 44 41 40 37 36 35 32 29 31 31 31 32 33 31 31 29 27 27 27 28 30 30
44 46 47 48 48 48 47 45 45 45 47 52 55 52 52 45 31 43 46 50 47 47 41 36 36 34 32 30 32 32 33 33 33 33 31 31 30 27 27 28 29 29 30 30 30
44 46 47 48 48 47 46 45 46 46 46 50 54 53 47 40 34 45 48 48 46 42 35 31 32 32 29 29 28 27 29 31 31 31 30 29 28 27 26 27 27 29 29 29 31
43 46 46 47 47 46 46 46 46 46 47 49 55 50 42 35 42 45 46 44 40 36 32 31 30 31 29 28 27 29 31 29 30 29 30 28 26 27 26 26 26 26 26 28 31
43 45 45 46 46 46 45 45 47 48 47 49 54 47 42 36 48 50 46 42 40 37 35 35 34 30 31 28 31 30 25 27 25 25 26 28 24 26 26 26 26 26 25 24 30
45 46 46 46 46 45 46 47 50 52 50 50 51 45 38 42 49 48 44 43 39 37 36 36 34 33 31 31 29 26 27 22 24 28 27 25 19 23 26 26 28 29 29 29 29
44 46 45 47 46 46 47 46 53 54 52 53 46 40 36 44 43 37 36 33 32 34 34 35 33 31 31 26 23 26 18 23 25 27 28 29 27 30 30 30 30 32 33 29 28
44 44 46 47 45 46 46 45 49 48 47 47 44 37 37 35 33 32 32 32 31 33 34 34 34 30 30 26 8 16 21 23 24 26 26 25 25 27 30 31 33 35 36 31 30
45 46 46 46 45 46 41 40 39 39 42 38 37 39 35 34 33 32 36 36 34 32 28 34 28 23 25 27 25 22 23 24 26 28 28 28 29 30 31 34 34 35 33 33 36
45 45 46 45 45 46 43 36 39 42 36 41 40 37 32 33 32 36 36 32 32 28 30 31 26 28 29 28 28 28 27 25 27 29 32 31 31 32 32 32 35 34 36 38 43
45 45 45 45 46 44 41 39 47 46 34 37 37 35 32 33 33 35 35 36 32 30 28 25 24 31 29 29 29 28 27 27 27 31 34 33 28 30 34 37 40 43 44 46 47
45 44 45 44 41 43 41 46 47 46 30 30 34 32 32 36 35 39 38 35 33 29 30 29 30 29 30 30 29 27 29 30 30 31 25 30 20 27 33 35 37 41 44 45 47
45 44 45 41 40 39 44 47 47 43 17 33 35 38 33 36 37 38 40 35 32 32 31 26 30 31 31 31 32 30 33 34 34 32 29 28 24 25 32 31 35 39 42 44 47
45 45 43 40 41 43 46 46 44 23 18 30 33 32 34 35 38 38 37 38 37 33 33 32 33 34 33 34 34 34 34 34 34 31 24 24 24 23 30 32 35 39 41 43 44
43 45 43 44 39 45 43 38 21 18 31 29 31 32 32 33 34 34 34 31 29 26 24 29 31 33 36 34 36 35 32 24 23 23 20 31 25 27 33 36 38 39 40 41 42
45 44 45 45 43 41 37 25 19 27 28 32 29 31 29 32 32 33 32 30 32 33 30 28 23 34 37 34 34 34 32 26 20 21 24 32 26 28 36 38 40 40 40 40 40
42 41 41 44 44 40 29 23 24 28 29 29 31 28 28 32 31 32 31 31 34 33 30 29 27 34 37 37 37 35 31 36 29 30 25 27 31 33 36 36 37 37 37 38 39
36 38 37 43 44 37 29 27 30 33 33 33 26 27 26 30 27 30 29 32 34 36 36 34 29 32 34 38 38 37 38 29 30 23 21 25 28 28 31 32 33 34 35 37 39
36 31 35 42 41 35 28 31 34 37 35 32 28 26 28 29 30 30 30 32 35 38 36 35 33 27 33 32 29 33 32 33 30 30 24 20 25 36 32 32 32 35 36 38 38
35 28 35 42 31 33 32 35 36 34 36 34 31 29 29 32 31 32 31 32 36 37 34 35 31 26 26 29 31 31 28 28 22 20 23 22 26 37 37 36 36 36 37 38 38
33 33 37 38 28 30 32 34 35 32 31 30 28 29 33 32 30 32 32 34 37 34 32 31 27 25 18 19 27 27 27 28 26 24 22 19 23 35 36 36 35 34 35 36 35
32 26 32 36 34 33 31 30 30 32 31 30 31 30 30 30 31 30 30 32 33 32 33 32 27 25 20 25 27 24 25 28 23 20 22 23 27 30 31 34 34 31 29 30 30
33 30 34 29 31 32 33 31 30 30 32 32 30 30 28 27 27 27 28 29 31 31 32 29 23 25 25 26 26 23 25 27 25 25 20 25 26 29 29 31 32 30 30 30 30
32 32 34 31 32 29 31 31 30 31 31 30 30 30 29 28 29 26 28 27 27 28 29 30 22 28 22 24 24 23 21 26 27 26 27 27 26 31 31 29 28 29 29 30 30
39 39 34 30 29 29 32 32 31 31 32 33 32 29 28 30 32 32 32 31 28 27 26 28 26 26 14 23 23 16 19 25 27 28 27 23 26 31 30 29 29 29 29 30 30

GFSSW_sfc_30mbdewp_096.txt.gz
Dewpoint
45 46 48 49 50 48 46 46 47 45 49 52 54 57 56 52 51 49 41 40 46 45 48 44 42 40 38 36 35 37 27 23 27 31 29 31 29 31 31 28 28 28 31 32 31
46 45 47 47 49 49 48 47 45 44 46 48 51 55 55 51 48 44 45 49 48 45 43 42 40 38 36 36 35 33 26 23 33 33 31 30 32 31 30 28 29 28 29 29 31
48 46 46 47 48 49 49 49 45 45 45 46 51 54 53 49 37 34 46 50 48 45 46 41 41 39 36 35 35 32 26 31 31 32 32 32 31 31 29 26 27 27 28 29 30
47 45 45 46 47 49 49 49 46 47 47 46 50 55 52 44 35 42 47 50 48 45 38 36 36 34 32 30 31 30 33 33 33 31 30 28 30 28 28 28 29 29 29 29 30
45 44 44 46 47 48 49 48 46 46 46 47 52 55 44 40 35 43 50 50 45 39 34 34 33 32 28 29 27 27 29 31 31 30 29 30 28 28 27 28 28 28 28 29 28
45 44 44 46 47 47 48 47 47 46 46 47 51 54 42 40 43 47 45 42 39 34 32 31 30 30 29 28 26 30 30 29 28 26 27 25 24 26 24 26 24 25 25 26 27
44 44 45 46 47 46 46 46 46 46 48 47 51 48 41 39 49 46 44 40 38 36 34 35 32 30 30 27 30 29 23 25 23 24 25 25 19 24 24 26 26 26 27 27 28
45 45 46 45 46 46 46 46 47 49 48 48 51 46 41 48 48 44 42 38 37 37 35 35 34 33 30 31 27 25 25 15 19 27 28 25 18 21 29 29 28 29 30 31 32
45 44 44 45 46 46 47 47 45 52 52 48 48 43 40 49 47 38 39 35 34 35 36 36 33 31 30 25 19 23 12 21 22 27 28 27 25 29 30 28 28 29 30 33 35
45 45 46 46 46 46 44 45 44 50 49 47 46 38 41 42 39 32 34 33 32 34 33 34 33 29 28 23 6 16 19 22 22 24 26 26 25 27 28 29 30 31 33 35 36
46 46 46 45 46 42 40 39 36 39 42 39 40 37 38 43 34 33 36 35 33 31 28 33 26 17 23 26 22 23 24 24 25 27 27 27 28 29 31 32 33 34 34 35 35
46 45 45 45 46 43 41 34 35 42 34 41 38 37 36 36 32 35 36 32 31 28 31 28 23 27 28 28 27 27 26 25 26 28 30 31 31 33 32 33 36 41 42 43 45
45 45 45 45 46 43 40 38 44 46 33 36 38 38 38 38 32 33 35 34 30 28 28 23 24 30 29 28 27 27 26 26 26 29 32 32 27 25 34 37 38 42 44 45 46
44 44 44 44 41 43 41 46 47 46 28 30 35 36 34 35 33 39 39 34 32 27 29 28 30 29 30 29 29 26 29 29 29 30 26 29 21 23 31 34 34 40 42 44 46
45 45 45 42 40 40 43 46 47 43 16 31 34 37 37 36 36 36 40 35 32 32 30 25 29 31 30 29 30 27 31 31 31 31 31 28 25 23 31 30 32 37 40 42 45
45 44 42 39 42 44 47 46 43 22 18 29 34 33 34 36 37 37 36 37 37 32 32 30 33 33 31 33 33 33 33 33 33 32 24 24 25 20 29 32 35 38 40 41 42
46 46 44 44 40 44 42 36 20 18 31 29 30 33 33 33 33 34 33 30 28 25 23 29 31 33 34 33 35 35 32 23 21 22 20 30 25 23 33 34 37 39 39 40 41
44 43 44 44 44 41 36 24 19 28 28 32 30 31 30 32 32 33 31 29 31 32 29 27 22 32 37 35 34 34 33 26 18 21 23 31 26 28 35 38 39 40 39 39 40
41 39 39 41 43 39 30 23 24 27 30 28 31 27 29 31 31 31 31 30 33 33 29 28 28 33 37 37 37 35 30 36 28 31 25 26 31 35 36 36 36 36 37 38 39
35 36 35 41 43 35 29 28 31 34 32 32 25 27 26 29 27 30 28 32 34 34 36 34 28 31 35 38 38 36 37 30 30 22 21 25 27 28 32 32 32 32 33 38 39
36 30 34 41 39 34 29 30 34 36 34 31 28 26 28 28 29 29 30 31 34 37 36 35 32 28 33 33 30 34 31 33 32 29 24 21 26 36 34 33 33 33 36 38 38
33 28 36 39 31 34 32 35 36 33 35 33 31 29 29 31 29 31 30 32 35 37 34 35 32 26 25 30 30 31 28 28 23 21 24 22 25 37 36 36 35 35 37 38 39
31 31 36 36 28 29 31 34 35 32 31 30 29 31 33 32 29 32 32 33 36 35 33 33 27 23 16 20 27 27 27 27 27 24 22 19 23 34 36 36 36 36 37 37 36
31 25 31 35 33 32 30 30 30 33 32 31 31 30 31 30 32 30 30 32 35 35 34 31 27 25 19 23 27 24 23 27 25 20 21 23 27 31 32 35 34 32 31 32 31
33 31 33 29 30 30 32 31 30 30 32 32 29 30 29 27 26 26 28 28 32 30 33 30 23 26 25 26 25 24 21 26 25 24 18 24 26 30 32 33 34 32 29 30 30
32 32 33 30 30 30 31 31 30 31 31 30 29 30 29 27 28 26 29 26 26 28 29 29 24 27 24 24 24 23 23 25 27 27 27 27 26 30 31 30 29 29 29 30 30
38 38 32 30 29 30 31 32 31 32 32 32 31 29 28 30 32 32 32 32 30 27 26 27 26 24 15 20 21 16 19 24 26 28 26 23 25 31 30 29 29 29 29 29 30

GFSSW_sfc_30mbdewp_099.txt.gz
Dewpoint
49 48 46 46 47 50 50 47 46 46 45 47 50 52 56 54 51 49 40 39 46 46 47 44 40 38 38 36 35 37 19 15 23 30 27 31 30 31 32 30 29 29 29 31 30
48 48 48 47 47 48 50 50 49 46 45 46 48 52 57 53 47 43 44 47 49 45 42 40 37 36 35 35 35 31 15 17 32 33 31 31 32 32 30 28 27 28 28 30 31
47 46 48 46 46 47 48 49 49 47 47 47 46 51 55 51 38 35 47 49 48 46 45 42 41 37 34 34 34 32 21 31 31 33 31 31 31 32 29 27 28 26 28 29 30
45 45 46 45 46 47 48 49 49 47 47 46 48 53 53 45 38 42 49 51 47 46 37 37 36 33 32 29 32 28 33 32 33 31 30 28 29 28 28 26 28 29 30 29 29
45 45 45 44 46 47 48 50 50 48 46 44 50 53 46 39 38 42 52 50 42 36 35 35 33 31 28 28 27 27 29 30 31 29 29 29 27 27 26 27 28 28 29 29 29
45 44 44 44 46 47 47 48 49 49 47 46 47 53 46 40 48 47 43 40 36 33 32 31 30 30 29 28 24 29 29 29 27 27 27 25 25 26 23 24 26 26 26 26 28
45 45 45 45 46 46 47 47 48 47 47 48 48 50 45 41 50 45 40 38 37 35 33 34 32 28 29 27 30 29 21 23 23 25 26 25 18 22 24 26 26 27 28 29 29
46 45 44 46 45 46 47 47 47 48 48 48 49 48 42 50 49 42 38 36 37 37 35 35 34 32 30 30 25 24 22 9 18 26 27 26 20 18 23 30 30 29 29 29 31
48 45 45 46 45 47 45 45 45 49 50 48 49 45 40 51 43 38 37 35 36 37 37 36 34 31 28 22 15 20 9 19 21 26 28 28 25 28 30 29 28 28 29 32 33
48 46 45 45 47 44 43 45 48 48 47 47 47 39 43 43 37 34 36 35 35 34 33 33 31 28 27 20 0 15 18 22 22 24 27 27 27 28 30 31 31 31 32 34 37
46 45 45 47 44 42 40 39 37 38 41 39 39 39 42 43 38 35 36 34 33 31 28 33 22 16 22 24 20 23 24 24 25 26 27 28 28 30 32 34 35 37 40 42 44
45 45 45 46 43 42 39 36 36 39 33 41 42 42 42 38 34 35 36 32 30 28 31 25 21 27 27 28 27 27 25 24 26 28 29 29 29 31 33 37 40 40 41 43 45
45 45 46 46 43 42 40 40 45 45 32 34 40 39 39 34 31 33 35 33 29 28 26 20 27 29 28 28 27 27 26 25 26 29 32 30 28 25 33 36 36 41 41 44 46
45 44 45 46 41 43 41 46 47 46 28 29 34 37 39 37 33 39 39 34 32 26 28 27 29 29 29 29 28 24 27 28 29 30 26 32 23 24 29 33 33 38 39 41 45
44 44 45 43 41 40 42 47 47 43 15 32 35 38 38 35 34 36 39 34 31 31 28 25 28 31 29 29 30 27 29 30 31 31 30 29 26 23 30 30 33 38 40 40 43
46 46 43 41 42 44 46 46 43 21 17 29 36 36 34 36 36 37 36 37 36 31 32 29 32 32 30 31 32 31 32 33 33 31 24 24 25 22 28 32 34 38 40 41 41
45 45 43 44 39 44 42 36 20 18 31 28 32 34 32 32 33 33 32 29 27 24 23 27 31 33 34 32 35 34 31 23 20 22 19 27 26 24 32 33 37 39 39 40 41
43 42 43 43 43 42 36 26 19 27 27 32 32 31 29 31 31 32 31 28 30 31 28 25 22 30 35 34 34 34 33 24 18 19 23 30 24 29 35 38 39 38 38 39 40
41 38 37 38 42 39 30 23 24 27 29 30 30 27 30 31 30 31 31 30 32 32 29 27 27 33 36 36 36 34 30 35 29 28 26 26 31 36 37 36 35 34 37 37 39
35 34 34 39 41 35 28 27 30 34 32 31 25 26 25 28 27 29 28 31 35 34 35 33 28 31 35 37 37 35 36 29 30 21 20 24 27 28 32 32 32 32 33 36 37
34 31 35 40 39 34 27 31 33 36 35 30 27 27 28 27 28 29 29 31 34 37 36 35 32 27 33 34 30 34 31 31 32 29 23 21 25 36 32 33 33 34 36 37 37
33 30 36 39 31 33 32 34 35 33 35 33 30 29 30 30 29 31 30 31 35 37 33 34 31 27 26 30 30 31 28 27 24 21 24 23 24 36 37 37 35 36 37 38 39
30 30 35 36 28 28 30 33 34 31 31 30 29 32 33 32 29 32 32 33 36 36 33 34 28 22 15 20 27 26 27 27 27 25 22 20 22 34 36 36 37 37 37 37 36
31 25 31 33 33 31 29 30 29 33 32 31 31 30 31 29 31 29 29 32 36 36 35 33 27 24 17 20 27 25 24 26 26 21 21 22 28 31 35 35 36 36 35 35 33
33 31 33 28 29 30 31 31 30 30 32 32 29 30 29 26 26 26 28 27 32 31 33 30 25 25 25 25 26 26 24 23 24 23 19 21 27 31 33 35 35 33 30 29 30
32 31 31 30 30 30 31 30 30 31 31 29 28 30 29 27 28 26 29 26 26 27 29 29 25 27 23 25 24 23 23 23 26 27 26 26 25 28 32 32 33 33 30 29 30
37 37 30 30 30 29 30 30 30 32 31 32 31 29 27 29 31 31 31 31 30 27 26 27 25 23 15 19 20 15 18 23 26 27 25 23 24 30 30 30 30 30 29 29 30

GFSSW_sfc_30mbdewp_102.txt.gz
Dewpoint
47 48 49 48 47 47 48 50 48 47 46 46 49 51 55 56 52 49 39 36 44 47 46 41 39 40 40 38 38 37 12 12 18 21 23 31 28 30 31 28 26 26 27 28 27
47 47 48 49 49 47 48 49 50 48 46 46 47 50 57 54 47 43 42 47 49 47 39 34 33 38 35 36 36 25 14 13 27 29 27 30 30 28 25 22 21 21 22 23 26
45 47 46 48 47 48 47 48 49 50 46 48 48 51 54 47 42 37 47 49 47 45 41 38 36 32 31 34 33 31 19 26 30 32 32 28 26 27 24 21 21 20 18 20 25
45 45 45 46 45 47 47 49 49 49 48 46 50 52 52 48 39 43 49 50 48 43 39 36 32 27 26 26 32 24 30 30 32 32 30 26 25 22 21 20 19 20 21 23 25
45 45 45 45 45 47 47 48 49 50 49 45 49 53 47 43 42 43 51 48 42 38 37 35 29 29 26 28 29 25 29 30 30 30 27 25 23 21 19 19 20 22 23 24 25
46 45 45 44 45 46 47 48 48 49 50 47 49 51 46 40 48 50 43 38 36 36 34 34 32 30 27 26 23 27 27 25 25 24 23 22 20 24 16 21 20 25 25 25 26
47 46 46 46 46 46 46 46 46 47 48 48 49 51 46 43 48 43 41 37 36 35 33 33 31 26 27 26 29 28 20 21 23 24 24 26 21 22 20 23 27 27 28 29 29
50 48 45 46 45 46 47 47 47 47 48 47 50 50 43 51 48 38 36 36 36 36 35 35 32 31 29 29 24 22 21 14 19 26 28 27 17 20 21 29 29 29 29 30 31
50 47 45 46 45 46 45 45 45 48 48 48 48 46 41 52 41 36 35 35 36 36 35 34 33 30 28 23 22 19 19 18 20 27 27 27 24 26 29 30 31 32 31 32 34
46 46 45 46 46 44 45 49 48 49 47 41 46 41 45 41 36 36 37 36 34 33 32 32 32 26 25 19 17 19 22 22 22 24 26 27 27 28 30 32 35 36 39 40 42
45 46 46 44 43 43 42 42 39 38 40 35 36 41 40 40 35 34 35 33 31 31 28 32 23 21 23 22 23 25 24 25 25 27 28 29 29 29 30 35 36 38 40 41 42
45 45 45 43 42 42 40 38 38 40 33 41 41 41 42 37 34 33 35 30 29 28 29 26 23 25 27 27 27 27 26 26 26 28 29 29 29 30 31 36 37 38 40 42 44
44 46 44 43 44 43 42 42 45 43 33 35 39 39 40 35 31 32 34 32 28 26 24 24 27 29 28 29 27 27 25 26 28 29 31 30 26 27 31 36 35 37 40 41 43
45 45 45 46 42 44 41 47 47 46 30 29 34 37 38 34 31 39 39 33 31 26 27 27 28 28 28 29 28 26 27 28 29 29 25 30 23 26 28 31 33 35 38 39 41
46 43 46 44 42 40 43 47 47 44 16 32 35 41 38 33 30 34 39 34 30 29 30 28 30 30 29 29 29 28 29 29 30 29 30 27 27 25 28 28 31 34 37 39 40
45 45 42 42 43 43 46 46 42 26 18 30 36 34 32 34 34 35 35 36 35 31 31 29 31 32 30 30 30 31 31 32 31 30 25 26 26 24 27 30 33 36 39 40 41
44 45 43 43 39 44 43 38 28 21 31 30 32 32 31 31 32 32 31 29 29 27 28 29 31 33 33 32 34 33 30 25 23 23 22 26 26 25 32 37 38 38 38 39 40
45 43 43 41 43 43 39 31 20 27 29 35 31 30 28 30 31 31 30 28 31 30 29 28 27 31 34 33 32 33 33 27 20 21 23 28 25 30 37 38 37 37 38 38 39
41 40 39 39 43 41 34 26 26 28 30 29 29 27 28 30 30 31 30 31 32 32 29 29 29 33 35 36 36 35 30 35 29 27 26 26 32 36 37 36 36 35 37 37 38
38 37 37 41 42 38 32 28 29 33 31 30 24 26 25 27 27 28 28 31 33 33 34 32 29 31 36 37 36 34 35 29 30 22 20 23 27 29 32 32 34 34 35 35 38
36 37 39 41 43 37 30 31 31 34 34 30 27 26 27 27 28 29 28 31 34 35 35 34 30 28 33 34 31 34 31 30 30 28 23 20 24 36 34 34 33 35 36 36 38
36 33 39 43 34 36 33 34 35 33 35 32 30 30 29 30 29 30 29 31 35 37 33 34 31 28 27 30 30 31 28 25 24 24 24 23 23 36 37 37 36 36 37 38 38
34 35 41 41 31 32 32 33 33 32 32 31 31 33 33 31 28 31 31 33 36 36 32 34 30 25 20 24 28 27 28 26 27 26 24 21 21 35 36 35 37 36 38 37 35
35 28 36 37 34 32 30 31 31 33 32 31 31 31 31 29 31 29 30 33 36 36 36 34 29 25 18 19 26 25 25 26 27 25 21 21 23 31 35 34 36 36 35 34 34
35 32 33 31 30 32 31 31 30 30 32 31 29 30 29 26 26 26 28 28 34 34 34 32 28 26 25 25 26 26 25 24 25 24 21 19 24 28 34 34 34 36 36 32 30
33 33 33 31 30 31 30 30 30 31 31 29 28 29 29 26 27 25 28 26 26 28 30 31 29 26 24 24 26 24 24 23 23 24 26 24 25 27 32 35 34 35 34 30 30
39 37 31 31 30 28 29 30 30 32 32 32 31 29 27 29 32 32 32 31 30 28 27 28 27 25 20 19 18 16 18 21 22 26 25 23 22 29 30 33 34 34 34 31 30

GFSSW_sfc_30mbdewp_105.txt.gz
Dewpoint
51 50 48 49 50 48 48 49 51 48 46 47 50 51 54 56 52 50 41 39 42 47 44 36 37 38 38 39 38 32 16 12 17 15 23 27 24 28 29 25 23 23 23 24 24
45 46 47 48 48 48 48 48 49 49 47 47 48 49 54 54 49 46 44 45 50 46 35 30 33 34 31 33 31 21 15 15 24 26 25 26 26 24 22 20 19 19 20 19 20
45 46 47 47 48 48 48 48 49 49 47 49 49 49 56 52 46 41 46 49 49 45 33 29 32 29 29 30 29 25 19 23 28 29 29 24 22 23 22 20 17 16 17 17 20
46 46 46 46 46 46 47 48 49 49 49 46 50 51 53 49 40 41 50 51 46 39 35 30 29 23 26 26 28 23 26 25 28 30 27 23 22 19 17 16 18 18 19 20 20
47 46 46 46 45 46 47 48 48 49 49 45 49 53 49 45 41 46 51 50 41 37 33 28 23 23 21 25 25 21 26 28 27 27 24 22 20 19 17 18 17 18 19 21 22
47 46 45 44 44 46 46 48 49 49 49 49 50 52 47 42 47 50 51 43 37 36 34 30 27 28 25 25 23 26 25 22 22 21 21 20 18 19 16 19 22 25 25 25 27
48 47 46 46 46 46 46 45 45 48 47 48 48 49 46 42 50 47 42 36 37 35 32 31 29 25 26 24 26 24 19 21 21 22 22 25 23 22 20 19 26 28 28 28 29
49 47 46 46 45 45 46 47 47 45 46 48 49 47 42 52 53 49 38 36 36 35 33 31 28 28 26 26 22 21 20 16 19 24 27 27 15 20 20 26 28 29 30 31 32
49 46 45 46 45 47 45 45 45 47 48 48 45 45 42 50 45 44 35 34 34 34 32 31 30 26 26 23 24 18 25 16 19 25 26 27 22 23 27 29 29 31 33 36 38
46 46 47 46 45 45 48 48 47 47 46 43 46 41 45 40 41 34 35 33 32 32 28 28 28 22 21 20 23 21 21 20 19 24 25 26 26 27 28 29 31 33 36 38 39
47 45 44 43 43 43 45 45 39 38 40 38 37 40 40 43 40 35 34 31 29 26 25 30 25 22 21 20 21 22 20 21 24 26 28 27 28 28 28 30 33 34 35 37 40
46 45 44 44 43 42 41 38 40 39 34 38 42 41 43 43 37 34 32 26 25 25 26 25 24 23 24 25 24 24 23 26 26 27 28 28 28 29 30 32 34 35 36 38 41
46 45 44 45 44 43 41 41 45 42 33 34 39 39 41 39 34 32 31 28 24 23 21 25 24 27 26 28 26 25 23 24 28 29 30 30 27 29 30 34 35 34 36 38 39
45 46 45 45 42 43 42 46 47 47 31 30 34 37 39 36 31 37 37 31 27 23 24 25 27 26 26 29 27 26 26 27 29 29 26 29 24 26 28 29 33 33 35 38 39
46 44 45 43 41 40 42 46 47 44 19 32 35 42 39 35 30 34 38 33 26 26 30 30 27 28 28 30 28 28 29 29 30 29 29 27 27 26 27 26 29 34 37 39 40
45 45 44 42 42 43 46 45 41 31 19 30 37 36 33 31 33 34 33 35 33 29 29 28 31 31 30 30 30 30 31 31 30 28 25 26 26 23 27 30 34 37 38 39 40
49 44 42 42 39 44 43 39 31 22 32 30 32 33 28 27 30 30 29 29 29 29 30 30 31 32 32 31 33 32 31 27 25 25 24 26 25 24 29 37 37 37 38 39 39
47 44 42 40 42 44 40 34 22 28 29 35 28 27 26 28 29 30 29 28 30 29 30 29 27 31 33 33 31 32 32 28 21 22 24 27 25 29 36 38 37 38 38 38 38
41 40 40 41 43 43 35 28 27 28 28 27 27 25 27 28 28 30 29 29 31 31 28 29 30 32 34 35 35 33 32 34 29 26 25 26 30 35 37 36 34 35 37 37 38
37 38 39 42 43 40 32 28 29 30 29 28 23 24 23 26 27 27 28 31 32 32 33 31 29 31 35 36 36 32 34 29 30 22 21 26 27 29 34 35 36 35 36 36 38
38 34 41 43 43 35 31 29 31 34 33 27 24 24 25 26 27 27 28 30 34 33 34 33 30 29 33 32 29 32 29 30 28 27 24 20 26 34 34 36 35 36 37 37 37
38 36 40 44 37 35 34 34 34 33 34 31 30 29 28 29 29 28 28 31 35 36 31 33 30 27 27 31 32 31 28 24 23 24 24 23 23 35 36 36 37 36 37 38 38
33 36 40 40 34 32 32 32 32 32 32 31 31 32 32 30 27 28 30 33 34 35 31 32 29 26 22 26 28 28 27 26 25 26 24 21 20 35 35 35 36 35 37 38 38
36 32 37 36 36 31 30 30 31 33 31 31 31 31 29 27 29 28 29 33 35 35 35 34 29 25 21 20 24 22 24 25 25 25 21 20 17 30 34 33 35 36 37 37 35
36 34 35 33 30 31 31 31 30 30 31 30 28 29 28 23 24 25 27 29 34 35 34 32 27 27 26 23 22 22 23 23 24 25 20 18 20 21 29 33 34 36 35 33 33
33 33 33 30 31 28 28 29 30 31 30 27 26 27 26 24 26 24 26 24 23 29 29 31 28 26 25 23 23 22 22 22 23 22 23 22 22 23 24 33 32 33 33 34 32
39 36 32 30 29 26 26 28 29 32 32 31 30 28 26 28 31 30 31 30 29 26 25 26 27 26 21 19 18 13 15 19 21 21 21 19 20 23 25 30 32 32 33 33 32

GFSSW_sfc_30mbdewp_108.txt.gz
Dewpoint
50 52 52 50 49 50 48 49 50 48 47 47 50 51 53 58 54 50 44 44 45 47 46 35 37 38 40 40 38 34 23 16 17 16 26 26 25 27 28 25 23 22 22 22 21
46 45 46 48 48 48 49 48 49 49 47 47 48 48 53 55 51 49 45 45 50 45 37 32 33 34 32 35 32 26 19 24 26 26 26 26 25 23 22 21 20 20 21 21 21
45 47 47 47 48 48 48 48 48 49 48 49 49 49 52 53 48 46 46 49 50 45 39 28 33 31 29 29 28 24 25 24 27 31 27 24 22 22 22 21 20 17 18 19 21
47 46 46 46 47 47 47 48 48 49 48 46 50 54 54 51 38 43 49 51 49 43 34 29 30 25 28 27 28 23 26 25 28 30 27 24 22 20 18 18 18 18 18 19 20
47 46 46 46 46 47 47 47 49 49 49 46 49 53 50 46 42 44 52 50 42 39 32 28 26 23 23 26 26 22 26 27 27 27 24 21 20 19 17 18 18 19 21 22 24
47 46 45 45 45 46 48 49 49 49 49 46 50 53 47 42 49 50 51 46 37 36 32 29 24 27 25 24 24 26 27 23 22 22 21 21 20 18 17 20 22 26 28 28 29
47 46 46 46 46 46 46 45 48 48 48 48 48 50 44 44 52 46 43 38 37 35 33 31 28 26 26 24 26 24 21 22 22 22 22 26 23 22 21 18 21 28 28 30 32
47 46 46 46 45 45 46 47 46 47 47 48 49 48 43 52 51 47 42 35 36 35 32 30 30 28 27 26 22 22 19 18 21 23 27 27 12 23 18 22 28 29 32 36 38
47 46 46 46 46 46 45 46 47 47 46 47 45 45 41 49 47 48 40 34 35 33 31 30 30 26 25 24 23 19 27 19 22 24 25 27 23 25 27 27 29 30 35 37 39
45 45 45 45 45 46 49 44 46 47 46 43 44 41 43 41 45 43 37 35 32 32 28 29 28 23 22 25 22 22 19 20 17 26 26 26 26 27 28 28 29 32 34 36 40
45 45 44 43 44 46 46 44 40 39 39 38 38 39 39 42 43 34 34 31 30 25 25 29 26 22 21 23 22 21 19 22 24 26 28 28 28 28 29 29 31 34 35 37 40
44 45 45 43 43 43 43 39 41 39 34 40 40 41 44 44 34 32 32 27 26 27 24 26 25 23 23 24 23 24 23 25 27 28 28 28 29 31 31 32 34 34 36 38 39
46 45 45 45 44 44 42 42 45 42 33 36 40 39 41 41 36 34 32 27 25 24 24 27 23 26 26 28 25 25 23 24 27 30 30 30 29 28 30 34 35 34 36 39 39
46 46 45 44 42 42 42 46 47 46 30 30 34 37 40 38 35 36 37 32 26 22 26 26 27 26 25 29 28 26 26 27 29 28 27 29 20 28 30 31 32 34 37 39 40
45 45 44 43 41 41 43 47 47 44 18 32 36 42 41 36 33 33 38 36 25 25 30 29 26 27 27 30 28 29 30 30 30 28 28 28 26 28 28 27 31 36 39 39 40
48 44 45 43 43 43 46 45 43 30 19 30 37 36 32 31 32 34 33 35 33 29 29 28 31 30 31 30 29 30 31 31 29 28 24 27 27 25 28 30 34 37 38 39 40
49 43 41 41 41 44 43 40 30 23 32 30 33 35 28 28 30 29 30 30 30 28 29 31 30 32 32 31 32 31 29 26 25 24 24 27 25 25 33 36 36 37 37 38 39
45 43 41 40 43 44 40 35 23 29 30 36 32 29 27 28 29 30 28 28 30 30 30 27 26 31 33 33 32 31 31 26 20 21 24 27 24 27 36 37 37 37 37 38 38
43 42 42 42 43 44 37 28 28 30 28 27 26 26 27 28 29 29 27 29 30 31 27 29 29 33 33 33 34 33 31 33 28 27 24 25 29 35 37 36 35 35 36 37 38
41 41 41 43 44 42 33 28 28 28 28 28 23 24 24 27 27 28 27 31 31 32 33 31 28 32 34 35 35 34 33 29 30 22 22 25 28 29 34 35 36 35 35 36 38
41 38 43 44 44 37 31 29 31 33 34 29 24 24 25 26 26 26 27 31 33 33 34 32 30 30 34 33 31 31 29 29 27 26 22 22 25 34 34 35 34 34 34 35 37
42 35 45 45 38 35 34 33 33 32 33 31 31 30 28 28 27 28 29 31 36 35 30 33 31 28 29 32 32 31 29 27 22 26 26 23 22 35 36 36 36 35 35 36 38
36 37 44 45 34 32 32 32 33 32 32 31 31 32 32 29 27 29 30 33 35 34 33 32 30 26 24 26 28 27 28 29 25 27 24 23 23 36 35 35 36 35 36 37 38
38 30 40 37 37 32 31 30 31 33 31 30 30 31 29 27 28 28 30 33 35 35 35 34 29 26 23 23 24 24 25 27 25 26 25 24 22 32 34 34 35 35 36 37 37
37 33 35 34 31 31 31 30 29 29 31 30 28 29 28 23 23 25 27 31 34 36 34 32 28 28 27 27 25 23 22 24 24 24 23 20 20 21 30 34 34 36 36 37 37
37 35 34 30 30 31 28 29 29 30 31 27 25 26 26 24 26 24 26 25 24 32 30 31 27 27 24 23 23 22 23 23 23 24 25 25 24 25 24 32 34 35 36 36 35
39 36 33 28 28 27 28 29 30 32 32 31 30 29 26 30 31 31 31 30 29 26 26 26 27 25 19 24 23 12 18 19 22 22 23 22 23 23 24 29 33 33 34 34 34

GFSSW_sfc_30mbdewp_111.txt.gz
Dewpoint
48 49 50 51 52 51 49 49 50 48 47 47 51 51 53 58 54 51 45 45 46 48 46 37 37 39 41 39 37 33 21 18 24 24 25 26 26 27 27 24 23 22 21 22 23
47 46 49 51 51 50 50 49 50 48 48 47 48 48 55 56 52 49 46 46 50 45 41 34 35 36 33 36 31 25 23 25 28 28 26 26 24 22 21 22 21 20 19 20 22
46 47 47 47 48 49 49 49 50 49 49 48 49 50 55 55 45 45 46 47 49 46 45 38 34 32 30 31 27 25 24 27 32 29 26 23 22 22 22 19 19 17 18 19 20
47 47 46 47 47 48 48 48 49 49 49 47 50 55 55 51 32 47 48 51 48 47 43 31 32 28 29 27 27 22 27 28 30 29 26 24 21 19 20 19 20 18 20 20 21
46 46 47 47 47 47 47 47 49 49 48 47 50 53 50 45 43 50 53 51 44 40 36 29 27 25 26 27 23 24 26 27 28 26 24 23 20 20 19 19 19 23 25 25 25
47 46 46 46 46 47 48 49 50 50 48 48 49 52 47 40 50 52 53 46 38 37 33 32 26 27 26 25 25 28 26 24 22 22 21 20 21 23 17 20 22 24 28 29 31
47 47 47 46 46 46 45 47 48 48 48 48 49 50 44 45 52 51 45 39 37 35 32 30 29 27 26 25 25 23 19 22 22 22 22 26 20 21 19 20 20 28 31 36 38
47 46 46 45 45 47 47 46 47 48 49 48 49 47 43 52 51 47 44 36 35 34 31 31 30 28 27 26 22 21 18 16 22 22 26 25 2 24 22 19 26 30 37 38 43
48 47 47 47 46 46 46 46 47 46 48 47 45 44 41 51 46 48 48 35 32 31 30 31 28 25 25 23 20 19 22 18 21 24 26 26 17 22 23 27 27 31 36 37 42
45 45 45 45 46 49 45 45 43 43 43 43 44 40 41 43 46 46 39 35 32 29 26 26 27 23 23 27 8 18 17 20 18 25 26 26 25 26 27 29 28 32 36 40 40
46 46 44 44 47 47 45 42 39 38 40 39 40 39 42 45 46 40 36 32 31 27 18 30 23 18 22 22 22 21 20 21 24 28 26 25 27 29 30 30 31 34 37 38 39
45 46 43 45 45 44 43 40 41 40 34 39 40 42 44 45 38 34 34 28 27 24 24 27 23 23 25 25 24 23 22 25 29 30 29 28 29 30 32 32 34 35 37 39 40
46 45 45 45 45 44 42 42 47 41 33 36 40 39 41 41 35 34 37 29 26 23 26 25 25 26 27 28 26 25 24 27 27 30 31 28 26 29 32 34 34 35 39 40 39
46 45 44 44 40 42 41 45 47 47 28 30 35 39 40 40 34 37 37 34 26 25 27 26 27 26 28 28 28 25 28 28 30 28 20 29 13 27 29 32 35 37 39 39 39
45 45 43 43 41 40 43 46 47 44 15 33 36 43 41 35 34 29 37 35 25 28 28 26 25 26 28 29 28 29 31 30 30 28 26 26 25 24 30 29 33 38 39 39 39
45 45 45 44 43 44 46 45 42 24 18 31 37 36 36 35 33 31 34 35 33 30 29 29 30 30 31 30 30 32 31 31 29 28 23 25 26 24 27 28 34 37 38 39 39
46 43 42 43 39 45 43 40 24 21 32 30 32 34 30 30 30 31 30 30 29 24 27 30 30 32 32 31 32 30 28 24 23 23 19 28 26 25 30 35 36 36 37 37 39
44 42 41 42 44 43 40 33 22 30 31 36 33 30 28 28 29 30 29 27 29 31 29 25 20 32 32 32 31 31 30 25 19 22 23 27 23 22 35 37 37 37 36 37 38
44 42 42 43 44 43 35 28 26 29 31 31 31 27 27 29 30 29 29 29 30 31 27 28 28 34 32 32 33 31 29 33 27 27 24 22 27 33 37 36 36 35 35 36 37
41 41 41 44 44 41 30 28 29 30 29 28 24 25 25 28 28 28 28 31 31 32 33 31 27 32 33 35 34 34 33 28 28 21 19 22 25 26 33 34 36 35 35 36 36
40 37 43 44 43 35 30 29 31 33 34 30 26 25 25 26 27 27 28 31 33 33 34 32 30 31 34 32 31 31 29 29 27 25 20 20 20 34 30 34 34 35 35 35 36
42 31 43 44 33 35 31 33 33 32 33 31 32 31 28 27 27 29 30 32 35 35 32 32 31 28 28 33 33 31 28 28 23 25 25 24 22 35 34 35 35 35 35 36 36
37 37 45 45 30 31 33 32 33 32 31 31 31 32 31 29 28 29 31 34 35 34 33 32 30 24 25 26 28 28 29 29 26 26 22 22 21 36 35 35 36 35 35 36 37
38 27 38 36 36 32 31 31 30 33 31 30 30 31 30 27 28 29 31 33 35 35 35 33 30 26 20 22 26 26 27 28 27 23 21 23 22 31 34 33 34 35 35 36 37
36 30 35 29 29 31 31 30 29 30 31 30 28 27 27 24 24 26 29 31 34 36 34 33 28 28 28 28 28 26 25 25 27 25 22 19 21 22 28 32 33 35 35 36 36
34 33 34 29 30 29 29 29 30 30 30 28 27 27 26 25 27 26 26 26 28 33 32 32 23 28 25 25 25 24 24 24 23 26 25 25 23 25 25 26 31 34 35 35 36
39 36 33 28 28 27 27 29 30 32 32 30 30 29 27 29 30 30 32 31 30 28 28 29 27 24 14 24 23 9 15 21 22 23 24 23 23 25 24 26 29 34 35 35 36

GFSSW_sfc_30mbdewp_114.txt.gz
Dewpoint
50 48 49 51 52 52 53 49 51 49 47 48 52 55 56 59 55 51 45 45 47 48 48 39 37 39 41 38 36 29 20 20 24 24 25 26 26 26 27 23 23 22 21 21 24
47 46 48 50 51 49 50 51 50 49 48 48 49 49 53 58 53 49 46 47 48 46 42 35 37 34 35 35 30 24 24 26 29 27 25 24 23 22 20 22 21 18 19 20 22
46 47 48 49 49 49 51 50 51 49 48 48 49 50 55 54 47 44 48 47 49 46 44 43 36 31 31 29 27 27 24 30 31 27 25 23 22 22 21 18 18 17 18 20 21
46 47 47 47 48 47 48 47 50 50 49 48 51 54 53 51 37 49 54 51 48 46 40 32 33 29 27 25 27 24 28 29 30 27 24 22 21 18 20 18 20 18 20 24 26
47 47 48 47 46 47 47 47 47 50 48 48 50 53 51 43 44 51 55 52 43 40 35 29 26 28 26 25 23 25 26 28 28 24 23 22 18 18 18 20 19 21 26 27 27
46 46 46 46 47 47 48 48 49 50 47 49 49 52 47 39 51 52 51 50 39 37 32 29 27 28 28 25 22 28 27 25 22 21 21 19 20 23 16 19 20 24 28 32 38
47 47 46 46 46 47 48 49 49 49 49 48 50 50 45 45 51 53 47 41 37 36 29 30 29 27 26 24 25 24 20 21 21 22 22 25 16 18 19 20 19 27 35 42 46
46 46 46 47 48 47 47 47 47 47 48 49 49 47 43 51 52 47 46 37 33 33 31 31 30 27 26 25 22 19 19 11 22 22 26 23 1 22 23 20 21 31 38 44 45
47 47 47 46 47 46 47 47 47 47 48 47 44 43 40 50 45 49 48 36 31 30 30 31 27 25 25 20 17 19 8 15 20 24 26 25 14 23 20 26 26 31 37 42 44
45 45 45 48 48 46 45 45 44 43 43 42 43 38 42 43 46 46 47 40 30 26 23 26 27 23 24 21 2 10 20 20 18 24 26 25 23 25 26 27 29 30 37 40 41
46 44 46 46 48 47 43 41 38 38 40 40 40 40 42 44 46 41 40 34 30 27 18 30 18 16 22 23 24 21 22 19 24 27 26 25 25 26 28 30 30 34 38 39 40
46 44 46 47 46 46 43 40 42 40 35 40 41 42 44 45 34 35 37 28 30 19 27 25 21 24 27 25 22 22 22 25 29 30 29 29 28 30 31 32 31 35 37 39 39
46 46 46 45 45 43 43 43 47 41 34 36 41 40 41 42 37 35 37 30 27 26 27 23 24 28 26 26 24 26 25 27 25 30 31 27 21 29 33 34 35 37 39 39 39
46 45 44 45 39 42 41 45 47 47 27 31 35 39 41 42 35 38 37 33 26 26 26 25 27 28 28 28 27 24 29 29 30 25 11 28 4 22 30 33 34 38 39 39 39
46 45 45 43 41 38 41 45 46 42 16 33 35 42 42 37 36 32 34 33 28 29 25 23 25 27 28 28 30 28 31 31 30 28 26 26 23 22 30 29 32 37 38 39 39
45 45 46 42 43 44 46 45 42 20 18 31 37 35 33 34 32 32 33 34 33 30 29 28 29 31 31 31 31 32 31 31 30 26 15 24 25 22 26 28 31 37 38 39 39
43 44 42 44 37 45 43 37 23 21 32 30 32 33 32 32 30 31 29 30 28 22 27 29 30 32 32 31 32 30 26 16 13 19 15 27 26 25 27 33 34 36 37 37 39
43 43 42 43 44 42 39 29 22 29 31 35 34 33 30 31 29 30 29 28 30 29 27 23 19 31 32 31 29 31 28 21 10 20 22 26 24 23 33 36 37 37 37 36 37
44 42 42 42 44 41 33 26 25 28 32 32 32 28 28 29 30 30 29 30 30 31 26 26 28 33 32 32 32 29 27 32 26 26 24 22 24 28 36 36 37 36 35 36 37
41 41 41 44 44 40 30 29 30 31 30 31 25 26 26 28 28 28 29 31 30 32 33 30 27 32 33 34 34 32 33 27 26 19 18 20 23 24 31 32 35 35 35 35 37
40 36 43 44 42 34 29 29 30 33 33 30 28 25 26 27 28 27 28 31 33 32 34 32 29 30 33 32 30 32 30 29 27 26 20 16 13 28 29 29 31 34 36 35 35
41 32 43 44 32 33 31 33 33 32 33 32 32 30 29 29 28 30 29 31 34 34 32 32 30 29 30 32 33 32 29 28 23 22 24 23 18 28 33 33 34 33 35 35 36
36 37 44 43 29 30 33 32 32 32 31 31 31 32 31 29 27 30 31 35 36 34 32 32 28 23 25 27 29 30 30 29 26 25 23 21 14 33 35 35 35 34 35 35 36
35 27 36 35 35 32 31 31 29 33 30 30 30 30 29 26 29 29 30 33 35 35 35 33 30 25 17 21 27 26 27 30 27 24 23 22 21 23 32 34 34 34 35 35 36
32 31 35 27 29 30 31 30 29 29 31 30 27 27 27 24 25 27 31 32 34 36 34 32 26 27 27 28 28 27 26 26 28 28 23 17 19 20 21 24 29 34 35 35 35
33 29 34 29 30 28 28 29 29 30 30 28 26 28 26 25 26 25 26 29 29 34 32 32 22 27 23 25 25 24 25 26 26 27 27 26 24 25 25 25 28 30 33 34 35
38 36 31 28 28 26 25 28 28 31 31 30 29 28 27 28 30 30 31 31 30 30 29 29 27 23 14 22 22 10 17 22 24 24 24 23 24 25 24 24 25 26 32 33 35

GFSSW_sfc_30mbdewp_117.txt.gz
Dewpoint
50 48 47 49 51 51 50 52 52 51 48 48 53 54 56 58 54 50 44 45 47 48 48 42 37 39 40 36 35 28 20 19 24 25 25 26 25 24 25 22 22 21 22 22 24
46 46 48 49 51 50 50 50 52 51 48 50 50 54 56 57 52 48 49 48 49 47 40 36 38 37 36 32 29 24 23 25 28 26 25 24 22 22 20 21 20 18 19 21 22
47 48 48 48 49 49 49 49 51 50 48 49 49 50 54 57 48 45 54 51 49 47 43 42 38 32 31 27 26 27 24 29 28 26 25 22 21 21 19 16 18 17 18 20 24
48 48 48 48 47 49 49 51 50 51 49 48 51 53 56 51 36 50 54 57 49 45 37 33 32 28 26 25 27 25 29 29 28 26 23 20 21 18 20 18 19 18 20 25 26
47 47 47 47 47 47 47 48 47 50 48 49 50 53 51 43 45 53 55 50 43 39 33 31 27 28 24 24 25 26 28 29 27 23 22 21 17 17 16 19 20 19 26 28 33
47 46 46 47 48 49 47 47 48 49 49 48 50 52 46 38 52 53 54 45 38 36 31 28 26 29 27 25 24 27 27 24 22 21 23 17 19 22 15 19 18 23 30 38 42
46 46 47 47 47 48 49 49 50 50 49 49 50 49 45 44 52 52 49 42 37 36 28 30 29 26 26 25 26 23 20 21 21 21 23 25 14 15 18 21 21 30 39 45 46
47 47 48 47 47 47 47 48 48 48 49 49 49 46 43 51 52 50 47 36 33 32 31 31 29 26 25 25 22 18 18 9 21 21 26 19 -3 17 22 20 19 32 42 45 45
47 47 46 47 46 48 48 47 47 46 47 47 43 42 41 50 46 48 48 39 36 28 31 30 27 25 24 18 15 19 7 14 20 24 26 23 7 22 22 20 26 28 41 44 43
45 46 48 48 47 47 46 45 44 44 44 42 43 37 42 42 46 47 48 42 31 25 25 27 25 22 25 13 6 8 19 18 18 24 25 24 22 23 26 24 25 28 37 42 42
45 46 47 48 47 47 43 40 37 39 41 40 41 39 41 44 46 44 47 40 30 23 22 29 17 15 22 24 19 18 20 19 24 27 27 25 25 25 26 27 27 29 34 40 41
46 46 47 46 47 46 43 40 41 40 35 40 40 41 43 44 36 41 45 34 25 23 27 21 19 24 26 24 22 21 19 23 29 29 29 28 26 28 30 31 31 32 36 39 40
45 46 46 46 45 43 43 43 46 41 34 36 41 40 42 43 37 36 41 32 28 27 24 21 24 28 25 25 23 26 23 26 24 29 31 27 15 27 33 34 35 36 38 39 39
45 45 45 45 39 41 41 46 46 46 28 31 36 40 40 42 33 37 38 32 28 25 26 25 27 27 28 27 26 20 29 30 29 23 7 28 3 17 29 32 34 37 38 39 39
45 45 46 41 39 37 41 45 46 40 16 33 36 44 42 36 35 33 34 33 28 29 22 24 26 28 27 28 30 27 31 31 30 27 24 24 19 19 29 28 32 35 38 38 39
45 46 46 42 42 44 45 44 39 19 18 31 37 36 36 34 33 33 32 34 33 29 29 27 29 31 30 31 31 32 31 29 29 25 13 22 24 19 24 27 29 35 37 38 39
43 44 43 44 36 45 43 36 22 20 31 29 33 35 33 32 29 31 30 30 26 19 25 29 30 32 32 30 31 29 27 11 9 16 7 25 26 23 25 28 31 33 37 38 38
42 42 43 44 44 42 37 28 21 28 30 34 34 31 29 29 29 30 28 28 31 28 26 19 16 30 32 31 28 30 26 12 -5 13 22 25 23 20 30 35 37 37 37 37 37
44 42 41 42 44 40 32 25 25 28 32 33 33 28 27 29 29 29 29 29 30 30 23 24 26 33 33 33 31 29 26 30 24 24 23 21 23 25 33 34 36 36 36 35 36
41 41 41 44 44 37 30 29 30 31 32 31 25 27 26 28 28 28 29 31 30 32 32 29 27 32 32 33 34 31 33 25 25 17 15 18 20 20 29 29 34 35 36 35 36
40 35 42 44 42 33 28 29 30 33 33 30 28 25 27 27 28 27 28 31 33 32 34 31 28 28 31 32 30 32 29 29 26 24 18 14 9 24 28 29 27 31 35 36 36
40 32 43 43 31 32 31 32 33 32 33 32 32 30 29 28 28 30 28 31 34 34 31 32 30 27 29 32 33 32 29 28 22 20 24 22 17 26 33 30 32 31 33 35 36
36 37 44 42 27 30 32 31 32 31 30 31 31 31 31 29 27 30 31 35 35 34 32 32 28 24 24 27 31 31 30 29 26 25 23 19 8 29 34 35 34 33 33 34 35
34 26 34 35 34 31 30 30 29 33 30 30 30 30 28 26 29 29 30 33 35 36 34 31 28 23 13 17 26 29 28 29 27 24 23 23 19 20 24 32 33 34 34 34 34
32 30 34 26 29 31 31 30 29 28 31 29 26 27 26 24 25 28 31 32 34 36 34 31 22 27 27 27 27 26 26 27 28 28 24 19 19 19 21 21 21 27 33 34 34
31 28 32 29 30 28 28 28 27 30 29 26 24 27 26 24 24 24 28 29 27 34 32 32 22 26 23 24 26 25 26 27 27 29 29 28 27 27 27 26 25 27 30 32 34
37 36 28 28 28 26 24 28 28 31 30 30 29 27 27 27 29 29 30 30 30 31 30 29 27 23 14 20 22 11 16 20 23 25 25 24 23 25 24 24 24 23 26 28 30